[[{"header":{"parameterUnit":"m.s-1","parameterCategory":1,"la1":30.6,"la2":29.2853,"lo1":-89.7004,"lo2":-87.6739,"dy":0.0162,"dx":0.0183,"nx":112,"ny":82,"refTime":"2025-05-22T06:00:00:Z","depth":0,"parameterNumber":2,"parameterNumberName":"U-component_of_WINDS"},"data":[0.0,0.0,0.0,0.0,0.0,0.0,0.0,0.0,0.0,0.0,0.0,0.0,0.0,0.0,0.0,0.0,0.0,0.0,0.0,0.0,0.0,0.0,0.0,0.0,0.0,0.0,0.0,0.0,0.0,0.0,0.0,0.0,0.0,0.0,0.0,0.0,0.0,0.0,0.0,0.0,0.0,0.0,0.0,0.0,0.0,0.0,0.0,0.0,0.0,0.0,0.0,0.0,0.0,0.0,0.0,0.0,0.0,0.0,0.0,0.0,0.0,0.0,0.0,0.0,0.0,0.0,0.0,0.0,0.0,0.0,0.0,0.0,0.0,0.0,0.0,0.0,0.0,0.0,0.0,0.0,0.0,0.0,0.0,0.0,0.0,0.0,0.0,0.0,0.0,0.0,-1.2905,-1.2905,-1.2905,-1.2905,-1.2905,-1.2905,-1.2905,-1.2905,0.0,0.0,0.0,0.0,0.0,0.0,0.0,0.0,0.0,0.0,0.0,0.0,0.0,0.0,0.0,0.0,0.0,0.0,0.0,0.0,0.0,0.0,0.0,0.0,0.0,0.0,0.0,0.0,0.0,0.0,0.0,0.0,0.0,0.0,0.0,0.0,0.0,0.0,0.0,0.0,0.0,0.0,0.0,0.0,0.0,0.0,0.0,0.0,0.0,0.0,0.0,0.0,0.0,0.0,0.0,0.0,0.0,0.0,0.0,0.0,0.0,0.0,0.0,0.0,0.0,0.0,0.0,0.0,0.0,0.0,0.0,0.0,0.0,0.0,0.0,0.0,0.0,0.0,0.0,0.0,0.0,0.0,0.0,0.0,0.0,0.0,0.0,0.0,0.0,0.0,0.0,0.0,0.0,0.0,0.0,0.0,0.0,0.0,0.0,0.0,0.0,0.0,0.0,0.0,-1.2905,-1.2905,-1.2905,-1.2905,-1.2905,-1.2905,-1.2905,-1.2905,0.0,0.0,0.0,0.0,0.0,0.0,0.0,0.0,0.0,0.0,0.0,0.0,0.0,0.0,0.0,0.0,0.0,0.0,0.0,0.0,0.0,0.0,0.0,0.0,0.0,0.0,0.0,0.0,0.0,0.0,0.0,0.0,0.0,0.0,0.0,0.0,0.0,0.0,0.0,0.0,0.0,0.0,0.0,0.0,0.0,0.0,0.0,0.0,0.0,0.0,0.0,0.0,0.0,0.0,0.0,0.0,0.0,0.0,0.0,0.0,0.0,0.0,0.0,0.0,0.0,0.0,0.0,0.0,0.0,0.0,0.0,0.0,0.0,0.0,0.0,0.0,0.0,0.0,0.0,0.0,0.0,0.0,0.0,0.0,0.0,0.0,0.0,0.0,0.0,0.0,0.0,0.0,0.0,0.0,0.0,0.0,0.0,0.0,0.0,0.0,0.0,0.0,0.0,-1.2905,-1.2905,-1.2905,-1.2905,-1.3041,-1.3348,-1.3079,-1.3041,-1.3372,-1.3079,0.0,0.0,0.0,0.0,0.0,0.0,0.0,0.0,0.0,0.0,0.0,0.0,0.0,0.0,0.0,0.0,0.0,0.0,0.0,0.0,0.0,0.0,0.0,0.0,0.0,0.0,0.0,0.0,0.0,0.0,0.0,0.0,0.0,0.0,0.0,0.0,0.0,0.0,0.0,0.0,0.0,0.0,0.0,0.0,0.0,0.0,0.0,0.0,0.0,0.0,0.0,0.0,0.0,0.0,0.0,0.0,0.0,0.0,0.0,0.0,0.0,0.0,0.0,0.0,0.0,0.0,0.0,0.0,0.0,0.0,0.0,0.0,0.0,0.0,0.0,0.0,0.0,0.0,0.0,0.0,0.0,0.0,0.0,0.0,0.0,0.0,0.0,0.0,0.0,0.0,0.0,0.0,0.0,0.0,0.0,0.0,0.0,0.0,0.0,0.0,0.0,0.0,-1.3027,-1.3027,-1.3027,-1.3027,-1.3189,-1.3563,-1.3176,-1.3113,-1.3552,-1.3152,0.0,0.0,0.0,0.0,0.0,0.0,0.0,0.0,0.0,0.0,0.0,0.0,0.0,0.0,0.0,0.0,0.0,0.0,0.0,0.0,0.0,0.0,0.0,0.0,0.0,0.0,0.0,0.0,0.0,0.0,0.0,0.0,0.0,0.0,0.0,0.0,0.0,0.0,0.0,0.0,0.0,0.0,0.0,0.0,0.0,0.0,0.0,0.0,0.0,0.0,0.0,0.0,0.0,0.0,0.0,0.0,0.0,0.0,0.0,0.0,0.0,0.0,0.0,0.0,0.0,0.0,0.0,0.0,0.0,0.0,0.0,0.0,0.0,0.0,0.0,0.0,0.0,0.0,0.0,0.0,0.0,0.0,0.0,0.0,0.0,0.0,0.0,0.0,0.0,0.0,0.0,0.0,0.0,0.0,0.0,0.0,0.0,0.0,0.0,0.0,0.0,0.0,-1.3467,-1.3467,-1.3467,-1.3467,-1.3326,-1.2983,-1.2929,-1.2929,-1.2968,-1.2929,0.0,0.0,0.0,0.0,0.0,0.0,0.0,0.0,0.0,0.0,0.0,0.0,0.0,0.0,0.0,0.0,0.0,0.0,0.0,0.0,0.0,0.0,0.0,0.0,0.0,0.0,0.0,0.0,0.0,0.0,0.0,0.0,0.0,0.0,0.0,0.0,0.0,0.0,0.0,0.0,0.0,0.0,0.0,0.0,0.0,0.0,0.0,0.0,0.0,0.0,0.0,0.0,0.0,0.0,0.0,0.0,0.0,0.0,0.0,0.0,0.0,0.0,0.0,0.0,0.0,0.0,0.0,0.0,0.0,0.0,0.0,0.0,0.0,0.0,0.0,0.0,0.0,0.0,0.0,0.0,0.0,0.0,0.0,0.0,0.0,0.0,0.0,0.0,0.0,0.0,0.0,0.0,0.0,0.0,0.0,0.0,0.0,0.0,0.0,0.0,0.0,0.0,-1.3714,-1.3773,0.0,-1.3506,-1.3496,-1.345,-1.3128,-1.3065,-1.3443,0.0,0.0,0.0,0.0,0.0,0.0,0.0,0.0,0.0,0.0,0.0,0.0,0.0,0.0,0.0,0.0,0.0,0.0,0.0,0.0,0.0,0.0,0.0,0.0,0.0,0.0,0.0,0.0,0.0,0.0,0.0,0.0,0.0,0.0,0.0,0.0,0.0,0.0,0.0,0.0,0.0,0.0,0.0,0.0,0.0,0.0,0.0,0.0,0.0,0.0,0.0,0.0,0.0,0.0,0.0,0.0,0.0,0.0,0.0,0.0,0.0,0.0,0.0,0.0,0.0,0.0,0.0,0.0,0.0,0.0,0.0,0.0,0.0,0.0,0.0,0.0,0.0,0.0,0.0,0.0,0.0,0.0,0.0,0.0,0.0,0.0,0.0,0.0,0.0,0.0,0.0,0.0,0.0,0.0,0.0,0.0,0.0,0.0,0.0,0.0,0.0,0.0,-1.3665,-1.4046,-1.4228,0.0,-1.3789,-1.3704,-1.3703,-1.3207,-1.3079,-1.3481,0.0,0.0,0.0,0.0,0.0,0.0,0.0,0.0,0.0,0.0,0.0,0.0,0.0,0.0,0.0,0.0,0.0,0.0,0.0,0.0,0.0,0.0,0.0,0.0,0.0,0.0,0.0,0.0,0.0,0.0,0.0,0.0,0.0,0.0,0.0,0.0,0.0,0.0,0.0,0.0,0.0,0.0,0.0,0.0,0.0,0.0,0.0,0.0,0.0,0.0,0.0,0.0,0.0,0.0,0.0,0.0,0.0,0.0,0.0,0.0,0.0,0.0,0.0,0.0,0.0,0.0,0.0,0.0,0.0,0.0,0.0,0.0,0.0,0.0,0.0,0.0,0.0,0.0,0.0,0.0,0.0,0.0,0.0,0.0,0.0,0.0,0.0,0.0,0.0,0.0,0.0,0.0,0.0,0.0,0.0,0.0,0.0,0.0,0.0,0.0,0.0,0.0,-1.4055,-1.4521,-1.4823,-1.4813,-1.4367,-1.3938,-1.3545,-1.315,-1.2905,0.0,0.0,0.0,0.0,0.0,0.0,0.0,0.0,0.0,0.0,0.0,0.0,0.0,0.0,0.0,0.0,0.0,0.0,0.0,0.0,0.0,0.0,0.0,0.0,0.0,0.0,0.0,0.0,0.0,0.0,0.0,0.0,0.0,0.0,0.0,0.0,0.0,0.0,0.0,0.0,0.0,0.0,0.0,0.0,0.0,0.0,0.0,0.0,0.0,0.0,0.0,0.0,0.0,0.0,0.0,0.0,0.0,0.0,0.0,0.0,0.0,0.0,0.0,0.0,0.0,0.0,0.0,0.0,0.0,0.0,0.0,0.0,0.0,0.0,0.0,0.0,0.0,0.0,0.0,0.0,0.0,0.0,0.0,0.0,0.0,0.0,0.0,0.0,0.0,0.0,0.0,0.0,0.0,0.0,0.0,0.0,0.0,0.0,0.0,0.0,0.0,0.0,0.0,-1.4085,-1.4747,-1.5117,-1.4814,-1.4678,-1.4297,-1.3574,-1.3389,-1.3193,-1.2925,0.0,0.0,0.0,0.0,0.0,0.0,0.0,0.0,0.0,0.0,0.0,0.0,0.0,0.0,0.0,0.0,0.0,0.0,0.0,0.0,0.0,0.0,0.0,0.0,0.0,0.0,0.0,0.0,0.0,0.0,0.0,0.0,0.0,0.0,0.0,0.0,0.0,0.0,0.0,0.0,0.0,0.0,0.0,0.0,0.0,0.0,0.0,0.0,0.0,0.0,0.0,0.0,0.0,0.0,0.0,0.0,0.0,0.0,0.0,0.0,0.0,0.0,0.0,0.0,0.0,0.0,0.0,0.0,0.0,0.0,0.0,0.0,0.0,0.0,0.0,0.0,0.0,0.0,0.0,0.0,0.0,0.0,0.0,0.0,0.0,0.0,0.0,0.0,0.0,0.0,0.0,0.0,0.0,0.0,0.0,0.0,0.0,0.0,0.0,0.0,0.0,0.0,-1.4104,-1.4855,-1.5312,-1.5068,-1.4893,-1.4502,-1.3792,-1.3578,-1.333,-1.2935,0.0,0.0,0.0,0.0,0.0,0.0,0.0,0.0,0.0,0.0,0.0,0.0,0.0,0.0,0.0,0.0,0.0,0.0,0.0,0.0,0.0,0.0,0.0,0.0,0.0,0.0,0.0,0.0,0.0,0.0,0.0,0.0,0.0,0.0,0.0,0.0,0.0,0.0,0.0,0.0,0.0,0.0,0.0,0.0,0.0,0.0,0.0,0.0,0.0,0.0,0.0,0.0,0.0,0.0,0.0,0.0,0.0,0.0,0.0,0.0,0.0,0.0,0.0,0.0,0.0,0.0,0.0,0.0,0.0,0.0,0.0,0.0,0.0,0.0,0.0,0.0,0.0,0.0,0.0,0.0,0.0,0.0,0.0,0.0,0.0,0.0,0.0,0.0,0.0,0.0,0.0,0.0,0.0,0.0,0.0,0.0,0.0,0.0,0.0,0.0,0.0,0.0,-1.4077,-1.4855,-1.541,-1.541,-1.5068,-1.4648,-1.4143,-1.3763,-1.3369,-1.2935,0.0,0.0,0.0,0.0,0.0,0.0,0.0,0.0,0.0,0.0,0.0,0.0,0.0,0.0,0.0,0.0,0.0,0.0,0.0,0.0,0.0,0.0,0.0,0.0,0.0,0.0,0.0,0.0,0.0,0.0,0.0,0.0,0.0,0.0,0.0,0.0,0.0,0.0,0.0,0.0,0.0,0.0,0.0,0.0,0.0,0.0,0.0,0.0,0.0,0.0,0.0,0.0,0.0,0.0,0.0,0.0,0.0,0.0,0.0,0.0,-1.1932,0.0,0.0,0.0,0.0,0.0,0.0,0.0,0.0,0.0,0.0,0.0,0.0,0.0,0.0,0.0,0.0,0.0,0.0,0.0,0.0,0.0,0.0,0.0,0.0,0.0,0.0,0.0,0.0,0.0,0.0,0.0,0.0,0.0,0.0,0.0,0.0,0.0,0.0,0.0,0.0,0.0,-1.4024,-1.4855,-1.541,-1.541,-1.5332,-1.4933,-1.4172,-1.4026,-1.3682,-1.2954,-1.2905,0.0,0.0,0.0,0.0,0.0,0.0,0.0,0.0,0.0,0.0,0.0,0.0,0.0,0.0,0.0,0.0,0.0,0.0,0.0,0.0,0.0,0.0,0.0,0.0,0.0,0.0,0.0,0.0,0.0,0.0,0.0,0.0,0.0,0.0,0.0,0.0,0.0,0.0,0.0,0.0,0.0,0.0,0.0,0.0,0.0,0.0,0.0,0.0,0.0,0.0,0.0,0.0,0.0,0.0,0.0,0.0,0.0,0.0,0.0,0.0,-1.2016,0.0,0.0,0.0,0.0,0.0,0.0,0.0,0.0,0.0,0.0,0.0,0.0,0.0,0.0,0.0,0.0,0.0,0.0,0.0,0.0,0.0,0.0,0.0,0.0,0.0,0.0,0.0,0.0,0.0,0.0,0.0,0.0,0.0,0.0,0.0,0.0,0.0,0.0,0.0,0.0,-1.3521,-1.4327,-1.4962,-1.5352,-1.541,-1.5156,-1.4502,-1.4221,-1.3831,-1.3223,-1.3023,0.0,0.0,0.0,0.0,0.0,0.0,0.0,0.0,0.0,0.0,0.0,0.0,0.0,0.0,0.0,0.0,0.0,0.0,0.0,0.0,0.0,0.0,0.0,0.0,0.0,0.0,0.0,0.0,0.0,0.0,0.0,0.0,0.0,0.0,0.0,0.0,0.0,0.0,0.0,0.0,0.0,0.0,0.0,0.0,0.0,0.0,0.0,0.0,0.0,0.0,0.0,0.0,0.0,-1.0962,-1.116,-1.1322,-1.1307,-1.143,-1.1693,-1.2445,-1.2265,-1.1494,-1.3119,0.0,0.0,0.0,0.0,0.0,0.0,0.0,0.0,0.0,0.0,0.0,0.0,0.0,0.0,0.0,0.0,0.0,0.0,0.0,0.0,0.0,0.0,0.0,0.0,-1.1915,-1.2047,-1.1652,0.0,0.0,0.0,0.0,0.0,0.0,0.0,0.0,0.0,0.0,0.0,-1.2874,-1.3676,-1.4451,-1.5108,-1.5323,-1.5244,-1.4814,-1.4453,-1.4007,-1.3535,-1.3184,-1.2983,0.0,0.0,0.0,0.0,0.0,0.0,0.0,0.0,0.0,0.0,0.0,0.0,0.0,0.0,0.0,0.0,0.0,0.0,0.0,0.0,0.0,0.0,0.0,0.0,0.0,0.0,0.0,0.0,0.0,0.0,0.0,0.0,-1.4878,-1.4182,0.0,0.0,0.0,0.0,0.0,0.0,0.0,0.0,0.0,0.0,0.0,0.0,0.0,-1.0622,-1.0231,-0.9687,-0.9445,-0.9525,-1.0812,-1.1289,-1.11,-1.2105,-1.2576,-1.2603,-1.2747,0.0,-1.2528,-1.2764,0.0,0.0,0.0,0.0,0.0,0.0,0.0,0.0,0.0,0.0,0.0,0.0,0.0,0.0,0.0,0.0,0.0,0.0,0.0,0.0,0.0,0.0,-1.1216,-1.1402,-1.1319,-1.1187,0.0,-1.1421,-1.1523,-1.0902,-1.0697,0.0,0.0,0.0,0.0,0.0,0.0,0.0,-1.2365,-1.3494,-1.4243,-1.4362,-1.4991,-1.5244,-1.4814,-1.4727,-1.4355,-1.3555,-1.3457,-1.3262,-1.2925,-1.2905,0.0,0.0,0.0,0.0,0.0,0.0,0.0,0.0,0.0,0.0,0.0,0.0,0.0,0.0,0.0,0.0,0.0,0.0,0.0,0.0,0.0,0.0,0.0,0.0,0.0,0.0,0.0,0.0,0.0,-1.4764,-1.5351,-1.5194,-1.5917,-1.5988,0.0,0.0,0.0,0.0,0.0,0.0,0.0,0.0,0.0,-1.1221,-1.0293,-0.978,-0.9668,-0.951,-0.9473,-0.9527,-1.0185,-1.0781,-1.1315,-1.1833,-1.244,-1.3006,-1.3006,-1.3015,-1.2991,-1.3092,-1.3089,-1.2985,0.0,0.0,0.0,0.0,-1.0995,-1.0701,-1.0955,-1.0882,-1.0655,-1.0621,0.0,0.0,0.0,0.0,0.0,0.0,0.0,0.0,0.0,0.0,-1.1269,-1.1362,-1.1295,-1.1236,-1.1236,-1.1404,-1.1301,0.0,-1.0358,-1.0117,-0.9347,0.0,0.0,0.0,0.0,-1.0986,-1.1701,-1.2548,-1.3361,-1.4112,-1.451,-1.4827,-1.5118,-1.4922,-1.4647,-1.4248,-1.3769,-1.3428,-1.3242,-1.3032,-1.2905,0.0,0.0,0.0,0.0,0.0,0.0,0.0,0.0,0.0,0.0,0.0,0.0,0.0,0.0,0.0,0.0,0.0,0.0,0.0,0.0,0.0,0.0,0.0,0.0,0.0,0.0,0.0,0.0,-1.4789,-1.5214,-1.5626,-1.5963,-1.5633,0.0,0.0,0.0,0.0,0.0,0.0,-1.2188,-1.1406,-1.0797,-1.0373,-0.9502,-0.9021,-0.9077,-0.9023,-0.8995,-0.9045,-0.9335,-1.012,-1.1269,-1.1554,-1.2345,-1.3434,-1.3434,-1.3394,-1.332,-1.3393,-1.3136,-1.2745,-1.2745,-1.2644,-1.2445,-1.1832,-1.1515,-1.1402,-1.1516,-1.1455,-1.1369,-1.1263,-1.1216,-1.1176,-1.0995,0.0,0.0,0.0,0.0,-1.1409,-1.1516,-1.1543,-1.1557,-1.1595,-1.1597,-1.1543,-1.1543,-1.1449,-1.1202,0.0,-1.0416,-1.0256,-0.975,0.0,0.0,0.0,0.0,-1.0835,-1.1166,-1.1794,-1.2632,-1.3769,-1.4085,-1.454,-1.5323,-1.5127,-1.4902,-1.4823,-1.4189,-1.3789,-1.3646,-1.3262,-1.3037,-1.3037,0.0,0.0,0.0,0.0,0.0,0.0,0.0,0.0,0.0,0.0,0.0,0.0,0.0,0.0,0.0,0.0,0.0,0.0,0.0,0.0,0.0,0.0,0.0,0.0,0.0,0.0,0.0,0.0,0.0,-1.4553,-1.4611,0.0,0.0,0.0,0.0,-1.1651,-1.2013,-1.1459,-0.9584,-0.9662,-0.9782,-0.9751,-0.8796,-0.8321,-0.8459,-0.7502,-0.7113,-0.7248,-0.8384,-0.9548,-1.0661,-1.1775,-1.2899,-1.4041,-1.4041,-1.3881,-1.3553,-1.3333,-1.305,-1.2793,-1.2793,-1.2449,-1.1991,-1.2194,-1.1904,-1.147,-1.175,-1.1663,-1.1435,-1.1772,-1.1859,-1.1859,-1.1846,-1.1617,0.0,0.0,-1.1382,-1.1455,-1.177,-1.1879,-1.1953,-1.2191,-1.2051,-1.1879,-1.1879,-1.1623,-1.1375,0.0,-1.1322,-1.1229,-1.0955,0.0,-1.0922,-1.0902,-1.0942,-1.1002,-1.1014,-1.17,-1.2418,-1.3011,-1.3726,-1.454,-1.5323,-1.5391,-1.5215,-1.4805,-1.4774,-1.4531,-1.4094,-1.3675,-1.3477,-1.3477,-1.3086,0.0,0.0,0.0,0.0,0.0,0.0,0.0,0.0,0.0,0.0,0.0,0.0,0.0,0.0,0.0,0.0,0.0,0.0,0.0,0.0,0.0,0.0,0.0,0.0,0.0,0.0,0.0,0.0,-1.4817,-1.5198,0.0,-1.2711,-1.3056,-1.2604,-1.0655,-1.0665,-1.061,-1.0151,-0.9516,-0.9266,-0.9433,-0.8385,-0.784,-0.7898,-0.7542,-0.7387,-0.7434,-0.7848,-0.9005,-1.074,-1.1131,-1.2368,-1.4088,-1.4088,-1.4028,-1.3921,-1.3814,-1.3487,-1.3046,-1.3046,-1.2919,-1.2746,-1.2846,-1.2752,-1.2585,-1.2699,-1.2665,-1.2592,-1.2699,-1.2732,-1.2732,-1.2732,-1.2659,-1.2532,-1.2368,-1.2315,-1.2288,-1.2171,-1.2144,-1.2171,-1.2278,-1.2225,-1.2144,-1.2144,-1.2064,-1.1991,-1.1991,-1.1683,-1.1295,-1.1042,-1.1149,-1.1209,-1.1022,-1.1316,-1.149,-1.1296,-1.2233,-1.3109,-1.3647,-1.428,-1.4967,-1.577,-1.5566,-1.5352,-1.5195,-1.4932,-1.4717,-1.4561,-1.4114,-1.3753,-1.3516,-1.3359,-1.3154,0.0,0.0,0.0,0.0,0.0,0.0,0.0,0.0,0.0,0.0,0.0,0.0,0.0,0.0,0.0,0.0,0.0,0.0,0.0,0.0,0.0,0.0,0.0,0.0,0.0,-1.2781,-1.3226,-1.3652,-1.3818,-1.3248,-1.1597,-1.1836,-1.1368,-0.9771,-0.9721,-0.9698,-0.96,-0.8893,-0.854,-0.8699,-0.8013,-0.76,-0.76,-0.76,-0.76,-0.76,-0.8059,-0.9192,-1.097,-1.142,-1.2636,-1.4382,-1.4382,-1.4382,-1.4376,-1.4275,-1.4008,-1.3641,-1.3547,-1.344,-1.3313,-1.3313,-1.3293,-1.3213,-1.3213,-1.3213,-1.3213,-1.3213,-1.3213,-1.3213,-1.3213,-1.3213,-1.3166,-1.2998,-1.2945,-1.2898,-1.2659,-1.2605,-1.2605,-1.2605,-1.2605,-1.2605,-1.2605,-1.2605,-1.2579,-1.2472,-1.2051,-1.1663,-1.147,-1.1597,-1.1657,-1.1463,-1.1764,-1.1904,-1.1617,-1.2577,-1.3512,-1.4024,-1.4705,-1.5358,-1.6044,-1.5791,-1.5566,-1.542,-1.5146,-1.5,-1.5,-1.458,-1.4219,-1.3945,-1.3528,-1.3023,-1.2512,0.0,0.0,0.0,0.0,0.0,0.0,0.0,0.0,0.0,0.0,0.0,0.0,0.0,0.0,0.0,0.0,0.0,0.0,0.0,0.0,0.0,0.0,0.0,-1.0327,-0.9815,-0.9785,-1.1033,-1.0307,-0.9782,-0.9956,-1.0215,-0.9943,-0.8943,-0.9117,-0.8757,-0.7658,-0.7614,-0.7614,-0.7614,-0.7614,-0.7614,-0.7614,-0.7614,-0.7614,-0.7708,-0.8944,-1.0181,-1.1431,-1.2626,-1.3863,-1.5008,-1.5008,-1.5008,-1.4988,-1.4656,-1.4536,-1.4502,-1.4202,-1.3908,-1.362,-1.362,-1.344,-1.32,-1.324,-1.3194,-1.32,-1.324,-1.324,-1.324,-1.324,-1.324,-1.324,-1.3227,-1.3227,-1.322,-1.3213,-1.3213,-1.3213,-1.3213,-1.3213,-1.3213,-1.3213,-1.3213,-1.312,-1.2857,-1.2563,-1.2325,-1.2305,-1.2305,-1.2305,-1.2305,-1.2305,0.0,-1.1953,-1.272,-1.3493,-1.4023,-1.4926,-1.5642,-1.6011,-1.6013,-1.5819,-1.5371,-1.5332,-1.5323,-1.5323,-1.4963,-1.4739,-1.4729,-1.3488,-1.2465,-1.1699,0.0,0.0,0.0,0.0,0.0,0.0,0.0,0.0,0.0,0.0,0.0,0.0,0.0,0.0,0.0,0.0,0.0,0.0,0.0,0.0,0.0,-0.778,-0.8896,-0.9806,-0.9948,-1.0079,-1.0414,-1.0512,-1.0173,-0.9438,-0.9489,-0.9179,-0.8193,-0.8152,-0.8131,-0.7913,-0.787,-0.787,-0.787,-0.787,-0.787,-0.787,-0.787,-0.8402,-0.9368,-0.97,-1.091,-1.2822,-1.32,-1.3939,-1.5008,-1.5008,-1.5008,-1.5001,-1.4921,-1.4843,-1.479,-1.4282,-1.4035,-1.3968,-1.3968,-1.3345,-1.2672,-1.3544,-1.3281,-1.2678,-1.3585,-1.3848,-1.3848,-1.3848,-1.3848,-1.3801,-1.354,-1.3487,-1.344,-1.3267,-1.3213,-1.3213,-1.3213,-1.3213,-1.3213,-1.3213,-1.3213,-1.3186,-1.31,-1.3013,-1.2819,-1.2378,-1.2305,-1.2305,-1.2305,-1.2305,0.0,-1.2191,-1.3006,-1.3645,-1.3795,-1.4387,-1.4832,-1.493,-1.4455,-1.4093,-1.3958,-1.3761,-1.3666,-1.3666,-1.354,-1.3359,-1.3061,-1.2383,-1.193,0.0,0.0,0.0,0.0,0.0,0.0,0.0,0.0,0.0,0.0,0.0,0.0,0.0,0.0,0.0,0.0,0.0,0.0,0.0,0.0,0.0,0.0,-0.5628,-0.6517,-0.7061,-0.817,-0.8918,-0.9,-0.9252,-0.9174,-0.8594,-0.8605,-0.8453,-0.7944,-0.7906,-0.7897,-0.7985,-0.7988,-0.7988,-0.7988,-0.7988,-0.7988,-0.7988,-0.7988,-0.8676,-0.9998,-1.0534,-1.1773,-1.3649,-1.418,-1.4761,-1.5331,-1.5331,-1.5331,-1.5317,-1.5197,-1.5189,0.0,0.0,0.0,0.0,0.0,-1.3646,-1.3075,-1.3294,-1.3209,-1.3075,-1.3294,-1.3688,-1.4088,-1.4088,-1.4088,-1.4048,-1.3874,-1.3828,-1.3753,-1.3621,-1.3581,-1.3581,-1.3581,-1.3581,-1.3581,-1.3581,-1.3581,-1.354,-1.3373,-1.3353,0.0,-1.2766,-1.2572,-1.2445,-1.2318,-1.2305,-1.2305,-1.2305,-1.3135,-1.3709,-1.3709,-1.4348,-1.4714,-1.4532,-1.4097,0.0,0.0,0.0,-1.3135,-1.3009,-1.3118,0.0,0.0,0.0,0.0,0.0,0.0,0.0,0.0,-1.1793,-1.1676,0.0,0.0,0.0,0.0,0.0,0.0,0.0,0.0,0.0,0.0,0.0,0.0,0.0,0.0,0.0,0.0,-0.3321,-0.342,-0.34,-0.5286,-0.6786,-0.6962,-0.6991,-0.71,-0.7347,-0.7385,-0.7397,-0.7524,-0.7534,-0.7637,-0.7786,0.0,0.0,0.0,0.0,-0.7988,-0.7988,-0.7988,-0.8676,-0.9998,-1.117,-1.2377,-1.3734,-1.4997,-1.5588,-1.5581,-1.573,-1.5784,-1.5758,-1.5551,-1.5352,-1.5226,-1.5038,-1.4803,-1.4536,-1.4242,-1.4044,-1.3818,-1.2863,0.0,0.0,-1.2851,-1.3315,-1.4188,-1.4188,-1.4162,-1.4135,-1.4135,-1.4115,-1.4088,-1.4088,-1.4088,-1.4088,-1.4088,-1.4088,-1.4088,-1.4088,-1.4088,-1.4008,-1.37,-1.3653,-1.356,-1.3307,-1.3006,-1.2744,-1.2445,-1.2378,-1.2351,-1.2351,-1.3046,-1.3528,-1.3528,0.0,0.0,-1.4295,-1.4231,-1.3942,-1.3284,-1.3212,-1.3076,-1.2833,-1.3052,-1.2719,-1.1766,-1.1759,-1.1532,-1.1042,-1.1042,-1.1176,-1.1396,-1.0958,-1.0739,0.0,0.0,0.0,0.0,0.0,0.0,0.0,0.0,0.0,0.0,0.0,0.0,0.0,0.0,0.0,-0.2141,-0.285,-0.3247,-0.2279,-0.3396,-0.4272,-0.4336,-0.4449,-0.4506,-0.4588,-0.4652,-0.4748,-0.4766,-0.4768,-0.527,-0.6329,-0.6381,-0.6883,-0.7988,-0.7988,-0.7988,-0.7988,-0.7988,-0.8676,-0.9998,0.0,0.0,-1.2334,-1.3638,-1.4262,-1.4316,-1.5343,-1.5784,-1.5778,-1.5718,-1.5117,-1.4236,-1.4793,-1.4975,-1.4843,-1.4543,-1.3846,-1.3101,-1.3589,-1.3439,-1.3175,-1.3852,-1.4414,-1.4841,-1.4841,-1.4629,0.0,-1.4436,-1.4269,-1.4088,-1.4088,-1.4088,-1.4088,-1.4088,-1.4088,-1.4088,-1.4088,-1.4088,-1.4068,-1.4015,-1.4001,-1.3908,-1.3573,-1.3313,-1.31,-1.3046,-1.2819,-1.2697,-1.2697,-1.2631,-1.2556,-1.2556,-1.2732,-1.2814,-1.2722,-1.2528,-1.2333,-1.2186,-1.1943,-1.1742,-1.172,-1.1769,-1.1674,-1.1485,-1.1485,-1.1445,-1.1309,-1.1309,-1.1335,-1.1382,-1.1323,-1.1242,0.0,0.0,0.0,0.0,0.0,0.0,0.0,0.0,0.0,0.0,0.0,-0.198,-0.2273,0.0,-0.0731,-0.0795,-0.1383,-0.1598,-0.0979,-0.1421,-0.2291,-0.3569,-0.3741,-0.3826,-0.391,-0.3945,-0.4016,-0.4016,-0.4016,-0.4268,-0.497,-0.502,-0.5625,-0.6933,-0.6983,-0.7335,-0.7988,-0.7988,-0.8676,-0.9998,-0.9998,-1.0681,-1.1896,-1.2571,-1.2909,-1.2909,-1.359,-1.3836,-1.3836,-1.3836,-1.3445,-1.2936,-1.332,-1.3751,-1.4247,-1.462,-1.4376,-1.3894,-1.3724,-1.3762,-1.392,-1.3875,-1.4384,-1.5008,-1.5008,-1.4863,-1.4743,-1.4743,-1.4124,-1.3453,-1.3453,-1.2918,-1.2473,-1.3075,-1.3203,-1.3379,-1.3955,-1.4088,-1.4088,-1.4088,-1.4088,-1.4041,-1.3895,-1.3748,-1.3547,-1.3253,-1.308,-1.2958,-1.2804,-1.2656,-1.2509,-1.2318,-1.2305,-1.2305,-1.2305,-1.2037,-1.1906,-1.1906,-1.173,-1.1583,-1.1395,-1.157,-1.1577,-1.1395,-1.1389,-1.1462,-1.165,-1.165,-1.1724,-1.1864,-1.1864,-1.179,0.0,0.0,0.0,0.0,0.0,0.0,0.0,0.0,-0.2087,-0.209,-0.0395,0.0756,-0.0323,0.107,0.1936,0.0585,0.0394,0.0397,0.0403,0.0151,-0.0652,-0.2462,-0.2899,-0.3116,-0.321,-0.3215,-0.3215,-0.3215,-0.3215,-0.3316,-0.3615,-0.3615,-0.4218,-0.5575,-0.5879,-0.6531,-0.7587,-0.7889,-0.8528,-0.9608,-0.9608,-1.0145,-1.1165,-1.1414,-1.1512,-1.1556,-1.1799,-1.1896,-1.1896,-1.1896,-1.175,-1.1556,-1.1804,-1.2411,-1.3251,-1.4311,-1.4856,-1.4947,-1.3921,-1.4217,-1.4908,-1.3938,-1.4339,-1.5182,-1.5182,-1.5142,-1.5095,-1.5095,-1.4002,-1.2824,-1.2815,-1.1903,-1.1138,-1.1826,-1.2328,-1.2851,-1.3597,-1.3913,-1.4088,-1.4088,-1.4088,-1.4088,-1.4088,-1.4088,-1.3928,-1.3454,-1.3333,-1.3206,-1.2991,-1.2857,-1.269,-1.2412,-1.2338,-1.2305,-1.2305,-1.2091,-1.1986,-1.1986,-1.1986,-1.1844,-1.1603,-1.1824,-1.1844,-1.1568,-1.1562,-1.1717,-1.1986,-1.1986,-1.2078,-1.2305,-1.2305,-1.2178,-0.6946,-0.6016,-0.4641,-0.3821,-0.254,-0.1602,0.0,0.0,0.1554,0.1451,0.2592,0.3529,0.3403,0.3601,0.3357,0.2004,0.1787,0.1757,0.1762,0.0756,0.0353,0.1254,0.0301,-0.0453,-0.0454,-0.0454,-0.0454,-0.0454,-0.0454,-0.0958,-0.2163,-0.2213,-0.2815,-0.4166,-0.5375,-0.6079,-0.6229,-0.7385,-0.8088,-0.8233,-0.8233,-0.8283,-0.8482,-0.9657,-1.0194,-1.0293,-1.1414,-1.1896,-1.1896,-1.1896,-1.1219,-1.0337,-1.1463,-1.1978,-1.2169,-1.3215,-1.4343,-1.5311,-1.4915,-1.504,-1.5344,-1.5206,-1.5425,-1.5732,-1.5732,-1.5551,-1.5351,-1.5351,-1.4195,-1.2964,-1.2818,-1.261,-1.2096,-1.1046,-1.2382,-1.3646,-1.2717,-1.3336,-1.4088,-1.4088,-1.4088,-1.4088,-1.4088,-1.4088,-1.4068,-1.4001,-1.3761,-1.354,-1.3507,-1.3073,-1.277,-1.2737,-1.2496,-1.2305,-1.2305,-1.2271,-1.2258,-1.2258,-1.2258,-1.2238,-1.2204,-1.2238,-1.2238,-1.2204,-1.2204,-1.2225,-1.2258,-1.2258,-1.2271,-1.2305,-1.2305,-1.2285,-0.4904,-0.3907,-0.2647,-0.1555,-0.0377,0.069,0.1327,0.2336,0.3115,0.3169,0.4219,0.494,0.4161,0.4642,0.4718,0.3375,0.3149,0.3165,0.3165,0.2013,0.136,0.1913,0.0807,0.0,0.0,0.0,0.0,0.0,0.0,-0.0252,-0.0807,-0.0857,-0.146,-0.2815,-0.3367,-0.4422,-0.5979,-0.6581,-0.7235,-0.7988,-0.7988,-0.7988,-0.8041,-0.8577,-0.8825,-0.8871,-0.941,-0.9653,-0.9653,-0.9653,-0.9312,-0.8874,-0.941,-1.0092,-1.0965,-1.208,-1.3387,-1.4518,-1.4406,-1.4443,-1.4631,-1.5403,-1.5732,-1.5784,-1.5784,-1.5698,-1.5651,-1.5651,-1.4583,-1.3407,-1.3346,-1.2649,-1.1935,-1.191,-1.2644,-1.3354,-1.3332,-1.373,-1.4088,-1.4088,-1.4088,-1.4088,-1.4088,-1.4088,-1.4088,-1.4088,-1.3981,-1.3841,-1.3626,-1.3387,-1.3206,-1.3033,-1.2784,-1.2596,-1.2596,-1.2405,-1.2305,-1.2305,-1.2305,-1.2305,-1.2305,-1.2305,-1.2305,-1.2305,-1.2305,-1.2305,-1.2305,-1.2305,-1.2305,-1.2305,-1.2305,-1.2305,-0.2877,-0.1698,-0.0455,0.0412,0.171,0.3067,0.4088,0.4576,0.4877,0.4997,0.5835,0.6276,0.5307,0.5874,0.6126,0.477,0.4568,0.4568,0.4568,0.3065,0.2113,0.2514,0.1058,0.0,0.0,0.0,0.0,0.0,0.0,0.0,0.0,0.0,-0.0454,-0.1411,-0.2163,-0.3466,-0.5425,-0.6179,-0.7033,-0.7988,-0.7988,-0.7988,-0.7988,-0.7988,-0.7988,-0.7988,-0.7988,-0.7988,-0.7988,-0.7988,-0.7988,-0.7988,-0.7988,-0.8825,-1.0047,-1.0632,-1.1891,-1.3349,-1.3349,-1.3349,-1.3542,-1.4854,-1.5289,-1.5337,-1.5683,-1.5784,-1.5784,-1.5784,-1.481,-1.3737,-1.3719,-1.2893,-1.2073,-1.2304,-1.2809,-1.3318,-1.3576,-1.3864,-1.4088,-1.4088,-1.4088,-1.4088,-1.4088,-1.4088,-1.4088,-1.4088,-1.4088,-1.4008,-1.3753,-1.3653,-1.3493,-1.324,-1.3013,-1.2911,-1.2911,-1.2636,-1.2425,-1.2425,-1.2345,-1.2305,-1.2305,-1.2305,-1.2305,-1.2305,-1.2305,-1.2305,-1.2305,-1.2305,-1.2305,-1.2305,-1.2305,-1.2345,-0.166,0.0,0.1714,0.1753,0.3545,0.5341,0.5519,0.6548,0.754,0.7636,0.7831,0.7935,0.7885,0.7889,0.7487,0.6179,0.5929,0.5929,0.5929,0.3668,0.2464,0.3765,0.1611,0.0,0.0,0.0,0.0,0.0,0.0,0.0,0.0,0.0,0.0,-0.005,-0.2564,-0.3966,-0.4066,-0.6625,-0.7939,-0.7988,-0.7988,-0.7988,-0.7988,-0.7988,-0.7988,-0.7988,-0.7988,-0.7988,-0.7988,-0.7988,-0.7988,-0.7988,-0.7988,-0.8825,-0.9854,-0.8577,-0.9752,-1.1945,-1.1945,-1.1945,-1.2188,-1.3536,-1.3968,-1.4166,-1.5439,-1.5784,-1.5784,-1.5784,-1.4895,-1.3856,-1.3714,-1.3543,-1.2974,-1.1494,-1.2821,-1.4076,-1.2649,-1.3288,-1.4088,-1.4088,-1.4088,-1.4088,-1.4088,-1.4088,-1.4088,-1.4088,-1.4088,-1.4082,-1.4075,-1.378,-1.3493,-1.324,-1.32,-1.32,-1.32,-1.2951,-1.277,-1.277,-1.2496,-1.2305,-1.2305,-1.2305,-1.2305,-1.2305,-1.2305,-1.2305,-1.2305,-1.2305,-1.2305,-1.2305,-1.2305,-1.2458,0.1537,0.2357,0.3183,0.4007,0.4861,0.5995,0.7767,0.8644,0.9112,0.9238,0.9322,0.9069,0.8187,0.7988,0.7839,0.7385,0.7335,0.7033,0.6129,0.447,0.3165,0.2715,0.1109,0.0,0.0,0.0,0.0,0.0,0.0,0.0,0.0,0.0,-0.0404,-0.131,-0.2213,-0.3518,-0.5322,-0.6229,-0.7135,-0.7988,-0.7988,-0.7988,-0.7988,-0.7988,-0.7988,-0.7988,-0.7988,-0.7988,-0.7988,-0.7988,-0.7988,-0.7988,-0.7988,-0.8283,-0.863,-0.8187,-0.8577,-0.946,-1.0337,-1.0632,-1.0828,-1.2134,-1.3151,-1.3974,-1.4411,-1.5146,-1.5784,-1.5784,-1.5486,-1.5175,-1.5132,-1.5053,-1.4816,-1.4114,-1.454,-1.4829,-1.3935,-1.406,-1.4315,-1.4122,-1.4088,-1.4088,-1.4088,-1.4088,-1.4088,-1.4088,-1.4088,-1.4088,-1.4088,-1.4001,-1.3901,-1.3801,-1.3614,-1.346,-1.346,-1.3227,-1.3005,-1.2797,-1.269,-1.2549,-1.2311,-1.2305,-1.2305,-1.2305,-1.2305,-1.2305,-1.2305,-1.2305,-1.2305,-1.2305,-1.2543,-1.269,0.3402,0.4132,0.5039,0.5944,0.6565,0.7554,0.9804,1.0377,1.0389,1.0058,0.9998,0.9608,0.8237,0.7988,0.7988,0.7988,0.7988,0.7537,0.6179,0.487,0.3515,0.2163,0.0807,0.0,0.0,0.0,0.0,0.0,0.0,0.0,0.0,-0.0454,-0.1109,-0.1962,-0.2917,-0.4271,-0.5979,-0.6481,-0.7135,-0.7988,-0.7988,-0.7988,-0.7988,-0.7988,-0.7988,-0.7988,-0.7988,-0.7988,-0.7988,-0.7988,-0.7988,-0.7988,-0.7988,-0.7988,-0.7988,-0.7988,-0.7988,-0.8137,-0.897,-0.9266,-0.9509,-1.0779,-1.2086,-1.3247,-1.3728,-1.4806,-1.5784,-1.5784,-1.5784,-1.5784,-1.5784,-1.5784,-1.5711,-1.5464,-1.5398,-1.5264,-1.4783,-1.4676,-1.4589,-1.4295,-1.4329,-1.4329,-1.4122,-1.4088,-1.4088,-1.4088,-1.4088,-1.4088,-1.4088,-1.4088,-1.4088,-1.4088,-1.3915,-1.376,-1.376,-1.3493,-1.328,-1.3119,-1.3005,-1.2864,-1.2632,-1.2625,-1.2625,-1.2625,-1.2625,-1.2625,-1.2625,-1.2625,-1.2625,-1.2632,-1.2819,-1.3005,0.4118,0.5501,0.732,0.7607,0.8685,0.9999,1.1462,1.1758,1.1402,1.0302,1.0047,0.9608,0.0,0.0,0.7988,0.7988,0.7939,0.7437,0.6079,0.472,0.3416,0.0,0.0,0.0,0.0,0.0,0.0,0.0,0.0,-0.0051,-0.0101,-0.131,-0.2063,-0.2213,-0.4672,-0.6029,-0.6079,-0.7385,-0.7988,-0.7988,-0.7988,-0.7988,-0.7988,-0.7988,-0.7988,-0.7988,-0.7988,-0.7988,-0.7988,-0.7988,-0.7988,-0.7988,-0.7988,-0.7988,-0.7988,-0.7988,-0.7988,-0.7988,-0.7988,-0.7988,-0.8187,-0.946,-1.0779,-1.2042,-1.3392,-1.4704,-1.573,-1.5778,-1.5784,-1.5784,-1.5784,-1.5784,-1.5758,-1.5484,-1.5418,-1.5337,-1.5095,-1.5028,-1.4941,-1.4603,-1.477,-1.4834,-1.4229,-1.4122,-1.4108,-1.4108,-1.4095,-1.4088,-1.4088,-1.4088,-1.4088,-1.4088,-1.4088,-1.4088,-1.4088,-1.3828,-1.362,-1.36,-1.3347,-1.3227,-1.3213,-1.3213,-1.3213,-1.3213,-1.3213,-1.3213,-1.3213,-1.3213,-1.3213,-1.3213,-1.3227,-1.334,0.7276,0.8281,0.9159,1.02,1.0788,1.1489,1.2877,1.2506,1.1783,1.1497,1.0681,0.9608,0.8237,0.7988,0.7988,0.7988,0.7182,0.0,0.4718,0.3366,0.0,0.0656,0.0,0.0,0.0,0.0,0.0,0.0,0.0,-0.0454,-0.1461,-0.1812,-0.2916,-0.4924,-0.5627,-0.6481,-0.7484,-0.7839,-0.7988,-0.7988,-0.7988,-0.7988,-0.7988,-0.7988,-0.7988,-0.7988,-0.7988,-0.7988,-0.7988,-0.7988,-0.7988,-0.7988,-0.7988,-0.7988,-0.7988,-0.7988,-0.7988,-0.7988,-0.7988,-0.7988,-0.8038,-0.8382,-0.941,-1.073,-1.2042,-1.3349,-1.4561,-1.5534,-1.5784,-1.5784,-1.5784,-1.5784,-1.5764,-1.5684,-1.5718,-1.5638,-1.5351,-1.5284,-1.5204,-1.4955,-1.4955,-1.4961,-1.4814,-1.4556,-1.4409,-1.4409,-1.4222,-1.4088,-1.4088,-1.4088,-1.4088,-1.4088,-1.4088,-1.4088,-1.4088,-1.4015,-1.3881,-1.362,-1.3533,-1.34,-1.322,-1.3213,-1.3213,-1.3213,-1.3213,-1.3213,-1.3213,-1.3213,-1.3213,-1.3213,-1.3387,-1.3533,0.9629,1.0287,1.0809,1.2115,1.2579,1.285,1.362,1.3253,1.2425,1.1312,1.0485,0.9608,0.8237,0.7988,0.7988,0.7988,0.6883,0.5525,0.4166,0.2865,0.1515,0.0,0.0,0.0,0.0,0.0,0.0,0.0,0.0,-0.0567,-0.1937,-0.2545,-0.3851,-0.5932,-0.6581,-0.7235,-0.7988,-0.7988,-0.7988,-0.7988,-0.7988,-0.7988,-0.7988,-0.7988,-0.7988,-0.7988,0.0,-0.7988,-0.7988,-0.7988,-0.7988,-0.7988,-0.7988,-0.7988,-0.7988,-0.7988,-0.7988,-0.7988,-0.7988,-0.7988,-0.7988,-0.7988,-0.892,-1.0243,-1.1507,-1.2861,-1.4166,-1.5439,-1.5784,-1.5784,-1.5784,-1.5784,-1.5784,-1.5784,-1.5784,-1.5738,-1.5618,-1.5585,-1.5538,-1.5378,-1.5182,-1.5048,-1.5182,-1.491,-1.4669,-1.4536,-1.4496,-1.4382,-1.4122,-1.4088,-1.4088,-1.4088,-1.4088,-1.4088,-1.4088,-1.4088,-1.4015,-1.3848,-1.3841,-1.3761,-1.3601,-1.3594,-1.3594,-1.3594,-1.3594,-1.3594,-1.3594,-1.3594,-1.3594,-1.3601,-1.3761,-1.3841,1.1395,1.19,1.2315,1.3655,1.3957,1.3926,1.3926,1.3502,1.2523,1.0431,0.9731,0.9182,0.818,0.7988,0.7988,0.7988,0.6883,0.5529,0.418,0.2825,0.1527,0.0156,0.0,0.0,0.0,0.0,0.0,0.0,0.0,-0.0691,-0.2235,-0.3361,-0.4708,-0.6232,-0.7385,-0.7988,-0.7988,-0.7988,-0.7988,-0.7988,-0.7988,-0.7988,-0.7988,-0.7988,-0.7988,-0.7988,-0.7988,-0.7988,-0.7988,-0.7988,-0.7988,-0.7988,-0.7988,-0.7988,-0.7988,-0.7988,-0.7988,-0.7988,-0.7988,-0.7988,-0.7988,-0.7988,-0.8775,-0.9998,-1.1268,-1.2474,-1.368,-1.5146,-1.554,-1.5588,-1.5778,-1.5784,-1.5784,-1.5784,-1.5784,-1.5784,-1.5784,-1.5784,-1.5784,-1.5784,-1.5424,-1.5157,-1.5411,-1.5211,-1.493,-1.4676,-1.4823,-1.4827,-1.4269,-1.4168,-1.4128,-1.4088,-1.4088,-1.4088,-1.4088,-1.4088,-1.4088,-1.4088,-1.4088,-1.4088,-1.4088,-1.4088,-1.4088,-1.4088,-1.4088,-1.4088,-1.4088,-1.4088,-1.4088,-1.4088,-1.4088,-1.4088,1.2898,1.3431,1.3814,1.5123,1.4667,1.3926,1.3926,1.138,0.0,0.9862,0.8258,0.6948,0.7816,0.7988,0.7988,0.7988,0.6883,0.5555,0.4203,0.2828,0.1505,0.0,0.0,0.0,0.0,0.0,0.0,0.0,0.0,-0.1095,-0.3702,-0.3954,-0.5116,-0.759,-0.7889,-0.7988,-0.7988,-0.7988,-0.7988,-0.7988,-0.7988,-0.7988,-0.7988,-0.7988,-0.7988,-0.7988,-0.7988,0.0,-0.7988,-0.7988,-0.7988,-0.7988,-0.7988,-0.7988,-0.7988,-0.7988,-0.7988,-0.7988,-0.7988,-0.7988,-0.7988,-0.7988,-0.8137,-0.8577,-0.9948,-1.0485,-1.1161,-1.3536,-1.4214,-1.4459,-1.5534,-1.5784,-1.5784,-1.5784,-1.5784,-1.5784,-1.5784,-1.5784,-1.5784,-1.5784,-1.5698,-1.5698,-1.5698,-1.5511,-1.5304,-1.5251,-1.5084,-1.4975,-1.4867,-1.4596,-1.4355,-1.4115,-1.4088,-1.4088,-1.4088,-1.4088,-1.4088,-1.4088,-1.4088,-1.4088,-1.4088,-1.4088,-1.4088,-1.4088,-1.4088,-1.4088,-1.4088,-1.4088,-1.4088,-1.4088,-1.4088,-1.4088,1.4359,1.4855,1.5045,1.5635,1.4848,1.3699,1.2942,0.0,0.0,0.866,0.7203,0.6272,0.7553,0.7872,0.7919,0.7919,0.684,0.5512,0.4171,0.2842,0.1517,0.0162,0.0,0.0,0.0,0.0,0.0,0.0,0.0,-0.0886,-0.2965,-0.367,-0.4574,-0.5858,-0.5902,-0.6303,-0.7128,-0.7015,-0.7372,-0.816,-0.8029,-0.7988,-0.7988,-0.7988,-0.7988,-0.7988,-0.7988,-0.7988,-0.7988,-0.7988,-0.7988,-0.7988,-0.7988,-0.7988,-0.7988,-0.7988,-0.7988,-0.7988,-0.7988,-0.7988,-0.7988,-0.7988,-0.7988,-0.8237,-0.9608,-0.9998,-1.0386,-1.2328,-1.3343,-1.4022,-1.4657,-1.5289,-1.5784,-1.5784,-1.5784,-1.5784,-1.5784,-1.5784,-1.5784,-1.5784,-1.5784,-1.5784,-1.5784,-1.5712,-1.5571,-1.5418,-1.5404,-1.5304,-1.5048,-1.497,-1.4863,-1.462,-1.4402,-1.4309,-1.4309,-1.4175,-1.4088,-1.4088,-1.4088,-1.4088,-1.4088,-1.4088,-1.4088,-1.4088,-1.4088,-1.4088,-1.4088,-1.4088,-1.4088,-1.4088,-1.4088,-1.4088,1.5304,1.5785,1.573,1.5439,1.4411,1.3084,1.1609,0.9322,0.7556,0.757,0.6623,0.6136,0.7355,0.7716,0.7811,0.0,0.7045,0.5974,0.4658,0.3584,0.2319,0.0657,0.0495,0.0332,0.0056,0.0,0.0,0.0,0.0,-0.0609,-0.1901,-0.3325,-0.4035,-0.4003,-0.3996,-0.47,-0.6205,-0.6073,-0.6732,-0.8218,-0.8099,-0.7988,-0.7988,-0.7988,-0.7988,-0.7988,-0.7988,-0.7988,-0.7988,-0.7988,-0.7988,-0.7988,-0.7988,-0.7988,-0.7988,-0.7988,-0.7988,-0.7988,-0.7988,-0.7988,-0.7988,-0.7988,-0.7988,-0.8187,-0.9266,-0.9558,-0.985,-1.1116,-1.2231,-1.3151,-1.3392,-1.422,-1.5051,-1.5343,-1.5581,-1.5784,-1.5784,-1.5784,-1.5784,-1.5784,-1.5784,-1.573,-1.5439,-1.5391,-1.5313,-1.5092,-1.5248,-1.5323,-1.5211,-1.5351,-1.5398,-1.517,-1.483,-1.4589,-1.4522,-1.4309,-1.4155,-1.4088,-1.4142,-1.4182,-1.4182,-1.4182,-1.4182,-1.4182,-1.4122,-1.4088,-1.4088,-1.4088,-1.4122,-1.4182,-1.4182,-1.4215,1.5351,1.5625,1.5534,1.4364,1.3054,1.1696,1.028,0.0,0.6317,0.7362,0.6551,0.604,0.7339,0.7716,0.7811,0.0,0.0,0.7425,0.626,0.5972,0.4927,0.2333,0.2008,0.1452,0.0112,0.0,0.0,0.0,0.0,-0.0599,-0.192,-0.3394,-0.4117,-0.3981,-0.4019,-0.4672,-0.5994,-0.5984,-0.6686,-0.8012,-0.7995,-0.7988,-0.7988,-0.7988,-0.7988,-0.7988,-0.7988,-0.7988,0.0,-0.7988,-0.7988,-0.7988,-0.7988,-0.7988,-0.7988,-0.7988,-0.7988,-0.7988,-0.7988,-0.7988,-0.7988,-0.7988,-0.7988,-0.8038,-0.8137,-0.8187,-0.8482,-0.9801,-1.0243,-1.0632,-1.1799,-1.2188,-1.2576,-1.3782,-1.4949,-1.5784,-1.5784,-1.5784,-1.5784,-1.5784,-1.5784,-1.5439,-1.4262,-1.407,-1.4064,-1.4034,-1.4058,-1.4489,-1.5563,-1.5772,-1.5731,-1.5752,-1.5257,-1.481,-1.4543,-1.4496,-1.4369,-1.4108,-1.4335,-1.4482,-1.4482,-1.4482,-1.4482,-1.4482,-1.4222,-1.4088,-1.4088,-1.4088,-1.4222,-1.4482,-1.4482,-1.4623,1.5531,1.5745,1.5486,1.422,1.2909,1.1511,0.9987,0.7651,0.6073,0.7083,0.6322,0.587,0.7247,0.7584,0.7712,0.0,0.0,0.0,0.6292,0.6105,0.513,0.2414,0.2094,0.155,0.0112,0.0,0.0,0.0,0.0,-0.0216,-0.0787,-0.1361,-0.1628,-0.1587,-0.1606,-0.2276,-0.3696,-0.3618,-0.4724,-0.695,-0.6852,-0.7235,-0.7988,-0.7988,-0.7988,-0.7988,-0.7988,-0.7988,0.0,-0.7988,-0.7988,-0.7988,-0.7988,-0.7988,-0.7988,-0.7988,-0.7988,-0.7988,-0.7988,-0.7988,-0.7988,-0.7988,-0.7988,-0.7988,-0.7988,-0.7988,-0.8088,-0.8627,-0.9365,-1.0096,-1.0632,-1.1312,-1.2042,-1.2576,-1.306,-1.3451,-1.3451,-1.3451,-1.3451,-1.3451,-1.3451,-1.3301,-1.277,-1.2716,-1.2958,-1.3782,-1.3926,-1.4364,-1.5635,-1.5784,-1.5784,-1.5784,-1.5464,-1.5177,-1.5057,-1.489,-1.4743,-1.4666,-1.4723,-1.4783,-1.4783,-1.4783,-1.4783,-1.4783,-1.472,-1.466,-1.466,-1.3843,-1.3901,-1.479,-1.3957,-1.411,1.5464,1.5698,1.5391,1.3734,1.2624,1.1395,0.9379,0.757,0.6482,0.7078,0.6534,0.6304,0.727,0.756,0.7549,0.0,0.0,0.7535,0.6282,0.6454,0.5851,0.3556,0.2921,0.2289,0.1331,0.089,0.0497,0.0054,0.0,0.0,0.0,0.0,0.0,0.0,0.0,-0.0683,-0.2149,-0.2043,-0.3422,-0.6207,-0.6053,-0.6681,-0.7988,-0.7988,-0.7988,-0.7988,-0.7988,-0.7988,0.0,-0.7988,-0.7988,-0.7988,-0.7988,-0.7988,-0.7988,-0.7988,-0.7988,-0.7988,-0.7988,-0.7988,-0.7988,-0.7988,-0.7988,-0.7988,-0.7988,-0.7988,-0.7988,-0.7988,-0.8676,-0.941,-0.941,-1.0386,-1.1365,-1.1365,-1.1604,-1.1896,-1.1896,-1.1896,-1.1896,-1.1896,-1.1896,-1.1799,-1.1409,-1.1365,-1.1653,-1.2619,-1.2764,-1.3343,-1.4997,-1.5242,-1.5391,-1.5778,-1.5645,-1.5491,-1.5404,-1.5211,-1.5102,-1.5015,-1.5089,-1.5135,-1.5135,-1.5135,-1.5135,-1.5135,-1.5055,-1.5008,-1.5008,-1.3664,-1.3746,-1.509,-1.3735,-1.3869,1.5015,1.5391,1.5201,1.2576,1.1901,1.1158,0.8273,0.76,0.7556,0.74,0.737,0.7414,0.757,0.7712,0.7369,0.6052,0.0,0.0,0.6481,0.7434,0.775,0.64,0.5037,0.4168,0.4132,0.2945,0.1573,0.0107,0.0,0.0,0.0,0.0,0.0,0.0,0.0,-0.0622,-0.1968,-0.2018,-0.3329,-0.5984,-0.5982,-0.6681,-0.7988,-0.7988,-0.7988,-0.7988,-0.7988,-0.7988,0.0,-0.7988,-0.7988,-0.7988,-0.7988,-0.7988,-0.7988,-0.7988,-0.7988,-0.7988,-0.7988,-0.7988,-0.7988,-0.7988,-0.7988,-0.7988,-0.7988,-0.7988,-0.7988,-0.7988,-0.7988,-0.8038,-0.8038,-0.9019,-0.9998,-0.9998,-1.0974,-1.1896,-1.1896,-1.1896,-1.1896,-1.1896,-1.1896,-1.1512,-1.0243,-0.9998,-0.9998,-1.0047,-1.0047,-1.097,-1.3584,-1.392,-1.4411,-1.5683,-1.5778,-1.5712,-1.5424,-1.5391,-1.5271,-1.5028,-1.5237,-1.5391,-1.5391,-1.5391,-1.5391,-1.5391,-1.5156,-1.5008,-1.5008,-1.3664,-1.3844,-1.5345,-1.4009,-1.4243,1.4901,1.5142,1.4629,1.2102,1.149,1.0762,0.8083,0.7522,0.7556,0.745,0.7455,0.7573,0.7719,0.778,0.7699,0.7353,0.7707,0.0,0.0,0.7944,0.7801,0.645,0.4223,0.2809,0.2825,0.1539,0.0923,0.1438,0.0577,0.0,0.0,0.0,0.0,0.0,0.0,-0.0209,-0.0634,-0.1563,-0.2885,-0.4655,-0.556,-0.6681,-0.7988,-0.7988,-0.7988,-0.7988,-0.7988,-0.7988,-0.7988,-0.7988,-0.7988,-0.7988,-0.7988,-0.7988,-0.7988,-0.7988,-0.7988,-0.7988,-0.7988,-0.7988,-0.7988,-0.7988,-0.7988,-0.7988,-0.7988,-0.7988,-0.7988,-0.7988,-0.7988,-0.7988,-0.7988,-0.8333,-0.8627,-0.8627,-0.892,-0.9213,-0.9213,-0.9213,-0.9213,-0.9213,-0.9213,-0.9118,-0.8726,-0.8627,-0.892,-0.985,-0.9998,-1.0632,-1.2328,-1.3343,-1.407,-1.4459,-1.5289,-1.5792,-1.5698,-1.5691,-1.5651,-1.5565,-1.5645,-1.5691,-1.5691,-1.5691,-1.5691,-1.5691,-1.5605,-1.5558,-1.5551,-1.4256,-1.3868,-1.4384,-1.4817,-1.53,1.4394,1.4557,1.3812,1.1833,1.0956,1.0076,0.79,0.7444,0.7502,0.7465,0.7533,0.7662,0.7862,0.7452,0.7134,0.722,0.7235,0.7235,0.7235,0.7864,0.7801,0.6506,0.5379,0.3981,0.2381,0.1911,0.1616,0.1385,0.0521,0.0,0.0,0.0,0.0,0.0,0.0,-0.0261,-0.0738,-0.1562,-0.2936,-0.4749,-0.5608,-0.6681,-0.7988,-0.7988,-0.7988,-0.7988,-0.7988,-0.7988,0.0,-0.7988,-0.7988,-0.7988,-0.7988,-0.7988,-0.7988,-0.7988,-0.7988,-0.7988,-0.7988,-0.7988,-0.7988,-0.7988,-0.7988,-0.7988,-0.7988,-0.7988,-0.7988,-0.7988,-0.7988,-0.7988,-0.7988,-0.7988,-0.7988,-0.7988,-0.7988,-0.7988,-0.7988,-0.7988,-0.7988,-0.7988,-0.7988,-0.7988,-0.7988,-0.7988,-0.8283,-0.9118,-0.9266,-0.9706,-1.1023,-1.1891,-1.2619,-1.3102,-1.4316,-1.5092,-1.5092,-1.5534,-1.5784,-1.5784,-1.5784,-1.5784,-1.5784,-1.5784,-1.5784,-1.5784,-1.5784,-1.5784,-1.5784,-1.4997,-1.4364,-1.3926,-1.5194,-1.5784,0.0,1.361,1.2677,1.1461,1.0311,0.907,0.7699,0.7409,0.0,0.746,0.7459,0.7505,0.7674,0.6675,0.5879,0.5979,0.5979,0.6029,0.6129,0.7405,0.7859,0.6635,0.7704,0.6902,0.2781,0.3536,0.3181,0.0372,0.0052,0.0,0.0,0.0,0.0,0.0,-0.0103,-0.0724,-0.1962,-0.2168,-0.3528,-0.5979,-0.6079,-0.6783,-0.7988,-0.7988,-0.7988,0.0,-0.7988,-0.7988,-0.7988,-0.7988,-0.7988,-0.7988,-0.7988,-0.7988,-0.7988,-0.7988,-0.7988,-0.7988,-0.7988,-0.7988,-0.7988,-0.7988,-0.7988,-0.7988,-0.7988,-0.7988,-0.7988,-0.7988,-0.7988,-0.7988,-0.7988,-0.7988,-0.7988,-0.7988,-0.7988,-0.7988,-0.7988,-0.7988,-0.7988,-0.7988,-0.7988,-0.7988,-0.7988,-0.7988,-0.7988,-0.7988,-0.7988,-0.8432,-0.9706,-0.9948,-1.0435,-1.1653,-1.2958,-1.3776,-1.3872,-1.5045,-1.5784,-1.5784,-1.5784,-1.5784,-1.5784,-1.5784,-1.5784,-1.5784,-1.5784,-1.5784,-1.5784,-1.5784,-1.5194,-1.407,-1.5242,-1.5784,1.0746,0.0,1.0813,0.9728,0.9239,0.8698,0.0,0.7285,0.7152,0.6259,0.6131,0.5983,0.5107,0.4676,0.482,0.5827,0.5979,0.6379,0.7385,0.7968,0.7881,0.6806,0.6759,0.6112,0.4136,0.3127,0.2342,0.1719,0.0613,0.0,0.0,0.0,0.0,0.0,-0.1012,-0.1672,-0.1975,-0.4046,-0.54,-0.6029,-0.7033,-0.7686,-0.7988,-0.7988,-0.7988,-0.7988,-0.7988,-0.7988,-0.7988,-0.7988,-0.7988,-0.7988,-0.7988,-0.7988,-0.7988,-0.7988,-0.7988,-0.7988,-0.7988,-0.7988,-0.7988,-0.7988,-0.7988,-0.7988,-0.7988,-0.7988,-0.7988,-0.7988,-0.7988,-0.7988,-0.7988,-0.7988,-0.7988,-0.7988,-0.7988,-0.7988,-0.7988,-0.7988,-0.7988,-0.7988,-0.7988,-0.7988,-0.7988,-0.7988,-0.7988,-0.7988,-0.7988,-0.8137,-0.8432,-0.9361,-1.0096,-1.0386,-1.1604,-1.2813,-1.383,-1.5045,-1.5784,-1.5784,-1.5784,-1.5784,-1.5784,-1.5784,-1.5784,-1.5784,-1.5784,-1.5784,-1.5784,-1.5784,-1.5635,-1.5343,-1.5683,-1.5784,0.8129,0.8617,0.8641,0.8111,0.7236,0.6316,0.5661,0.5581,0.5506,0.4917,0.4826,0.4687,0.4093,0.3498,0.353,0.4864,0.5072,0.5792,0.7828,0.8218,0.8121,0.7603,0.7399,0.6542,0.457,0.3518,0.2482,0.1295,0.0459,0.0,0.0,0.0,0.0,0.0,-0.1913,-0.2914,-0.2914,-0.4972,-0.6331,-0.6933,-0.7637,-0.7988,-0.7988,-0.7988,-0.7988,-0.7988,-0.7988,-0.7988,-0.7988,-0.7988,-0.7988,-0.7988,-0.7988,-0.7988,-0.7988,-0.7988,-0.7988,-0.7988,-0.7988,-0.7988,-0.7988,-0.7988,-0.7988,-0.7988,-0.7988,-0.7988,-0.7988,-0.7988,-0.7988,-0.7988,-0.7988,-0.7988,-0.7988,-0.7988,-0.7988,-0.7988,-0.7988,-0.7988,-0.7988,-0.7988,-0.7988,-0.7988,-0.7988,-0.7988,-0.7988,-0.7988,-0.7988,-0.7988,-0.7988,-0.8627,-0.9069,-0.9069,-1.0243,-1.1556,-1.2861,-1.4172,-1.5194,-1.5778,-1.5784,-1.5784,-1.5784,-1.5784,-1.5784,-1.5784,-1.5784,-1.5784,-1.5784,-1.5784,-1.5784,-1.5784,-1.5784,-1.5784,0.5885,0.597,0.586,0.605,0.4727,0.3344,0.3344,0.0,0.0,0.0,0.0,0.0,0.0,0.244,0.2214,0.3754,0.4366,0.5457,0.7939,0.8252,0.8296,0.8462,0.8442,0.7313,0.4488,0.4157,0.2985,0.0207,0.0,0.0,0.0,0.0,-0.0101,-0.0303,-0.2715,-0.4116,-0.4316,-0.5625,-0.6883,-0.7988,-0.7988,-0.7988,-0.7988,-0.7988,-0.7988,-0.7988,0.0,0.0,-0.7988,-0.7988,-0.7988,-0.8038,-0.8233,-0.8283,-0.8283,-0.8283,-0.8283,-0.8283,-0.8088,-0.7988,-0.7988,-0.7988,-0.7988,-0.7988,-0.7988,-0.7988,-0.7988,-0.7988,-0.7988,-0.7988,-0.7988,-0.7988,-0.7988,-0.7988,-0.7988,-0.7988,-0.7988,-0.7988,-0.7988,-0.7988,-0.7988,-0.7988,-0.7988,-0.8187,-0.8283,-0.8283,-0.8482,-0.8531,-0.8333,-0.8283,-0.8233,-0.8038,-0.9019,-1.0194,-1.1507,-1.2813,-1.4118,-1.5439,-1.5683,-1.5784,-1.5784,-1.5784,-1.5784,-1.5784,-1.5784,-1.5784,-1.5784,-1.5784,-1.5784,-1.5784,-1.5784,-1.5784,0.4901,0.2961,0.1178,0.231,0.2317,0.209,0.209,0.209,0.0,0.0,0.0,0.0,0.0,0.0436,0.1133,0.3604,0.5922,0.7585,0.8197,0.8157,0.8177,0.8448,0.8262,0.7033,0.4451,0.4079,0.2928,0.0203,0.0,0.0,0.0,0.0,-0.0504,-0.1661,-0.3215,-0.4568,-0.5677,-0.7033,-0.7789,-0.7988,-0.7988,-0.7988,-0.7988,-0.7988,-0.7988,-0.7988,0.0,-0.7988,-0.7988,-0.7988,-0.7988,-0.8137,-0.9266,-0.9706,-0.9706,-0.9706,-0.9706,-0.9509,-0.8382,-0.7988,-0.7988,-0.7988,-0.7988,-0.7988,-0.7988,-0.7988,-0.7988,-0.7988,-0.7988,-0.7988,-0.7988,-0.7988,-0.7988,-0.7988,-0.7988,-0.7988,-0.7988,-0.7988,-0.7988,-0.7988,-0.7988,-0.7988,-0.7988,-0.892,-0.9706,-0.9706,-1.0632,-1.0925,-0.985,-0.9706,-0.9266,-0.8137,-0.8187,-0.8825,-1.0194,-1.1458,-1.2764,-1.4118,-1.5194,-1.5784,-1.5784,-1.5784,-1.5784,-1.5784,-1.5784,-1.5784,-1.5784,-1.5784,-1.5784,-1.5784,-1.5784,-1.5784,0.317,0.151,-0.0084,-0.0127,-0.0652,-0.1111,-0.1111,-0.0629,0.0,0.0,0.0,0.0,0.0,0.0585,0.1969,0.4656,0.6126,0.7206,0.8032,0.8032,0.8042,0.8228,0.7459,0.6197,0.4268,0.3383,0.2113,0.0151,0.0,0.0,0.0,-0.0706,-0.136,-0.1962,-0.4019,-0.5375,-0.5979,-0.7335,-0.7988,-0.7988,-0.7988,-0.7988,-0.7988,-0.7988,-0.7988,-0.7988,0.0,-0.7988,-0.7988,-0.7988,-0.7988,-0.8137,-0.946,-0.9998,-0.9998,-0.9998,-0.9998,-0.9899,-0.9316,-0.8627,-0.8233,-0.9653,-0.9653,-0.9217,-0.9899,-1.0092,-1.0092,-1.0092,-0.9069,-0.7988,-0.7988,-0.7988,-0.7988,-0.7988,-0.7988,-0.7988,-0.7988,-0.7988,-0.7988,-0.7988,-0.8577,-0.9069,-0.9069,-1.0141,-1.1023,-1.1023,-1.1512,-1.1458,-1.0145,-0.9998,-0.9509,-0.8137,-0.7988,-0.8528,-0.9899,-1.0534,-1.2037,-1.4752,-1.5486,-1.5784,-1.5784,-1.5784,-1.5784,-1.5784,-1.5784,-1.5784,-1.5784,-1.5784,-1.5784,-1.5784,-1.5784,-1.5784,0.1814,0.0609,-0.0626,-0.1549,0.0,-0.32,-0.3187,-0.2453,0.0,0.0,0.0,0.0,0.0,0.1376,0.3162,0.5211,0.6077,0.6833,0.7839,0.7988,0.7988,0.7988,0.6833,0.5475,0.4116,0.2765,0.1461,0.0101,0.0,0.0,0.0,-0.126,-0.2163,-0.2464,-0.4772,-0.6129,-0.6481,-0.7487,-0.7988,-0.7988,-0.7988,-0.7988,-0.7988,-0.7988,-0.7988,-0.7988,-0.7988,-0.7988,-0.7988,-0.7988,-0.7988,-0.8137,-0.946,-1.022,-1.0596,-1.0841,-1.0784,-1.0658,-1.0466,-0.983,-0.9367,-1.1282,-1.1448,-1.1049,-1.207,-1.2544,-1.2775,-1.2775,-1.1312,-0.9669,-0.9061,-0.892,-0.892,-0.892,-0.892,-0.892,-0.892,-0.892,-0.892,-0.892,-0.9752,-1.0435,-1.0435,-1.1507,-1.2382,-1.2382,-1.2624,-1.2237,-1.0632,-1.0435,-0.9801,-0.8187,-0.7988,-0.8676,-1.0293,-1.073,-1.2328,-1.5588,-1.5534,-1.5486,-1.5778,-1.5784,-1.5784,-1.5784,-1.5784,-1.5784,-1.5784,-1.5784,-1.5784,-1.5784,-1.5784,-1.5635,0.161,0.0,-0.1674,-0.1793,-0.1878,-0.1931,-0.1917,-0.1863,0.0,-0.0377,0.0,0.0,0.0,0.2134,0.391,0.4114,0.6226,0.7889,0.7988,0.7988,0.7988,0.7988,0.6833,0.5475,0.4116,0.2765,0.1461,0.0101,0.0,0.0,0.0,-0.126,-0.2564,-0.3815,-0.5272,-0.6581,-0.7839,-0.7939,-0.7988,-0.7988,-0.7988,-0.7988,-0.7988,-0.7988,-0.7988,-0.7988,-0.7988,-0.7988,-0.7988,-0.7988,-0.7988,-0.8137,-0.946,-1.0893,-1.2328,-1.3283,-1.3193,-1.2501,-1.1939,-1.1885,-1.2069,-1.1918,-1.2635,-1.3546,-1.3641,-1.4461,-1.5311,-1.5311,-1.521,-1.4524,-1.2206,-1.1604,-1.1604,-1.1604,-1.1604,-1.1604,-1.1604,-1.1604,-1.1604,-1.1604,-1.1702,-1.1755,-1.1755,-1.2861,-1.3776,-1.3776,-1.4752,-1.4615,-1.2091,-1.1755,-1.0774,-0.8283,-0.7988,-0.9019,-1.1556,-1.2909,-1.4214,-1.573,-1.4704,-1.4555,-1.573,-1.5784,-1.5784,-1.5784,-1.5784,-1.5784,-1.5784,-1.5784,-1.5784,-1.5784,-1.5784,-1.5146,0.2727,0.1456,0.0332,0.0334,-0.0171,0.0,0.0,-0.234,-0.1688,-0.1205,-0.0539,0.0,0.0,0.2751,0.4268,0.5122,0.6781,0.7988,0.7988,0.7988,0.7988,0.7988,0.6077,0.4568,0.4066,0.2013,0.0555,0.0051,0.0,0.0,0.0,-0.2063,-0.3465,-0.3966,-0.6124,-0.7487,-0.7988,-0.7988,-0.7988,-0.7988,-0.7988,-0.7988,-0.7988,-0.7988,-0.7988,-0.7988,-0.7988,-0.7988,-0.8088,-0.8924,-0.9266,-0.9472,-1.1796,-1.3582,-1.4783,-1.4535,-1.4277,-1.4083,-1.4453,-1.4125,-1.386,-1.5947,-1.6395,-1.6267,-1.7094,-1.7657,-1.8018,-1.8018,-1.8018,-1.7265,-1.3939,-1.3095,-1.2866,-1.2081,-1.1896,-1.1896,-1.1896,-1.2496,-1.3095,-1.3095,-1.4314,-1.5389,-1.5389,-1.5873,-1.6257,-1.6257,-1.6001,-1.5146,-1.3392,-1.3151,-1.2474,-1.0627,-1.0435,-1.0828,-1.1799,-1.2382,-1.3204,-1.4555,-1.4902,-1.5289,-1.5784,-1.5784,-1.5784,-1.5784,-1.5784,-1.5784,-1.5784,-1.5784,-1.5391,-1.4609,-1.4609,-1.3926,0.2747,0.1832,0.1111,0.1077,0.0,0.0,-0.2089,-0.1839,-0.1236,-0.122,-0.0598,0.0303,0.1209,0.0,0.0,0.5222,0.683,0.7839,0.7437,0.7739,0.7839,0.7434,0.537,0.4016,0.4016,0.1561,0.0,0.0,0.0,0.0,0.0,-0.2564,-0.4016,-0.4016,-0.6625,-0.7988,-0.7988,-0.7988,-0.7988,-0.7988,-0.7988,-0.7988,-0.7988,-0.7988,-0.8233,-0.8627,-0.8627,-0.8871,-0.9312,-1.0243,-1.0583,-1.0837,-1.3231,-1.512,-1.6422,-1.5881,-1.6251,-1.7015,-1.7202,-1.68,-1.6573,-1.8775,-1.912,-1.8889,-1.9782,-2.0305,-2.0629,-2.0629,-2.0629,-1.9963,-1.6972,-1.5899,-1.5402,-1.4493,-1.4309,-1.4309,-1.4309,-1.499,-1.5584,-1.5584,-1.6986,-1.811,-1.811,-1.8218,-1.8141,-1.7777,-1.6943,-1.5805,-1.4118,-1.3926,-1.3392,-1.2042,-1.2285,-1.2528,-1.2528,-1.2915,-1.3499,-1.4459,-1.5343,-1.5784,-1.5784,-1.5784,-1.5784,-1.5784,-1.5784,-1.5784,-1.5784,-1.5784,-1.5146,-1.3926,-1.3926,-1.2958,0.1368,0.0693,0.0,0.0,0.0,0.0,0.0,0.0,0.0,0.0,0.0,0.0,0.0,0.2213,0.0,0.4016,0.6274,0.7537,0.6229,0.7182,0.7487,0.6179,0.482,0.4016,0.4016,0.1561,0.0,0.0,0.0,0.0,0.0,-0.2514,-0.3966,-0.4016,-0.6578,-0.7988,-0.7988,-0.7988,-0.7988,-0.7988,-0.7988,-0.7988,-0.7988,-0.7988,-0.8726,-0.9998,-0.9998,-1.073,-1.1896,-1.1945,-1.1945,-1.2091,-1.3445,-1.5143,-1.6922,-1.749,-1.942,-2.1486,-2.0047,-2.0014,-2.0494,-1.9774,-2.035,-2.1337,-2.1337,-2.2164,-2.3091,-2.3091,-2.3091,-2.2818,-2.1614,-2.044,-1.9542,-1.9497,-1.9497,-1.9497,-1.9497,-1.9488,-1.9497,-1.9497,-1.9497,-1.9542,-1.9534,-1.9542,-1.9131,-1.7917,-1.7684,-1.6781,-1.4256,-1.3926,-1.3392,-1.2091,-1.3151,-1.3926,-1.3926,-1.5045,-1.5784,-1.5784,-1.5784,-1.5784,-1.5784,-1.5784,-1.5784,-1.5784,-1.5784,-1.5784,-1.5784,-1.5784,-1.5146,-1.3926,-1.3926,-1.2522,0.3581,0.2349,0.1143,0.1131,0.0,0.0,0.0,0.0,0.0,0.0,0.0739,0.1388,0.1407,0.3618,0.0,0.5425,0.688,0.7839,0.7484,0.7739,0.7839,0.7434,0.537,0.4016,0.4016,0.1561,0.0,0.0,0.0,0.0,0.0,-0.1662,-0.3015,-0.3966,-0.5675,-0.7033,-0.7988,-0.7988,-0.7988,-0.7988,-0.897,-0.892,-0.8038,-0.897,-0.9608,-1.0047,-1.0974,-1.1556,-1.2042,-1.3837,-1.513,-1.6143,-1.7941,-1.8956,-1.953,-1.9885,-2.0508,-2.118,-2.1156,-2.1252,-2.1496,-2.1895,-2.2271,-2.2589,-2.2589,-2.2818,-2.3091,-2.3091,-2.3091,-2.3003,-2.2677,-2.2315,-2.1587,-1.9906,-1.9497,-1.9268,-1.8411,-1.891,-1.9497,-1.9497,-2.0169,-2.1033,-2.1908,-2.1355,-2.0621,-2.0305,-1.8772,-1.7077,-1.5432,-1.5242,-1.5092,-1.4711,-1.5003,-1.5242,-1.5242,-1.5588,-1.5784,-1.5784,-1.5784,-1.5784,-1.5784,-1.5784,-1.5784,-1.5784,-1.5784,-1.5784,-1.5784,-1.5784,-1.5146,-1.3926,-1.3926,-1.2522,0.3882,0.2429,0.0949,0.0981,0.0463,0.0,0.0,0.0,0.0,0.0,0.1752,0.2159,0.2631,0.4499,0.0,0.5979,0.7135,0.7839,0.7285,0.7686,0.7584,0.6526,0.4968,0.3815,0.3265,0.126,0.0,0.0,0.0,0.0,0.0,-0.126,-0.2614,-0.3966,-0.5322,-0.6631,-0.7988,-0.7988,-0.8283,-0.8825,-0.9608,-0.985,-0.9558,-1.0386,-1.1068,-1.1648,-1.3423,-1.4196,-1.4381,-1.639,-1.7671,-1.8542,-1.9694,-2.0654,-2.1384,-2.1203,-2.1748,-2.2606,-2.2392,-2.2444,-2.2654,-2.3007,-2.3091,-2.3091,-2.3091,-2.3091,-2.3091,-2.3091,-2.3091,-2.3091,-2.3091,-2.3091,-2.2731,-2.1266,-2.0548,-1.9997,-1.9268,-1.9314,-1.9497,-1.9497,-2.0079,-2.08,-2.1543,-2.1078,-2.044,-1.9943,-1.8218,-1.6662,-1.592,-1.5784,-1.5784,-1.5784,-1.5784,-1.5784,-1.5784,-1.5784,-1.5784,-1.5784,-1.5784,-1.5784,-1.5784,-1.5784,-1.5784,-1.5784,-1.5784,-1.5784,-1.5784,-1.5784,-1.5146,-1.3926,-1.3926,-1.2764,0.2773,0.1416,0.0,0.0,0.0,0.0043,0.0134,0.0091,0.0649,0.2971,0.0,0.2537,0.3762,0.521,0.6179,0.6179,0.7185,0.7587,0.6329,0.7235,0.703,0.4468,0.4066,0.3465,0.2113,0.0807,0.0,0.0,0.0,0.0,0.0,-0.1159,-0.2464,-0.3966,-0.5172,-0.6531,-0.7988,-0.8137,-0.8775,-0.9998,-1.0239,-1.097,-1.2091,-1.2091,-1.2861,-1.4399,-1.6821,-1.787,-1.7963,-1.9177,-1.967,-1.9679,-1.9849,-2.1072,-2.2609,-2.1807,-2.2988,-2.4822,-2.3564,-2.3428,-2.3721,-2.3237,-2.312,-2.3149,-2.311,-2.3091,-2.3091,-2.3091,-2.3091,-2.3091,-2.3091,-2.3091,-2.3047,-2.296,-2.2094,-2.123,-2.1025,-2.0124,-1.936,-1.936,-1.936,-1.936,-1.9497,-1.9497,-1.9085,-1.787,-1.6709,-1.592,-1.5825,-1.5784,-1.5784,-1.5784,-1.5784,-1.5784,-1.5784,-1.5784,-1.5784,-1.5784,-1.5784,-1.5784,-1.5784,-1.5784,-1.5784,-1.5784,-1.5784,-1.5784,-1.5784,-1.5784,-1.5194,-1.407,-1.407,-1.3349,0.1857,0.0847,0.0,0.0,0.0,0.0266,0.1207,0.0675,0.0409,0.1898,0.2924,0.3934,0.5162,0.6596,0.7587,0.7587,0.7789,0.7889,0.7587,0.7839,0.7385,0.5774,0.462,0.3465,0.2113,0.0807,0.0,0.0,0.0,0.0,0.0,-0.0252,-0.1511,-0.3915,-0.4268,-0.5572,-0.7988,-0.9019,-0.9706,-0.9998,-1.2081,-1.3199,-1.3488,-1.3488,-1.4727,-1.6969,-1.8442,-1.9131,-1.9222,-2.044,-2.0935,-2.1051,-2.235,-2.3155,-2.3525,-2.3342,-2.3628,-2.3975,-2.3315,-2.3428,-2.3721,-2.3237,-2.3369,-2.3584,-2.3198,-2.3091,-2.3091,-2.3091,-2.3091,-2.3091,-2.3091,-2.3091,-2.2862,-2.1889,-2.148,-2.0764,-1.8864,-1.8272,-1.8095,-1.8095,-1.8095,-1.8365,-1.936,-1.9497,-1.9085,-1.787,-1.7458,-1.6943,-1.592,-1.5784,-1.5784,-1.5784,-1.5784,-1.5784,-1.5784,-1.5784,-1.5784,-1.5784,-1.5784,-1.5784,-1.5784,-1.5784,-1.5784,-1.5784,-1.5784,-1.5784,-1.5784,-1.5784,-1.5683,-1.5391,-1.5391,-1.4704,0.1555,0.0741,0.0,0.0,0.0,0.018,0.0807,0.0449,0.036,0.1544,0.2978,0.4379,0.5575,0.7,0.7988,0.7988,0.7988,0.7988,0.7988,0.7437,0.6528,0.5222,0.3867,0.2514,0.1159,0.0404,0.0,0.0,-0.0605,-0.0656,-0.0051,-0.1209,-0.2564,-0.3966,-0.4618,-0.5924,-0.7988,-0.9316,-1.0293,-1.0925,-1.2958,-1.422,-1.4848,-1.5453,-1.6445,-1.7777,-1.9588,-2.035,-2.044,-2.1667,-2.2173,-2.2236,-2.3104,-2.3603,-2.3769,-2.3555,-2.3613,-2.3721,-2.3247,-2.3247,-2.3437,-2.3169,-2.3247,-2.3437,-2.3169,-2.3091,-2.3091,-2.3091,-2.3091,-2.3091,-2.3091,-2.3091,-2.2818,-2.1569,-2.0845,-1.9943,-1.8095,-1.7225,-1.6803,-1.6803,-1.6803,-1.6983,-1.7623,-1.7708,-1.7529,-1.6897,-1.6803,-1.6574,-1.5872,-1.5784,-1.5784,-1.5784,-1.5784,-1.5784,-1.5784,-1.5784,-1.5784,-1.5784,-1.5965,-1.6039,-1.6039,-1.6787,-1.6773,-1.5832,-1.5784,-1.5504,-1.5,-1.5,-1.4722,-1.415,-1.415,-1.3804,0.1327,0.0681,0.0,0.0,0.0,0.0,0.0,0.0,0.0269,0.1299,0.2626,0.4015,0.5235,0.6461,0.7372,0.7595,0.7651,0.776,0.7985,0.6833,0.5525,0.4166,0.2815,0.146,0.0151,0.0,-0.0101,-0.0303,-0.136,-0.1611,-0.0756,-0.2815,-0.4116,-0.4318,-0.5425,-0.6781,-0.8333,-0.9657,-1.0974,-1.2285,-1.359,-1.4895,-1.615,-1.7451,-1.8002,-1.8141,-2.0576,-2.1614,-2.1712,-2.2677,-2.3091,-2.3091,-2.3091,-2.3359,-2.3633,-2.3227,-2.3369,-2.3623,-2.3218,-2.314,-2.3198,-2.312,-2.3149,-2.3208,-2.3208,-2.3208,-2.3208,-2.3208,-2.3066,-2.2871,-2.2794,-2.2633,-2.2173,-2.098,-1.9898,-1.891,-1.7917,-1.6716,-1.5784,-1.5784,-1.5784,-1.5784,-1.5784,-1.5784,-1.5784,-1.5784,-1.5784,-1.5784,-1.5784,-1.5784,-1.5798,-1.5899,-1.5905,-1.5925,-1.5924,-1.5979,-1.5979,-1.5979,-1.6213,-1.6346,-1.6346,-1.7885,-1.7965,-1.6313,-1.6307,-1.5831,-1.4869,-1.4677,-1.3936,-1.2761,-1.2761,-1.2654,0.0425,0.0,0.0,0.0,0.0,0.0,0.0,0.0,0.0045,0.0,0.1324,0.2641,0.3837,0.4334,0.4905,0.6063,0.6274,0.6657,0.7819,0.6833,0.5525,0.4166,0.2815,0.146,0.0151,0.0,-0.0504,-0.1662,-0.1913,-0.2414,-0.3416,-0.3815,-0.4518,-0.5677,-0.5927,-0.7223,-0.9706,-1.1023,-1.2328,-1.3638,-1.4949,-1.619,-1.7505,-1.8726,-1.9268,-1.9405,-2.1819,-2.2862,-2.2862,-2.3047,-2.3091,-2.3091,-2.3091,-2.313,-2.3169,-2.312,-2.313,-2.3169,-2.311,-2.3389,-2.3643,-2.3218,-2.3398,-2.3701,-2.3701,-2.3701,-2.3701,-2.3701,-2.2962,-2.2044,-2.167,-2.0755,-1.9679,-1.8457,-1.8048,-1.7917,-1.7731,-1.6716,-1.5784,-1.5784,-1.5784,-1.5784,-1.5784,-1.5784,-1.5784,-1.5784,-1.5784,-1.5784,-1.5784,-1.5784,-1.5925,-1.6186,-1.6213,-1.6313,-1.6567,-1.6587,-1.6587,-1.6587,-1.6627,-1.6647,-1.6647,-1.7944,-1.8562,-1.8326,-1.8326,-1.8243,-1.8083,-1.6919,-1.5639,-1.4242,-1.4292,-1.3631,-0.0036,0.0,0.0,0.0,0.0,0.0,0.0,0.0,0.0,0.0,0.0452,0.1277,0.2578,0.3468,0.4204,0.4774,0.4886,0.5065,0.5658,0.462,0.3518,0.2966,0.1711,0.0656,0.005,-0.0656,-0.136,-0.1962,-0.3369,-0.4169,-0.4016,-0.542,-0.6176,-0.6029,-0.7468,-0.8806,-0.9998,-1.1989,-1.3686,-1.4997,-1.6285,-1.7178,-1.7777,-1.9633,-2.0531,-2.0621,-2.2359,-2.3091,-2.3091,-2.3091,-2.3091,-2.3091,-2.3091,-2.3091,-2.3091,-2.3091,-2.3091,-2.3091,-2.3091,-2.3218,-2.3344,-2.3159,-2.3227,-2.3428,-2.3428,-2.3428,-2.3428,-2.3428,-2.3009,-2.2417,-2.1526,-2.089,-2.0215,-1.9001,-1.8187,-1.7692,-1.7692,-1.6716,-1.5784,-1.5784,-1.5784,-1.5784,-1.5784,-1.6386,-1.685,-1.685,-1.7436,-1.7682,-1.718,-1.7106,-1.6945,-1.6578,-1.6513,-1.6567,-1.6693,-1.6707,-1.6707,-1.6707,-1.686,-1.7005,-1.7005,-1.8405,-1.9598,-2.0384,-2.0052,-1.9143,-1.7774,-1.7184,-1.5844,-1.3814,-1.3872,-1.3082,-0.0178,0.0,0.0,0.0,0.0,0.0,0.0,0.0,0.0,0.0,0.0,0.0316,0.1326,0.2319,0.3109,0.3459,0.3469,0.3595,0.3976,0.2845,0.2002,0.2011,0.0807,0.0,0.0,-0.1209,-0.2163,-0.2464,-0.4672,-0.5727,-0.5068,-0.6927,-0.7683,-0.7021,-0.8954,-1.0337,-1.097,-1.3247,-1.5038,-1.6292,-1.7271,-1.8002,-1.868,-2.0486,-2.148,-2.18,-2.2721,-2.3091,-2.3091,-2.3091,-2.3091,-2.3091,-2.3091,-2.3091,-2.3091,-2.3091,-2.3091,-2.3091,-2.3091,-2.3091,-2.3091,-2.3091,-2.3091,-2.311,-2.3227,-2.3257,-2.3257,-2.3257,-2.308,-2.259,-2.1552,-2.0845,-2.0169,-1.9268,-1.8087,-1.7225,-1.7225,-1.648,-1.5784,-1.5784,-1.5784,-1.592,-1.6251,-1.7149,-1.7952,-1.8264,-1.9164,-1.9449,-1.8404,-1.8241,-1.7889,-1.6938,-1.682,-1.6847,-1.6921,-1.6927,-1.6927,-1.6927,-1.6819,-1.6886,-1.7313,-1.8417,-1.9708,-2.1143,-2.1073,-2.0253,-1.8716,-1.8361,-1.6886,-1.4373,-1.4373,-1.3416,0.0,0.0,0.0,0.0,0.0,0.0,0.0,0.0,0.0,0.0,0.0,0.0,0.009,0.018,0.0635,0.1893,0.2084,0.2534,0.3799,0.2839,0.2022,0.2008,0.0807,0.0,0.0,-0.1209,-0.2514,-0.3815,-0.5222,-0.6531,-0.7736,-0.7939,-0.8528,-0.9752,-0.9948,-1.1209,-1.368,-1.5045,-1.6339,-1.7598,-1.7692,-1.891,-2.1114,-2.1248,-2.1933,-2.3003,-2.3047,-2.3091,-2.3091,-2.3091,-2.3091,-2.3091,-2.3091,-2.3091,-2.3091,-2.3091,-2.3091,-2.3091,-2.3091,-2.3091,-2.3091,-2.3091,-2.3091,-2.3169,-2.3633,-2.375,-2.375,-2.375,-2.2919,-2.1944,-2.1446,-1.9579,-1.787,-1.7824,-1.6803,-1.592,-1.592,-1.5825,-1.5784,-1.5784,-1.5784,-1.6204,-1.7412,-1.7985,-1.8657,-1.9813,-2.0384,-2.0232,-1.8863,-1.8675,-1.8265,-1.7299,-1.7179,-1.7293,-1.7515,-1.7535,-1.7535,-1.7535,-1.6249,-1.6103,-1.7503,-1.7607,-1.8279,-1.9679,-2.1009,-2.2206,-2.3349,-2.2072,-2.0008,-1.7265,-1.7265,-1.5795,0.0,0.0,0.0,0.0,0.0,0.0,0.0,0.0,0.0,0.0,0.0,0.0,0.0,0.0,0.0136,0.0645,0.0739,0.0886,0.1341,0.1021,0.0737,0.0693,0.0301,0.0,0.0,-0.1209,-0.2213,-0.2665,-0.4772,-0.6229,-0.6681,-0.7537,-0.8627,-0.9948,-1.0779,-1.285,-1.6304,-1.6796,-1.763,-1.8864,-1.9625,-2.044,-2.1337,-2.212,-2.2677,-2.3091,-2.3091,-2.3091,-2.3091,-2.3091,-2.3091,-2.3091,-2.3091,-2.3091,-2.3091,-2.3091,-2.3091,-2.3091,-2.3091,-2.3091,-2.3091,-2.3091,-2.3091,-2.312,-2.3276,-2.3369,-2.3369,-2.3369,-2.305,-2.2513,-2.1516,-2.0666,-1.9625,-1.8048,-1.6716,-1.5784,-1.5784,-1.5784,-1.5784,-1.5784,-1.5784,-1.592,-1.6386,-1.7439,-1.8306,-1.8775,-1.9822,-2.0127,-1.904,-1.887,-1.8499,-1.7544,-1.7481,-1.7521,-1.7575,-1.6717,-1.6174,-1.6174,-1.4824,-1.4288,-1.4829,-1.4807,-1.547,-1.6826,-1.8244,-2.0125,-2.2416,-2.1954,-2.1178,-2.0184,-1.9273,-1.7809,-0.0594,0.0,0.0,0.0,0.0,0.0,0.0,0.0,0.0,0.0,0.0,0.0,0.0,0.0,0.0,0.0,0.0,0.0,0.0,0.0,0.0,0.0,0.0,0.0,0.0,-0.1205,-0.2163,-0.2614,-0.4722,0.0,-0.6631,-0.7537,-0.8821,-1.0583,-1.2334,-1.4638,-1.7692,-1.7692,-1.8503,-2.0124,-2.0935,-2.1525,-2.1933,-2.2721,-2.3091,-2.3091,-2.3091,-2.3091,-2.3091,-2.3091,-2.3091,-2.3091,-2.3091,-2.3091,-2.3091,-2.3091,-2.3091,-2.3091,-2.3091,-2.3091,-2.3091,-2.3091,-2.3091,-2.3091,-2.3091,-2.3091,-2.3091,-2.3091,-2.3091,-2.2906,-2.212,-2.1302,-2.0169,-1.8187,-1.6716,-1.5784,-1.5784,-1.5784,-1.5784,-1.5784,-1.5784,-1.592,-1.6339,-1.7478,-1.8472,-1.8849,-1.9998,-2.0432,-1.9327,-1.9212,-1.8788,-1.7713,-1.7582,-1.7417,-1.6876,-1.5956,-1.5204,-1.4716,-1.3372,-1.2778,-1.327,-1.2832,-1.3195,-1.4601,-1.5571,-1.7252,-1.953,-2.1009,-2.1448,-2.099,-2.0033,-1.8613,0.0,0.0,0.0,0.0,0.0,0.0,-0.004,0.0,0.0,0.0,0.0,0.0,0.0,0.0,0.0,0.0,0.0,0.0,0.0,0.0,0.0,0.0,0.0,0.0,0.0,-0.1196,-0.2514,-0.3815,-0.5172,-0.6531,-0.7889,-0.8038,-0.9262,-1.1799,-1.4418,-1.6433,-1.7692,-1.7692,-1.891,-2.1248,-2.1293,-2.1889,-2.3047,-2.3091,-2.3091,-2.3091,-2.3091,-2.3091,-2.3091,-2.3091,-2.3091,-2.3091,-2.3091,-2.3091,-2.3091,-2.3091,-2.3091,-2.3091,-2.3091,-2.3091,-2.3091,-2.3091,-2.3091,-2.3091,-2.3091,-2.3091,-2.3091,-2.3091,-2.3091,-2.3091,-2.3091,-2.132,-1.9177,-1.8048,-1.6763,-1.5784,-1.5784,-1.5784,-1.5784,-1.5784,-1.5784,-1.6197,-1.7412,-1.8222,-1.9082,-2.028,-2.1089,-2.1092,-1.9731,-1.9524,-1.9013,-1.774,-1.7582,-1.6982,-1.5524,-1.5364,-1.4716,-1.3318,-1.1864,-1.1701,-1.3102,-1.1751,-1.1642,-1.3102,-1.3097,-1.3772,-1.5105,-1.9479,-2.0888,-1.9627,-1.9576,-1.8098,-0.3992,0.0,0.0,0.0,0.0,0.0,0.0,-0.0438,0.0,0.0,0.0,0.0,0.0,0.0,0.0,0.0,0.0,0.0,0.0,0.0,0.0,0.0,0.0,0.0,0.0,-0.0349,-0.1109,0.0,-0.3817,-0.512,-0.6481,-0.9247,-1.1165,-1.1901,-1.4418,-1.6433,-1.7692,-1.7692,-1.8457,-1.9988,-2.089,-2.1471,-2.1845,-2.2677,-2.3091,-2.3091,-2.3091,-2.3091,-2.3091,-2.3091,-2.3091,-2.3091,-2.3091,-2.3091,-2.3091,-2.3091,-2.3091,-2.3091,-2.3091,-2.3091,-2.3091,-2.3091,-2.3091,-2.3091,-2.3091,-2.3091,-2.3091,-2.3091,-2.3091,-2.3091,-2.3091,-2.132,-1.9405,-1.9085,-1.7343,-1.5784,-1.5784,-1.5784,-1.5784,-1.5784,-1.5784,-1.592,-1.6244,-1.6842,-1.7385,-1.7725,-1.8302,-1.8603,-1.8199,-1.8146,-1.7989,-1.7635,-1.7582,-1.6982,-1.5524,-1.4449,-1.3264,-1.181,-1.0296,-0.9699,-1.0076,-0.8689,-0.8131,-0.8511,-0.8478,-0.917,-1.0703,-1.6045,-1.897,-1.9523,-1.9598,-1.8641,0.0,0.0,0.0,0.0,0.0,0.0,-0.2013,-0.1157,-0.043,-0.0081,0.0,0.0,0.0,0.0,0.0,0.0,0.0,0.0,0.0,0.0,0.0,0.0,0.0,0.0,0.0,0.0,-0.0807,-0.2715,-0.3565,-0.482,-0.6731,-1.0002,-1.1849,-1.1896,-1.493,-1.7171,-1.8457,-1.8457,-1.9039,-2.026,-2.044,-2.0531,-2.0567,-2.1266,-2.1587,-2.1632,-2.2129,-2.235,-2.2403,-2.2906,-2.3091,-2.3135,-2.3637,-2.38,-2.38,-2.38,-2.38,-2.3757,-2.3256,-2.3091,-2.3091,-2.3091,-2.3091,-2.3091,-2.3091,-2.3091,-2.3091,-2.3091,-2.3091,-2.3091,-2.3091,-2.132,-1.9497,-1.9497,-1.7615,-1.5784,-1.5784,-1.5784,-1.5784,-1.5784,-1.5784,-1.5784,-1.5784,-1.6219,-1.6361,-1.5865,-1.6729,-1.7232,-1.6757,-1.7199,-1.7364,-1.677,-1.6658,-1.5849,-1.3798,-1.2832,-1.1755,-1.0296,-0.9372,-0.8885,-0.8885,-0.7485,-0.6702,-0.6702,-0.6068,-0.6774,-0.8924,-1.2846,-1.5517,-1.6898,-1.695,-1.6567,0.0,0.0,0.0,0.0,0.0,0.0,-0.3408,-0.231,-0.1394,-0.0503,-0.0316,-0.0321,-0.0324,-0.021,-0.0172,-0.0173,0.0044,0.0134,0.0,0.0,0.0,0.0,0.0,0.0,0.0,-0.0148,-0.1257,-0.3794,-0.4241,-0.5485,-0.8033,-1.0416,-1.1798,-1.205,-1.5569,-1.8002,-1.9077,-1.9085,-1.9625,-2.0702,-1.9761,-1.9314,-1.9314,-1.9451,-1.9497,-1.9534,-2.0612,-2.1159,-2.1382,-2.2448,-2.3038,-2.3387,-2.4414,-2.4787,-2.4787,-2.4787,-2.4702,-2.4457,-2.3464,-2.3091,-2.3091,-2.3091,-2.3091,-2.3091,-2.3091,-2.3091,-2.3091,-2.3091,-2.3003,-2.2906,-2.2906,-2.1132,-1.9314,-1.9314,-1.7529,-1.5784,-1.5784,-1.5784,-1.5784,-1.5784,-1.5784,-1.5784,-1.5784,-1.5954,-1.5746,-1.4669,-1.5755,-1.6347,-1.5275,-1.6309,-1.6626,-1.5304,-1.515,-1.4067,-1.1324,-1.1105,-1.0457,-0.8992,-0.8885,-0.8885,-0.8885,-0.7315,-0.6478,-0.6478,-0.5027,-0.5626,-0.8433,-0.9996,-1.1639,-1.3318,-1.3318,-1.3318,0.0,0.0,0.0,0.0,0.0,0.0,-0.6036,-0.4723,-0.3478,-0.2381,-0.2184,-0.2202,-0.2301,-0.1629,-0.1093,-0.126,0.0258,0.1099,0.0134,0.0,0.0,0.0,0.0,0.0,0.0,-0.0977,-0.2236,-0.3705,-0.5759,-0.7526,-0.8985,-1.0735,-1.2146,-1.3091,-1.5113,-1.6292,-1.652,-1.652,-1.6655,-1.6882,-1.7677,-1.8048,-1.8095,-1.9039,-1.9497,-1.9488,-1.9761,-2.0395,-2.1337,-2.1569,-2.2751,-2.45,-2.4702,-2.4787,-2.4787,-2.4787,-2.4211,-2.3387,-2.3178,-2.3091,-2.3091,-2.3091,-2.3091,-2.3091,-2.3091,-2.3091,-2.3091,-2.3091,-2.2403,-2.1658,-2.1658,-1.9861,-1.8048,-1.8048,-1.6889,-1.5784,-1.5784,-1.5784,-1.5784,-1.5784,-1.5784,-1.5784,-1.5784,-1.5317,-1.4853,-1.454,-1.4086,-1.3799,-1.3718,-1.3795,-1.3853,-1.3729,-1.3696,-1.2994,-1.1269,-1.1105,-1.0457,-0.8992,-0.8885,-0.8885,-0.8885,-0.6366,-0.4916,-0.4916,-0.3408,-0.3518,-0.5355,-0.8042,-1.0673,-1.3318,-1.3318,-1.3318,0.0,0.0,0.0,-1.2342,0.0,0.0,0.0,-0.7569,-0.6385,-0.5051,-0.4673,-0.4528,-0.4338,-0.3398,-0.271,-0.2889,-0.1113,0.0,-0.0693,0.0177,0.0673,0.009,0.0,-0.0285,-0.0939,-0.1555,-0.2938,-0.5355,-0.731,-0.8886,-1.0117,-1.1616,-1.2759,-1.3386,-1.5598,-1.6763,-1.6763,-1.6763,-1.6763,-1.6756,-1.6123,-1.6123,-1.6756,-1.6706,-1.7026,-1.7708,-1.8311,-1.8956,-1.9534,-2.0169,-2.1416,-2.3089,-2.432,-2.4787,-2.4787,-2.4787,-2.4051,-2.2979,-2.2385,-2.181,-2.1311,-2.1311,-2.1311,-2.1311,-2.1311,-2.1311,-2.1311,-2.1311,-2.0854,-2.0395,-2.0395,-1.9039,-1.7692,-1.7692,-1.6716,-1.5784,-1.5784,-1.5784,-1.5635,-1.4997,-1.4854,-1.5045,-1.5683,-1.4935,-1.4056,-1.3536,-1.3012,-1.2568,-1.2151,-1.2621,-1.2755,-1.218,-1.218,-1.1592,-1.0135,-1.0025,-0.9699,-0.8937,-0.8885,-0.8885,-0.8885,-0.6758,-0.5252,-0.4528,-0.3744,-0.4078,-0.5586,-0.7075,-0.8948,-1.1105,-1.1105,-1.1105,0.0,0.0,0.0,0.0,0.0,-1.2628,0.0,0.0,0.0,0.0,0.0,0.0,0.0,0.0,0.0,-0.4936,0.0,0.0,0.0,-0.0215,0.0,-0.0223,-0.0324,-0.0851,-0.2164,-0.2621,-0.4148,-0.7413,-0.8737,-0.997,-1.1267,-1.2462,-1.3298,-1.3692,-1.6023,-1.7299,-1.7318,-1.7318,-1.7217,-1.6922,-1.4877,-1.4316,-1.5003,-1.3974,-1.4076,-1.5099,-1.6123,-1.672,-1.7041,-1.7987,-1.8902,-1.9966,-2.293,-2.4096,-2.4096,-2.4096,-2.3345,-2.2202,-2.1275,-2.0305,-1.9497,-1.9497,-1.9497,-1.9497,-1.9497,-1.9497,-1.9497,-1.9497,-1.9314,-1.9131,-1.9131,-1.8272,-1.7318,-1.7318,-1.6574,-1.5784,-1.5784,-1.5784,-1.5486,-1.4459,-1.407,-1.4118,-1.4908,-1.4016,-1.2904,-1.2074,-1.1784,-1.1327,-1.0567,-1.1473,-1.1737,-1.0605,-1.0586,-1.0186,-0.8992,-0.8885,-0.8885,-0.8885,-0.8885,-0.8885,-0.8885,-0.7485,-0.6031,-0.4528,-0.4526,-0.525,-0.6702,-0.6702,-0.7482,-0.8885,-0.8885,-0.9047,0.0,0.0,0.0,0.0,-1.3694,0.0,0.0,0.0,-1.1432,-1.0257,0.0,0.0,0.0,0.0,0.0,0.0,0.0,0.0,-0.3754,-0.2202,-0.1102,-0.1562,-0.1581,-0.2069,-0.3289,-0.5292,-0.7173,-0.8759,-0.9849,-1.0959,-1.2109,-1.2589,-1.347,-1.4772,-1.5382,-1.5798,-1.6008,-1.6015,-1.5425,-1.4351,-1.4016,-1.3349,-1.2334,-1.2188,-1.2188,-1.2334,-1.2522,-1.3213,-1.4266,-1.4397,-1.4452,-1.4921,-1.9673,-2.1537,-2.1537,-2.1537,-2.0837,-1.9889,-1.9761,-1.9625,-1.9497,-1.9497,-1.9497,-1.9497,-1.9497,-1.9497,-1.9497,-1.9497,-1.8726,-1.7917,-1.7917,-1.6943,-1.6015,-1.6015,-1.5927,-1.5784,-1.5784,-1.5784,-1.5778,-1.5635,-1.4657,-1.3584,-1.2528,-1.1411,-1.0595,-1.0487,-0.9482,-0.8836,-0.8937,-0.9012,-0.903,-0.9099,-0.9144,-0.9103,-0.894,-0.8885,-0.8885,-0.8885,-0.8885,-0.8885,-0.8885,-0.7485,-0.6031,-0.4528,-0.4526,-0.525,-0.6702,-0.6702,-0.7482,-0.8885,-0.8885,-0.9588,0.0,0.0,0.0,0.0,0.0,0.0,-1.3807,0.0,-1.3796,0.0,0.0,0.0,0.0,0.0,0.0,0.0,-0.7298,0.0,0.0,0.0,-0.3758,-0.3451,0.0,0.0,-0.5289,-0.7132,-0.8742,-0.9874,-1.1591,-1.3062,-1.4218,-1.5177,-1.5684,-1.5625,-1.6109,-1.5688,-1.4415,-1.4576,-1.4028,-1.2716,-1.1989,-1.1745,-1.1853,-1.1116,-1.1214,-1.1848,-1.1079,-1.1046,-1.14,-0.9868,-0.9184,-0.9284,-1.0618,-1.3414,-1.6755,-1.6755,-1.6533,-1.6201,-1.6201,-1.5698,-1.5111,-1.5111,-1.5637,-1.6263,-1.6263,-1.6753,-1.7343,-1.7343,-1.6983,-1.6622,-1.6622,-1.6763,-1.6709,-1.5967,-1.6339,-1.6716,-1.5967,-1.5784,-1.5588,-1.4848,-1.3638,-1.2328,-1.1023,-1.0403,-1.0091,-1.0197,-0.9036,-0.8214,-0.8428,-0.8472,-0.821,-0.7466,-0.7506,-0.7595,-0.7595,-0.7595,-0.7986,-0.8826,-0.8885,-0.8885,-0.8885,-0.8322,-0.7706,-0.7093,-0.7035,-0.7371,-0.7986,-0.7986,-0.8266,-0.8885,-0.8885,-0.921,-1.0593,0.0,0.0,0.0,0.0,0.0,0.0,0.0,0.0,0.0,0.0,0.0,0.0,0.0,0.0,0.0,0.0,-0.8921,0.0,-0.7623,0.0,0.0,0.0,0.0,0.0,-0.9035,-1.0106,-1.091,-1.3075,-1.4745,-1.5647,-1.697,-1.7321,-1.6607,-1.6689,-1.5944,-1.4295,-1.3895,-1.3051,-1.1715,-1.047,-1.0158,-1.0741,-0.9425,-0.9396,-1.0217,-0.8849,-0.809,-0.7579,-0.5265,-0.3875,-0.3038,-0.1707,-0.4307,-0.8973,-1.0801,-1.176,-1.2256,-1.2614,-1.2373,-1.1896,-1.1896,-1.2571,-1.344,-1.3776,-1.4561,-1.5343,-1.5683,-1.5784,-1.5784,-1.5784,-1.648,-1.6943,-1.6015,-1.6527,-1.6951,-1.6015,-1.5784,-1.5534,-1.4609,-1.3349,-1.2042,-1.073,-0.9948,-0.9504,-0.9574,-0.87,-0.8109,-0.8303,-0.8418,-0.7979,-0.6554,-0.66,-0.6533,-0.6142,-0.6086,-0.6702,-0.8211,-0.8322,-0.8491,-0.8881,-0.8885,-0.8885,-0.8885,-0.8885,-0.8885,-0.8885,-0.8885,-0.8885,-0.8885,-0.8885,-0.9099,0.0,0.0,0.0,-1.2757,0.0,0.0,0.0,0.0,-1.5391,0.0,0.0,0.0,0.0,0.0,0.0,0.0,0.0,0.0,0.0,0.0,0.0,0.0,0.0,0.0,0.0,-1.1284,-1.1537,0.0,-1.396,-1.5408,-1.5681,-1.6731,-1.7434,-1.7753,-1.6672,-1.6239,-1.647,-1.4302,-1.2592,-1.1303,-1.0093,-0.8981,-0.7862,-0.6546,-0.602,-0.6126,-0.4766,-0.3456,-0.2147,-0.0842,0.1284,0.3808,0.511,0.472,0.2664,-0.377,-0.6985,-0.8262,-0.9555,-1.087,-1.1896,-1.1896,-1.1945,-1.2188,-1.3488,-1.3926,-1.422,-1.5439,-1.5784,-1.5784,-1.5784,-1.5832,-1.5825,-1.5832,-1.5832,-1.5825,-1.5832,-1.5784,-1.5778,-1.573,-1.4704,-1.3392,-1.2091,-0.9752,-0.8088,-0.8095,-0.8041,-0.8096,-0.8438,-0.8479,-0.8056,-0.6832,-0.6697,-0.6142,-0.4693,-0.4582,-0.5196,-0.67,-0.6758,-0.7429,-0.883,-0.8885,-0.8885,-0.8885,-0.8885,-0.8885,-0.8885,-0.8885,-0.8885,-0.8885,-0.8885,-0.9644,0.0,0.0,-1.2665,-1.2917,0.0,0.0,0.0,0.0,0.0,0.0,0.0,0.0,0.0,0.0,0.0,0.0,0.0,0.0,0.0,0.0,0.0,0.0,0.0,0.0,0.0,0.0,0.0,-1.3857,-1.5437,0.0,-1.7834,-1.8908,-1.9219,-1.8623,-1.8408,-1.7215,-1.5042,-1.4415,-1.2711,-0.9992,-0.957,-0.8777,-0.7628,-0.6359,-0.5838,-0.5714,-0.2676,-0.1094,-0.0344,0.3611,0.581,0.6758,0.8094,0.7799,0.6062,0.1134,-0.2077,-0.418,-0.5534,-0.6892,-0.8004,-0.8004,-0.9193,-1.073,-1.1165,-1.1891,-1.2866,-1.4172,-1.4555,-1.4752,-1.5588,-1.6433,-1.685,-1.6015,-1.6433,-1.681,-1.5967,-1.5784,-1.5784,-1.5784,-1.4752,-1.3488,-1.2139,-1.0485,-0.9019,-0.8137,-0.7988,-0.8113,-0.8316,-0.8425,-0.7593,-0.5312,-0.5161,-0.4637,-0.3129,-0.3913,-0.5139,-0.6589,-0.6702,-0.7371,-0.8826,-0.8885,-0.8885,-0.8885,-0.8885,-0.8885,-0.8885,-0.8885,-0.8885,-0.8885,-0.8885,-0.9154,-1.1226,-1.2174,0.0,-1.3009,-1.4024,0.0,-1.4185,0.0,0.0,0.0,0.0,0.0,0.0,0.0,0.0,0.0,0.0,0.0,0.0,-1.3809,0.0,0.0,0.0,0.0,0.0,-1.4074,-1.4187,-1.535,-1.6558,0.0,0.0,-2.0001,-2.0284,-1.9599,-1.9361,-1.8182,-1.5928,-1.491,-1.3221,-1.0965,-0.9732,-0.878,-0.8066,-0.5986,-0.5054,-0.489,-0.0979,0.0986,0.1806,0.6672,0.8671,0.8875,1.0711,1.0017,0.7585,0.4031,0.0698,-0.2105,-0.3012,-0.447,-0.5979,-0.5979,-0.7471,-0.9365,-0.9854,-1.0583,-1.1507,-1.2813,-1.3199,-1.3494,-1.4806,-1.5744,-1.6264,-1.5872,-1.6433,-1.6803,-1.5967,-1.5784,-1.5784,-1.5784,-1.514,-1.4028,-1.2188,-1.1219,-1.0068,-0.836,-0.8123,-0.8194,-0.8401,-0.8506,-0.7701,-0.5318,-0.4718,-0.3689,-0.1566,-0.2349,-0.3521,-0.5025,-0.5081,-0.6028,-0.8042,-0.8097,-0.8377,-0.8881,-0.838,-0.8097,-0.8097,-0.7595,-0.7315,-0.7315,-0.7315,-0.7595]},{"header":{"parameterUnit":"m.s-1","parameterCategory":1,"la1":30.6,"la2":29.2853,"lo1":-89.7004,"lo2":-87.6739,"dy":0.0162,"dx":0.0183,"nx":112,"ny":82,"refTime":"2025-05-22T06:00:00:Z","depth":0,"parameterNumber":3,"parameterNumberName":"V-component_of_WINDS"},"data":[0.0,0.0,0.0,0.0,0.0,0.0,0.0,0.0,0.0,0.0,0.0,0.0,0.0,0.0,0.0,0.0,0.0,0.0,0.0,0.0,0.0,0.0,0.0,0.0,0.0,0.0,0.0,0.0,0.0,0.0,0.0,0.0,0.0,0.0,0.0,0.0,0.0,0.0,0.0,0.0,0.0,0.0,0.0,0.0,0.0,0.0,0.0,0.0,0.0,0.0,0.0,0.0,0.0,0.0,0.0,0.0,0.0,0.0,0.0,0.0,0.0,0.0,0.0,0.0,0.0,0.0,0.0,0.0,0.0,0.0,0.0,0.0,0.0,0.0,0.0,0.0,0.0,0.0,0.0,0.0,0.0,0.0,0.0,0.0,0.0,0.0,0.0,0.0,0.0,0.0,2.2296,2.2296,2.2296,2.2296,2.2296,2.2296,2.2296,2.2296,0.0,0.0,0.0,0.0,0.0,0.0,0.0,0.0,0.0,0.0,0.0,0.0,0.0,0.0,0.0,0.0,0.0,0.0,0.0,0.0,0.0,0.0,0.0,0.0,0.0,0.0,0.0,0.0,0.0,0.0,0.0,0.0,0.0,0.0,0.0,0.0,0.0,0.0,0.0,0.0,0.0,0.0,0.0,0.0,0.0,0.0,0.0,0.0,0.0,0.0,0.0,0.0,0.0,0.0,0.0,0.0,0.0,0.0,0.0,0.0,0.0,0.0,0.0,0.0,0.0,0.0,0.0,0.0,0.0,0.0,0.0,0.0,0.0,0.0,0.0,0.0,0.0,0.0,0.0,0.0,0.0,0.0,0.0,0.0,0.0,0.0,0.0,0.0,0.0,0.0,0.0,0.0,0.0,0.0,0.0,0.0,0.0,0.0,0.0,0.0,0.0,0.0,0.0,0.0,2.2296,2.2296,2.2296,2.2296,2.2296,2.2296,2.2296,2.2296,0.0,0.0,0.0,0.0,0.0,0.0,0.0,0.0,0.0,0.0,0.0,0.0,0.0,0.0,0.0,0.0,0.0,0.0,0.0,0.0,0.0,0.0,0.0,0.0,0.0,0.0,0.0,0.0,0.0,0.0,0.0,0.0,0.0,0.0,0.0,0.0,0.0,0.0,0.0,0.0,0.0,0.0,0.0,0.0,0.0,0.0,0.0,0.0,0.0,0.0,0.0,0.0,0.0,0.0,0.0,0.0,0.0,0.0,0.0,0.0,0.0,0.0,0.0,0.0,0.0,0.0,0.0,0.0,0.0,0.0,0.0,0.0,0.0,0.0,0.0,0.0,0.0,0.0,0.0,0.0,0.0,0.0,0.0,0.0,0.0,0.0,0.0,0.0,0.0,0.0,0.0,0.0,0.0,0.0,0.0,0.0,0.0,0.0,0.0,0.0,0.0,0.0,0.0,2.2296,2.2296,2.2296,2.2296,2.2194,2.1943,2.2149,2.2194,2.1928,2.2149,0.0,0.0,0.0,0.0,0.0,0.0,0.0,0.0,0.0,0.0,0.0,0.0,0.0,0.0,0.0,0.0,0.0,0.0,0.0,0.0,0.0,0.0,0.0,0.0,0.0,0.0,0.0,0.0,0.0,0.0,0.0,0.0,0.0,0.0,0.0,0.0,0.0,0.0,0.0,0.0,0.0,0.0,0.0,0.0,0.0,0.0,0.0,0.0,0.0,0.0,0.0,0.0,0.0,0.0,0.0,0.0,0.0,0.0,0.0,0.0,0.0,0.0,0.0,0.0,0.0,0.0,0.0,0.0,0.0,0.0,0.0,0.0,0.0,0.0,0.0,0.0,0.0,0.0,0.0,0.0,0.0,0.0,0.0,0.0,0.0,0.0,0.0,0.0,0.0,0.0,0.0,0.0,0.0,0.0,0.0,0.0,0.0,0.0,0.0,0.0,0.0,0.0,2.2564,2.2564,2.2564,2.2564,2.2334,2.1811,2.2092,2.2152,2.1794,2.2106,0.0,0.0,0.0,0.0,0.0,0.0,0.0,0.0,0.0,0.0,0.0,0.0,0.0,0.0,0.0,0.0,0.0,0.0,0.0,0.0,0.0,0.0,0.0,0.0,0.0,0.0,0.0,0.0,0.0,0.0,0.0,0.0,0.0,0.0,0.0,0.0,0.0,0.0,0.0,0.0,0.0,0.0,0.0,0.0,0.0,0.0,0.0,0.0,0.0,0.0,0.0,0.0,0.0,0.0,0.0,0.0,0.0,0.0,0.0,0.0,0.0,0.0,0.0,0.0,0.0,0.0,0.0,0.0,0.0,0.0,0.0,0.0,0.0,0.0,0.0,0.0,0.0,0.0,0.0,0.0,0.0,0.0,0.0,0.0,0.0,0.0,0.0,0.0,0.0,0.0,0.0,0.0,0.0,0.0,0.0,0.0,0.0,0.0,0.0,0.0,0.0,0.0,2.3325,2.3325,2.3325,2.3325,2.3023,2.2319,2.2282,2.2282,2.2237,2.2282,0.0,0.0,0.0,0.0,0.0,0.0,0.0,0.0,0.0,0.0,0.0,0.0,0.0,0.0,0.0,0.0,0.0,0.0,0.0,0.0,0.0,0.0,0.0,0.0,0.0,0.0,0.0,0.0,0.0,0.0,0.0,0.0,0.0,0.0,0.0,0.0,0.0,0.0,0.0,0.0,0.0,0.0,0.0,0.0,0.0,0.0,0.0,0.0,0.0,0.0,0.0,0.0,0.0,0.0,0.0,0.0,0.0,0.0,0.0,0.0,0.0,0.0,0.0,0.0,0.0,0.0,0.0,0.0,0.0,0.0,0.0,0.0,0.0,0.0,0.0,0.0,0.0,0.0,0.0,0.0,0.0,0.0,0.0,0.0,0.0,0.0,0.0,0.0,0.0,0.0,0.0,0.0,0.0,0.0,0.0,0.0,0.0,0.0,0.0,0.0,0.0,0.0,2.3814,2.3915,0.0,2.3393,2.2969,2.1949,2.212,2.218,2.1884,0.0,0.0,0.0,0.0,0.0,0.0,0.0,0.0,0.0,0.0,0.0,0.0,0.0,0.0,0.0,0.0,0.0,0.0,0.0,0.0,0.0,0.0,0.0,0.0,0.0,0.0,0.0,0.0,0.0,0.0,0.0,0.0,0.0,0.0,0.0,0.0,0.0,0.0,0.0,0.0,0.0,0.0,0.0,0.0,0.0,0.0,0.0,0.0,0.0,0.0,0.0,0.0,0.0,0.0,0.0,0.0,0.0,0.0,0.0,0.0,0.0,0.0,0.0,0.0,0.0,0.0,0.0,0.0,0.0,0.0,0.0,0.0,0.0,0.0,0.0,0.0,0.0,0.0,0.0,0.0,0.0,0.0,0.0,0.0,0.0,0.0,0.0,0.0,0.0,0.0,0.0,0.0,0.0,0.0,0.0,0.0,0.0,0.0,0.0,0.0,0.0,0.0,2.3729,2.4389,2.4644,0.0,2.3883,2.3323,2.2252,2.2255,2.2149,2.1838,0.0,0.0,0.0,0.0,0.0,0.0,0.0,0.0,0.0,0.0,0.0,0.0,0.0,0.0,0.0,0.0,0.0,0.0,0.0,0.0,0.0,0.0,0.0,0.0,0.0,0.0,0.0,0.0,0.0,0.0,0.0,0.0,0.0,0.0,0.0,0.0,0.0,0.0,0.0,0.0,0.0,0.0,0.0,0.0,0.0,0.0,0.0,0.0,0.0,0.0,0.0,0.0,0.0,0.0,0.0,0.0,0.0,0.0,0.0,0.0,0.0,0.0,0.0,0.0,0.0,0.0,0.0,0.0,0.0,0.0,0.0,0.0,0.0,0.0,0.0,0.0,0.0,0.0,0.0,0.0,0.0,0.0,0.0,0.0,0.0,0.0,0.0,0.0,0.0,0.0,0.0,0.0,0.0,0.0,0.0,0.0,0.0,0.0,0.0,0.0,0.0,0.0,2.4406,2.5152,2.5609,2.5592,2.4948,2.4203,2.346,2.2719,2.2296,0.0,0.0,0.0,0.0,0.0,0.0,0.0,0.0,0.0,0.0,0.0,0.0,0.0,0.0,0.0,0.0,0.0,0.0,0.0,0.0,0.0,0.0,0.0,0.0,0.0,0.0,0.0,0.0,0.0,0.0,0.0,0.0,0.0,0.0,0.0,0.0,0.0,0.0,0.0,0.0,0.0,0.0,0.0,0.0,0.0,0.0,0.0,0.0,0.0,0.0,0.0,0.0,0.0,0.0,0.0,0.0,0.0,0.0,0.0,0.0,0.0,0.0,0.0,0.0,0.0,0.0,0.0,0.0,0.0,0.0,0.0,0.0,0.0,0.0,0.0,0.0,0.0,0.0,0.0,0.0,0.0,0.0,0.0,0.0,0.0,0.0,0.0,0.0,0.0,0.0,0.0,0.0,0.0,0.0,0.0,0.0,0.0,0.0,0.0,0.0,0.0,0.0,0.0,2.4457,2.5608,2.6184,2.5659,2.5423,2.4763,2.3511,2.319,2.2852,2.233,0.0,0.0,0.0,0.0,0.0,0.0,0.0,0.0,0.0,0.0,0.0,0.0,0.0,0.0,0.0,0.0,0.0,0.0,0.0,0.0,0.0,0.0,0.0,0.0,0.0,0.0,0.0,0.0,0.0,0.0,0.0,0.0,0.0,0.0,0.0,0.0,0.0,0.0,0.0,0.0,0.0,0.0,0.0,0.0,0.0,0.0,0.0,0.0,0.0,0.0,0.0,0.0,0.0,0.0,0.0,0.0,0.0,0.0,0.0,0.0,0.0,0.0,0.0,0.0,0.0,0.0,0.0,0.0,0.0,0.0,0.0,0.0,0.0,0.0,0.0,0.0,0.0,0.0,0.0,0.0,0.0,0.0,0.0,0.0,0.0,0.0,0.0,0.0,0.0,0.0,0.0,0.0,0.0,0.0,0.0,0.0,0.0,0.0,0.0,0.0,0.0,0.0,2.4491,2.5794,2.6522,2.6099,2.5795,2.5118,2.3949,2.3577,2.3088,2.2347,0.0,0.0,0.0,0.0,0.0,0.0,0.0,0.0,0.0,0.0,0.0,0.0,0.0,0.0,0.0,0.0,0.0,0.0,0.0,0.0,0.0,0.0,0.0,0.0,0.0,0.0,0.0,0.0,0.0,0.0,0.0,0.0,0.0,0.0,0.0,0.0,0.0,0.0,0.0,0.0,0.0,0.0,0.0,0.0,0.0,0.0,0.0,0.0,0.0,0.0,0.0,0.0,0.0,0.0,0.0,0.0,0.0,0.0,0.0,0.0,0.0,0.0,0.0,0.0,0.0,0.0,0.0,0.0,0.0,0.0,0.0,0.0,0.0,0.0,0.0,0.0,0.0,0.0,0.0,0.0,0.0,0.0,0.0,0.0,0.0,0.0,0.0,0.0,0.0,0.0,0.0,0.0,0.0,0.0,0.0,0.0,0.0,0.0,0.0,0.0,0.0,0.0,2.4506,2.5794,2.6691,2.6691,2.6099,2.5372,2.4558,2.3898,2.3156,2.2347,0.0,0.0,0.0,0.0,0.0,0.0,0.0,0.0,0.0,0.0,0.0,0.0,0.0,0.0,0.0,0.0,0.0,0.0,0.0,0.0,0.0,0.0,0.0,0.0,0.0,0.0,0.0,0.0,0.0,0.0,0.0,0.0,0.0,0.0,0.0,0.0,0.0,0.0,0.0,0.0,0.0,0.0,0.0,0.0,0.0,0.0,0.0,0.0,0.0,0.0,0.0,0.0,0.0,0.0,0.0,0.0,0.0,0.0,0.0,0.0,2.4668,0.0,0.0,0.0,0.0,0.0,0.0,0.0,0.0,0.0,0.0,0.0,0.0,0.0,0.0,0.0,0.0,0.0,0.0,0.0,0.0,0.0,0.0,0.0,0.0,0.0,0.0,0.0,0.0,0.0,0.0,0.0,0.0,0.0,0.0,0.0,0.0,0.0,0.0,0.0,0.0,0.0,2.4537,2.5794,2.6691,2.6691,2.6556,2.5929,2.4609,2.4355,2.3697,2.2381,2.2296,0.0,0.0,0.0,0.0,0.0,0.0,0.0,0.0,0.0,0.0,0.0,0.0,0.0,0.0,0.0,0.0,0.0,0.0,0.0,0.0,0.0,0.0,0.0,0.0,0.0,0.0,0.0,0.0,0.0,0.0,0.0,0.0,0.0,0.0,0.0,0.0,0.0,0.0,0.0,0.0,0.0,0.0,0.0,0.0,0.0,0.0,0.0,0.0,0.0,0.0,0.0,0.0,0.0,0.0,0.0,0.0,0.0,0.0,0.0,0.0,2.614,0.0,0.0,0.0,0.0,0.0,0.0,0.0,0.0,0.0,0.0,0.0,0.0,0.0,0.0,0.0,0.0,0.0,0.0,0.0,0.0,0.0,0.0,0.0,0.0,0.0,0.0,0.0,0.0,0.0,0.0,0.0,0.0,0.0,0.0,0.0,0.0,0.0,0.0,0.0,0.0,2.4773,2.6046,2.6923,2.6725,2.6691,2.6251,2.5118,2.4694,2.4017,2.2902,2.2499,0.0,0.0,0.0,0.0,0.0,0.0,0.0,0.0,0.0,0.0,0.0,0.0,0.0,0.0,0.0,0.0,0.0,0.0,0.0,0.0,0.0,0.0,0.0,0.0,0.0,0.0,0.0,0.0,0.0,0.0,0.0,0.0,0.0,0.0,0.0,0.0,0.0,0.0,0.0,0.0,0.0,0.0,0.0,0.0,0.0,0.0,0.0,0.0,0.0,0.0,0.0,0.0,0.0,3.1279,3.1624,3.2084,3.1385,3.1403,3.1909,3.0044,2.8721,2.7922,2.7975,0.0,0.0,0.0,0.0,0.0,0.0,0.0,0.0,0.0,0.0,0.0,0.0,0.0,0.0,0.0,0.0,0.0,0.0,0.0,0.0,0.0,0.0,0.0,0.0,2.6999,2.7219,2.656,0.0,0.0,0.0,0.0,0.0,0.0,0.0,0.0,0.0,0.0,0.0,2.5335,2.6482,2.7178,2.6841,2.6741,2.6404,2.5659,2.5033,2.4321,2.3444,2.2835,2.2431,0.0,0.0,0.0,0.0,0.0,0.0,0.0,0.0,0.0,0.0,0.0,0.0,0.0,0.0,0.0,0.0,0.0,0.0,0.0,0.0,0.0,0.0,0.0,0.0,0.0,0.0,0.0,0.0,0.0,0.0,0.0,0.0,2.6499,2.7099,0.0,0.0,0.0,0.0,0.0,0.0,0.0,0.0,0.0,0.0,0.0,0.0,0.0,3.0632,3.2326,3.3368,3.435,3.5239,3.5642,3.5535,3.4939,3.4542,3.4435,3.4509,3.4206,0.0,3.0432,3.044,0.0,0.0,0.0,0.0,0.0,0.0,0.0,0.0,0.0,0.0,0.0,0.0,0.0,0.0,0.0,0.0,0.0,0.0,0.0,0.0,0.0,0.0,2.9899,3.0497,3.0173,2.9722,0.0,2.7487,2.5656,2.5841,2.5906,0.0,0.0,0.0,0.0,0.0,0.0,0.0,2.6517,2.6991,2.7288,2.7225,2.6906,2.6404,2.5659,2.5507,2.4864,2.3477,2.3308,2.297,2.233,2.2296,0.0,0.0,0.0,0.0,0.0,0.0,0.0,0.0,0.0,0.0,0.0,0.0,0.0,0.0,0.0,0.0,0.0,0.0,0.0,0.0,0.0,0.0,0.0,0.0,0.0,0.0,0.0,0.0,0.0,2.6228,2.6927,2.7553,2.8134,2.8475,0.0,0.0,0.0,0.0,0.0,0.0,0.0,0.0,0.0,3.2244,3.3023,3.3829,3.4714,3.5648,3.6304,3.6673,3.6881,3.6691,3.6162,3.6016,3.5873,3.5734,3.5734,3.5044,3.3842,3.2712,3.1405,3.0134,0.0,0.0,0.0,0.0,3.021,2.9402,3.0099,2.9898,2.9274,2.9182,0.0,0.0,0.0,0.0,0.0,0.0,0.0,0.0,0.0,0.0,3.0962,3.1323,3.114,3.087,3.087,2.9807,2.8506,0.0,2.707,2.6702,2.5593,0.0,0.0,0.0,0.0,2.7538,2.7072,2.7936,2.825,2.74,2.7147,2.6818,2.6251,2.5845,2.5305,2.4678,2.3849,2.3257,2.2936,2.2516,2.2296,0.0,0.0,0.0,0.0,0.0,0.0,0.0,0.0,0.0,0.0,0.0,0.0,0.0,0.0,0.0,0.0,0.0,0.0,0.0,0.0,0.0,0.0,0.0,0.0,0.0,0.0,0.0,0.0,2.7596,2.7876,2.863,2.9248,2.9558,0.0,0.0,0.0,0.0,0.0,0.0,3.3038,3.3481,3.4113,3.5019,3.5933,3.6519,3.6747,3.7404,3.7832,3.8041,3.7971,3.7769,3.7442,3.7355,3.7163,3.6909,3.6909,3.6798,3.6472,3.4776,3.3241,3.1946,3.1946,3.1692,3.1393,3.1858,3.1745,3.1433,3.1641,3.158,3.1342,3.0944,3.0815,3.0705,3.0106,0.0,0.0,0.0,0.0,3.1452,3.1641,3.1715,3.1751,3.1966,3.1861,3.1715,3.1715,3.1562,3.0883,0.0,2.8716,2.8275,2.688,0.0,0.0,0.0,0.0,2.8978,2.8076,2.8918,2.9052,2.7617,2.7348,2.7131,2.6741,2.6201,2.5812,2.5609,2.4577,2.3883,2.3695,2.297,2.2581,2.2581,0.0,0.0,0.0,0.0,0.0,0.0,0.0,0.0,0.0,0.0,0.0,0.0,0.0,0.0,0.0,0.0,0.0,0.0,0.0,0.0,0.0,0.0,0.0,0.0,0.0,0.0,0.0,0.0,0.0,3.1121,3.1245,0.0,0.0,0.0,0.0,3.234,3.3808,3.5008,3.5769,3.6537,3.699,3.7039,3.7357,3.7926,3.8755,3.9051,3.9581,4.033,4.009,3.9768,3.9444,3.9126,3.8832,3.8579,3.8579,3.8138,3.7364,3.6509,3.5614,3.4793,3.4793,3.3858,3.2612,3.339,3.2706,3.1513,3.2284,3.2045,3.1525,3.2234,3.2472,3.2472,3.2436,3.1916,0.0,0.0,3.1378,3.158,3.2339,3.2528,3.2729,3.3495,3.3109,3.2528,3.2528,3.1935,3.136,0.0,3.1213,3.0956,3.0099,0.0,3.0008,2.9953,3.0063,3.0124,3.0057,2.9797,2.9166,2.7982,2.753,2.7131,2.6741,2.6657,2.6353,2.5642,2.5525,2.5169,2.4474,2.3746,2.3342,2.3342,2.2665,0.0,0.0,0.0,0.0,0.0,0.0,0.0,0.0,0.0,0.0,0.0,0.0,0.0,0.0,0.0,0.0,0.0,0.0,0.0,0.0,0.0,0.0,0.0,0.0,0.0,0.0,0.0,0.0,3.214,3.3061,0.0,3.3886,3.4235,3.4986,3.626,3.6888,3.7777,3.9074,3.9635,4.0136,4.0658,4.0987,4.1294,4.1601,4.1706,4.1893,4.2162,4.2087,4.1475,4.0434,4.0308,3.9679,3.8707,3.8707,3.8542,3.8248,3.7955,3.7055,3.5844,3.5844,3.5495,3.5018,3.5293,3.5037,3.4578,3.489,3.4798,3.4596,3.489,3.4981,3.4981,3.4981,3.478,3.4431,3.3867,3.372,3.3647,3.344,3.3366,3.344,3.3733,3.3587,3.3366,3.3366,3.3146,3.2944,3.2944,3.21,3.114,3.0338,3.0632,3.0797,3.0283,3.1091,3.1568,3.1035,3.1056,3.0697,2.9517,2.8563,2.7855,2.7453,2.6962,2.659,2.6319,2.5862,2.549,2.522,2.4508,2.3881,2.341,2.3139,2.2784,0.0,0.0,0.0,0.0,0.0,0.0,0.0,0.0,0.0,0.0,0.0,0.0,0.0,0.0,0.0,0.0,0.0,0.0,0.0,0.0,0.0,0.0,0.0,0.0,0.0,3.3295,3.3793,3.3897,3.4966,3.5791,3.6093,3.6837,3.7922,3.9372,3.9726,4.0395,4.1582,4.1839,4.2211,4.2757,4.297,4.3104,4.3104,4.3104,4.3104,4.3104,4.2961,4.2334,4.1302,4.118,4.0537,3.9515,3.9515,3.9515,3.9496,3.9221,3.8487,3.7477,3.7221,3.6927,3.6703,3.6703,3.6523,3.6303,3.6303,3.6303,3.6303,3.6303,3.6303,3.6303,3.6303,3.6303,3.6174,3.5591,3.5445,3.5316,3.478,3.4633,3.4633,3.4633,3.4633,3.4633,3.4633,3.4633,3.4559,3.4266,3.3109,3.2045,3.1513,3.1861,3.2027,3.1494,3.232,3.2706,3.1916,3.1929,3.1544,3.0333,2.9333,2.8509,2.7859,2.7351,2.6962,2.6708,2.6234,2.5981,2.5981,2.5253,2.4628,2.4154,2.4032,2.3799,2.3409,0.0,0.0,0.0,0.0,0.0,0.0,0.0,0.0,0.0,0.0,0.0,0.0,0.0,0.0,0.0,0.0,0.0,0.0,0.0,0.0,0.0,0.0,0.0,3.4177,3.5241,3.6201,3.6514,3.7009,3.7656,3.8499,3.932,4.0255,4.1408,4.221,4.2805,4.3154,4.3181,4.3181,4.3181,4.3181,4.3181,4.3181,4.3181,4.3181,4.3165,4.2766,4.2408,4.2109,4.1786,4.1433,4.1095,4.1095,4.1095,4.104,4.0267,3.9937,3.9845,3.9019,3.8212,3.7547,3.7547,3.7052,3.6391,3.6376,3.6372,3.6391,3.6376,3.6376,3.6376,3.6376,3.6376,3.6376,3.634,3.634,3.6321,3.6303,3.6303,3.6303,3.6303,3.6303,3.6303,3.6303,3.6303,3.6046,3.5206,3.4399,3.3862,3.3807,3.3807,3.3807,3.3807,3.3807,0.0,3.2729,3.2292,3.1595,3.0419,2.9856,2.9111,2.8013,2.7876,2.7538,2.6826,2.6758,2.6741,2.6741,2.6047,2.5658,2.5641,2.5301,2.5277,2.5598,0.0,0.0,0.0,0.0,0.0,0.0,0.0,0.0,0.0,0.0,0.0,0.0,0.0,0.0,0.0,0.0,0.0,0.0,0.0,0.0,0.0,3.6604,3.7414,3.6438,3.7128,3.778,3.7872,3.9059,4.0056,4.0477,4.1307,4.2277,4.3413,4.3719,4.414,4.4874,4.4921,4.4921,4.4921,4.4921,4.4921,4.4921,4.4921,4.4785,4.4553,4.4442,4.3758,4.2604,4.2509,4.1964,4.1095,4.1095,4.1095,4.1077,4.0857,4.0781,4.0634,3.9239,3.856,3.8377,3.8377,3.835,3.8289,3.8114,3.8165,3.8308,3.8099,3.8046,3.8046,3.8046,3.8046,3.7918,3.7327,3.718,3.7052,3.645,3.6303,3.6303,3.6303,3.6303,3.6303,3.6303,3.6303,3.6229,3.5991,3.5752,3.522,3.4009,3.3807,3.3807,3.3807,3.3807,0.0,3.3495,3.3124,3.2739,3.24,3.1477,3.075,3.0442,2.9392,2.8656,2.8461,2.7905,2.756,2.756,2.7382,2.7014,2.6486,2.5817,2.5512,0.0,0.0,0.0,0.0,0.0,0.0,0.0,0.0,0.0,0.0,0.0,0.0,0.0,0.0,0.0,0.0,0.0,0.0,0.0,0.0,0.0,0.0,3.8813,3.9743,3.9788,3.9496,3.9414,3.9776,4.068,4.1598,4.2479,4.3015,4.3741,4.4769,4.4836,4.5075,4.5575,4.5594,4.5594,4.5594,4.5594,4.5594,4.5594,4.5594,4.5429,4.5096,4.4954,4.4322,4.329,4.316,4.2717,4.2121,4.2121,4.2121,4.2084,4.1754,4.159,0.0,0.0,0.0,0.0,0.0,3.8803,3.8937,3.8884,3.8913,3.8937,3.8884,3.8788,3.8707,3.8707,3.8707,3.8597,3.812,3.7991,3.7915,3.7422,3.7312,3.7312,3.7312,3.7312,3.7312,3.7312,3.7312,3.7202,3.6868,3.6813,0.0,3.5073,3.4541,3.4192,3.3844,3.3807,3.3807,3.3807,3.3451,3.3199,3.3199,3.2416,3.1735,3.1432,3.0579,0.0,0.0,0.0,2.8248,2.7897,2.8212,0.0,0.0,0.0,0.0,0.0,0.0,0.0,0.0,2.7202,2.6933,0.0,0.0,0.0,0.0,0.0,0.0,0.0,0.0,0.0,0.0,0.0,0.0,0.0,0.0,0.0,0.0,4.1057,4.1715,4.3206,4.1914,4.1104,4.1886,4.206,4.2715,4.4198,4.4429,4.4804,4.5574,4.5632,4.5635,4.561,0.0,0.0,0.0,0.0,4.5594,4.5594,4.5594,4.5429,4.5096,4.48,4.4441,4.4061,4.371,4.3565,4.3546,4.3513,4.3515,4.3441,4.2727,4.2466,4.2408,4.1458,4.0671,3.9937,3.9129,3.8848,3.8887,3.9008,0.0,0.0,3.9115,3.9083,3.8982,3.8982,3.8909,3.8836,3.8836,3.8781,3.8707,3.8707,3.8707,3.8707,3.8707,3.8707,3.8707,3.8707,3.8707,3.8487,3.7768,3.7639,3.7382,3.656,3.5734,3.4894,3.4192,3.4009,3.3935,3.3935,3.3549,3.3273,3.3273,0.0,0.0,3.1734,3.1591,3.095,2.9575,2.9415,2.9027,2.8322,2.8973,2.9164,2.876,2.8742,2.9275,3.0338,3.0338,3.0705,3.1311,2.8179,2.7614,0.0,0.0,0.0,0.0,0.0,0.0,0.0,0.0,0.0,0.0,0.0,0.0,0.0,0.0,0.0,4.0862,4.2071,4.3061,4.3495,4.3148,4.2893,4.3063,4.37,4.4263,4.4589,4.521,4.5652,4.5827,4.5846,4.5811,4.5756,4.5768,4.5715,4.5594,4.5594,4.5594,4.5594,4.5594,4.5429,4.5096,0.0,0.0,4.4474,4.4091,4.3893,4.3896,4.3631,4.3515,4.3496,4.3331,4.3441,4.3491,4.1774,4.1003,4.0781,3.9955,3.9788,3.9876,3.9051,3.9309,3.9954,3.9807,4.0147,4.0636,4.0636,4.0194,0.0,3.9662,3.9203,3.8707,3.8707,3.8707,3.8707,3.8707,3.8707,3.8707,3.8707,3.8707,3.8652,3.8505,3.8469,3.8212,3.7419,3.6578,3.5991,3.5844,3.522,3.4766,3.4766,3.4124,3.3694,3.3694,3.3606,3.3492,3.3359,3.2744,3.2233,3.1954,3.1316,3.089,3.0732,3.0859,3.0916,3.082,3.082,3.0918,3.1176,3.1176,3.125,3.1378,3.0693,3.0577,0.0,0.0,0.0,0.0,0.0,0.0,0.0,0.0,0.0,0.0,0.0,3.8582,4.0033,0.0,4.1908,4.2844,4.3689,4.4385,4.4872,4.4899,4.4648,4.4114,4.4433,4.4857,4.5261,4.567,4.5899,4.5899,4.5899,4.5896,4.5845,4.5839,4.5808,4.5708,4.57,4.5665,4.5594,4.5594,4.5429,4.5096,4.5096,4.4919,4.4593,4.4387,4.429,4.429,4.4106,4.405,4.405,4.405,4.415,4.4201,4.3229,4.2478,4.1819,4.0861,4.0596,4.064,4.0285,4.0396,4.0714,4.0729,4.0904,4.1095,4.1095,4.0836,4.0506,4.0506,4.0022,3.949,3.949,3.9319,3.9114,3.8937,3.8894,3.8855,3.8735,3.8707,3.8707,3.8707,3.8707,3.8579,3.8175,3.7771,3.7221,3.6413,3.5936,3.5481,3.5059,3.4656,3.4252,3.3844,3.3807,3.3807,3.3807,3.3073,3.2601,3.2601,3.2228,3.1825,3.1415,3.1788,3.1806,3.1415,3.1397,3.1599,3.2008,3.2008,3.221,3.2596,3.2596,3.2394,0.0,0.0,0.0,0.0,0.0,0.0,0.0,0.0,3.9007,3.9887,4.0213,4.0774,4.2245,4.2643,4.3257,4.4723,4.5096,4.5467,4.615,4.6289,4.5972,4.5089,4.4985,4.5264,4.5903,4.5981,4.5981,4.5981,4.5981,4.5974,4.5932,4.5932,4.59,4.5814,4.5816,4.5747,4.5643,4.5612,4.5457,4.5201,4.5201,4.5063,4.4781,4.4739,4.4714,4.4682,4.4618,4.4593,4.4593,4.4593,4.4631,4.4682,4.4637,4.4006,4.3005,4.1859,4.1379,4.1346,4.1455,4.1437,4.1381,4.1656,4.1643,4.1572,4.1572,4.1462,4.1334,4.1334,4.0954,4.0519,4.0337,4.0025,3.9657,3.9294,3.9099,3.8971,3.88,3.875,3.8707,3.8707,3.8707,3.8707,3.8707,3.8707,3.8267,3.6964,3.6633,3.6285,3.5573,3.5206,3.4747,3.41,3.3899,3.3807,3.3807,3.322,3.2821,3.2821,3.2821,3.254,3.188,3.2485,3.254,3.1892,3.1874,3.2192,3.2821,3.2821,3.3183,3.3807,3.3807,3.3458,3.3765,3.4558,3.5853,3.754,3.7492,3.7622,0.0,0.0,4.0673,4.1557,4.2382,4.3039,4.3245,4.3915,4.4522,4.4779,4.5473,4.6002,4.6119,4.6224,4.6209,4.5979,4.6054,4.615,4.6248,4.6267,4.6267,4.6267,4.6267,4.6201,4.6082,4.608,4.6027,4.5885,4.5838,4.579,4.5769,4.5657,4.5577,4.5531,4.5531,4.5522,4.5485,4.5191,4.5052,4.503,4.4739,4.4593,4.4593,4.4593,4.4788,4.5,4.4726,4.451,4.4256,4.3057,4.2405,4.2066,4.1399,4.1603,4.2158,4.2208,4.2669,4.3222,4.3222,4.2727,4.2176,4.2176,4.1816,4.1274,4.05,4.03,4.0192,3.9662,3.9122,3.8803,3.8994,3.8869,3.8707,3.8707,3.8707,3.8707,3.8707,3.8707,3.8652,3.8469,3.7808,3.7327,3.7235,3.5917,3.4968,3.4876,3.4215,3.3807,3.3807,3.3715,3.3678,3.3678,3.3678,3.3623,3.3532,3.3623,3.3623,3.3532,3.3532,3.3587,3.3678,3.3678,3.3715,3.3807,3.3807,3.3752,3.4891,3.6039,3.7269,3.7487,3.8416,3.9545,4.0525,4.1145,4.1916,4.3282,4.3821,4.4217,4.4748,4.5113,4.5361,4.5422,4.5751,4.5985,4.5985,4.6108,4.6152,4.6113,4.6223,4.6308,4.6308,4.6308,4.6308,4.6308,4.6308,4.6288,4.6223,4.6222,4.6149,4.6027,4.599,4.592,4.5803,4.574,4.568,4.5594,4.5594,4.5594,4.5605,4.5448,4.54,4.5371,4.5243,4.5171,4.5171,4.5171,4.5263,4.539,4.5243,4.5055,4.4811,4.4118,4.3617,4.3233,4.29,4.3011,4.3257,4.305,4.3222,4.3515,4.3515,4.3276,4.3002,4.3002,4.2654,4.2199,4.1849,4.1535,4.1115,4.0207,3.9798,3.9482,3.8995,3.8773,3.8707,3.8707,3.8707,3.8707,3.8707,3.8707,3.8707,3.8707,3.8414,3.8028,3.7566,3.6905,3.6285,3.5807,3.5004,3.4491,3.4491,3.4082,3.3807,3.3807,3.3807,3.3807,3.3807,3.3807,3.3807,3.3807,3.3807,3.3807,3.3807,3.3807,3.3807,3.3807,3.3807,3.3807,3.6057,3.7031,3.7946,3.7791,3.9162,4.0666,4.1047,4.1781,4.2809,4.4289,4.4699,4.5014,4.5689,4.5777,4.5764,4.5866,4.5867,4.5867,4.5867,4.5992,4.6084,4.6045,4.6199,4.6308,4.6308,4.6308,4.6308,4.6308,4.6308,4.6308,4.6308,4.6308,4.6267,4.617,4.6082,4.5963,4.5832,4.5776,4.5692,4.5594,4.5594,4.5594,4.5594,4.5594,4.5594,4.5594,4.5594,4.5594,4.5594,4.5594,4.5594,4.5594,4.5594,4.54,4.5085,4.4931,4.4574,4.418,4.418,4.418,4.4121,4.3758,4.3629,4.3612,4.3531,4.3515,4.3515,4.3515,4.3319,4.3077,4.2858,4.2502,4.1929,4.0721,4.0319,3.9948,3.9014,3.8747,3.8707,3.8707,3.8707,3.8707,3.8707,3.8707,3.8707,3.8707,3.8707,3.8487,3.7915,3.7639,3.7199,3.6376,3.5752,3.5353,3.5353,3.4601,3.4137,3.4137,3.3917,3.3807,3.3807,3.3807,3.3807,3.3807,3.3807,3.3807,3.3807,3.3807,3.3807,3.3807,3.3807,3.3917,3.7092,3.7051,3.7383,3.916,3.9529,3.9898,4.1569,4.2546,4.3313,4.4149,4.4987,4.5584,4.5593,4.5612,4.566,4.5776,4.5809,4.5809,4.5809,4.5967,4.6047,4.592,4.6144,4.6308,0.0,4.6308,4.6308,4.6308,4.6308,4.6308,4.6308,4.6308,4.6308,4.6289,4.6042,4.5903,4.5894,4.5694,4.5603,4.5594,4.5594,4.5594,4.5594,4.5594,4.5594,4.5594,4.5594,4.5594,4.5594,4.5594,4.5594,4.5594,4.5594,4.54,4.5148,4.5448,4.515,4.458,4.458,4.458,4.4514,4.4102,4.3967,4.3924,4.3597,4.3515,4.3515,4.3515,4.3724,4.3778,4.3003,4.2791,4.2436,4.1099,4.0356,3.9749,3.9222,3.8865,3.8707,3.8707,3.8707,3.8707,3.8707,3.8707,3.8707,3.8707,3.8707,3.8689,3.867,3.7988,3.7199,3.6376,3.6266,3.6266,3.6266,3.5463,3.4968,3.4968,3.4215,3.3807,3.3807,3.3807,3.3807,3.3807,3.3807,3.3807,3.3807,3.3807,3.3807,3.3807,3.3807,3.4229,3.7058,3.7856,3.8815,3.9367,4.0313,4.1345,4.2162,4.2967,4.3808,4.466,4.5061,4.5332,4.5559,4.5594,4.562,4.5657,4.5665,4.5692,4.5783,4.5896,4.5985,4.6033,4.6198,0.0,0.0,0.0,0.0,4.6308,4.6308,4.6308,4.6308,4.6308,4.6268,4.6173,4.608,4.5979,4.5825,4.5769,4.5696,4.5594,4.5594,4.5594,4.5594,4.5594,4.5594,4.5594,4.5594,4.5594,4.5594,4.5594,4.5594,4.5594,4.5594,4.5522,4.5457,4.5559,4.5448,4.5232,4.5,4.4931,4.4884,4.4508,4.4219,4.3986,4.3865,4.3679,4.3515,4.3515,4.358,4.3607,4.3332,4.3256,4.3028,4.2029,4.1636,4.116,3.9902,3.9568,3.9331,3.8799,3.8707,3.8707,3.8707,3.8707,3.8707,3.8707,3.8707,3.8707,3.8707,3.8469,3.8193,3.7918,3.7404,3.7107,3.7107,3.634,3.561,3.5041,3.4747,3.4362,3.3825,3.3807,3.3807,3.3807,3.3807,3.3807,3.3807,3.3807,3.3807,3.3807,3.4344,3.4747,3.7934,3.8902,3.9957,4.0069,4.1159,4.2299,4.2677,4.3225,4.3905,4.4903,4.5096,4.5201,4.555,4.5594,4.5594,4.5594,4.5594,4.5651,4.5776,4.5855,4.594,4.6082,4.6223,4.6308,0.0,0.0,0.0,4.6308,4.6308,4.6308,4.6308,4.6248,4.6198,4.6091,4.604,4.5935,4.5803,4.5754,4.5696,4.5594,4.5594,4.5594,4.5594,4.5594,4.5594,4.5594,4.5594,4.5594,4.5594,4.5594,4.5594,4.5594,4.5594,4.5594,4.5594,4.5594,4.5594,4.5568,4.5352,4.5292,4.5222,4.4896,4.4521,4.419,4.4043,4.3775,4.3515,4.3515,4.3515,4.3515,4.3515,4.3515,4.3313,4.2488,4.2304,4.1937,4.0616,4.0322,4.0084,3.9276,3.9368,3.9368,3.8799,3.8707,3.8707,3.8707,3.8707,3.8707,3.8707,3.8707,3.8707,3.8707,3.823,3.7933,3.7933,3.7199,3.6486,3.5922,3.561,3.5224,3.4706,3.4688,3.4688,3.4688,3.4688,3.4688,3.4688,3.4688,3.4688,3.4706,3.522,3.561,3.9591,4.0093,4.0734,4.1297,4.1982,4.2672,4.3152,4.3315,4.3693,4.4847,4.5085,4.5201,0.0,0.0,4.5594,4.5594,4.5603,4.5668,4.579,4.5871,4.5967,0.0,0.0,0.0,0.0,0.0,0.0,4.6426,0.0,4.6308,4.6289,4.6173,4.6106,4.608,4.5896,4.5796,4.579,4.5657,4.5594,4.5594,4.5594,4.5594,4.5594,4.5594,4.5594,4.5594,4.5594,4.5594,4.5594,4.5594,4.5594,4.5594,4.5594,4.5594,4.5594,4.5594,4.5594,4.5594,4.5594,4.5594,4.5559,4.5232,4.4896,4.4553,4.4146,4.3788,4.3513,4.3496,4.3515,4.3515,4.3515,4.3515,4.3296,4.2543,4.2359,4.2139,4.1334,4.115,4.0912,4.012,4.0579,4.0618,3.9093,3.8799,3.8762,3.8762,3.8726,3.8707,3.8707,3.8707,3.8707,3.8707,3.8707,3.8707,3.8707,3.7991,3.7547,3.7492,3.6795,3.634,3.6303,3.6303,3.6303,3.6303,3.6303,3.6303,3.6303,3.6303,3.6303,3.6303,3.634,3.6776,3.9988,4.0928,4.1961,4.1881,4.2479,4.3064,4.2955,4.3613,4.436,4.4657,4.4919,4.5201,4.555,4.5594,4.5594,4.5594,4.5669,0.0,4.5852,4.5971,0.0,4.6226,0.0,4.7266,4.7266,4.7851,0.0,0.0,4.7031,4.6267,4.6168,4.6117,4.6021,4.5889,4.5828,4.5754,4.564,4.562,4.5594,4.5594,4.5594,4.5594,4.5594,4.5594,4.5594,4.5594,4.5594,4.5594,4.5594,4.5594,4.5594,4.5594,4.5594,4.5594,4.5594,4.5594,4.5594,4.5594,4.5594,4.5594,4.5586,4.5504,4.5243,4.4908,4.4553,4.418,4.3836,4.3563,4.3515,4.3515,4.3515,4.3515,4.346,4.3239,4.3185,4.2965,4.2176,4.1992,4.1772,4.0948,4.0948,4.0967,4.0563,3.9992,3.9588,3.9588,3.9074,3.8707,3.8707,3.8707,3.8707,3.8707,3.8707,3.8707,3.8707,3.8505,3.8138,3.7547,3.7309,3.6942,3.6321,3.6303,3.6303,3.6303,3.6303,3.6303,3.6303,3.6303,3.6303,3.6303,3.6905,3.7309,4.0893,4.184,4.2756,4.2425,4.2982,4.3554,4.336,4.3862,4.4428,4.4745,4.4966,4.5201,4.555,4.5594,4.5594,4.5594,4.5715,4.582,4.5885,4.6024,4.6284,0.0,4.7305,0.0,4.8125,4.8613,4.8906,4.8906,4.7988,4.7223,4.6698,4.661,4.6344,4.5829,4.574,4.568,4.5594,4.5594,4.5594,4.5594,4.5594,4.5594,4.5594,4.5594,4.5594,4.5594,0.0,4.5594,4.5594,4.5594,4.5594,4.5594,4.5594,4.5594,4.5594,4.5594,4.5594,4.5594,4.5594,4.5594,4.5594,4.5594,4.5362,4.5041,4.4695,4.4304,4.3924,4.3597,4.3515,4.3515,4.3515,4.3515,4.3515,4.3515,4.3515,4.3386,4.291,4.2818,4.269,4.2249,4.1572,4.1205,4.1572,4.0965,4.0304,3.9937,3.9827,3.9515,3.8799,3.8707,3.8707,3.8707,3.8707,3.8707,3.8707,3.8707,3.8505,3.8046,3.8028,3.7808,3.7367,3.7349,3.7349,3.7349,3.7349,3.7349,3.7349,3.7349,3.7349,3.7367,3.7808,3.8028,4.1977,4.2729,4.3302,4.2981,4.3438,4.4001,4.4001,4.399,4.4218,4.4958,4.5055,4.513,4.5521,4.5594,4.5594,4.5594,4.5715,4.5859,4.6041,4.6183,4.6655,4.7656,4.7871,4.8242,4.9004,4.918,4.9238,4.9238,4.9238,4.8745,4.7604,4.7322,4.6756,4.5789,4.5657,4.5594,4.5594,4.5594,4.5594,4.5594,4.5594,4.5594,4.5594,4.5594,4.5594,4.5594,4.5594,4.5594,4.5594,4.5594,4.5594,4.5594,4.5594,4.5594,4.5594,4.5594,4.5594,4.5594,4.5594,4.5594,4.5594,4.5594,4.541,4.5096,4.4776,4.4414,4.4058,4.3679,4.3582,4.3565,4.3496,4.3515,4.3515,4.3515,4.3515,4.3515,4.3515,4.3515,4.3515,4.3515,4.2378,4.1644,4.2341,4.1791,4.102,4.0322,4.0726,4.06,3.9203,3.8927,3.8817,3.8707,3.8707,3.8707,3.8707,3.8707,3.8707,3.8707,3.8707,3.8707,3.8707,3.8707,3.8707,3.8707,3.8707,3.8707,3.8707,3.8707,3.8707,3.8707,3.8707,3.8707,4.252,4.3256,4.3811,4.3459,4.3677,4.4001,4.4001,4.4001,0.0,4.4946,4.4832,4.4816,4.5486,4.5594,4.5594,4.5594,4.5715,4.6072,4.6863,4.7083,4.7554,0.0,4.9316,4.9805,4.9961,5.0586,5.0976,5.0976,5.0976,5.0183,4.8394,4.759,4.6713,4.5662,4.5612,4.5594,4.5594,4.5594,4.5594,4.5594,4.5594,4.5594,4.5594,4.5594,4.5594,4.5594,4.5594,0.0,4.5594,4.5594,4.5594,4.5594,4.5594,4.5594,4.5594,4.5594,4.5594,4.5594,4.5594,4.5594,4.5594,4.5594,4.5568,4.5448,4.5107,4.4966,4.4762,4.4102,4.3909,4.3849,4.3563,4.3515,4.3515,4.3515,4.3515,4.3515,4.3515,4.3515,4.3515,4.3515,4.3276,4.313,4.3276,4.2616,4.2047,4.1901,4.1442,4.1003,4.071,4.0102,3.9441,3.8781,3.8707,3.8707,3.8707,3.8707,3.8707,3.8707,3.8707,3.8707,3.8707,3.8707,3.8707,3.8707,3.8707,3.8707,3.8707,3.8707,3.8707,3.8707,3.8707,3.8707,4.2915,4.3449,4.3693,4.3548,4.374,4.3949,4.369,0.0,0.0,4.4039,4.3925,4.3929,4.4243,4.4643,4.4913,4.4913,4.5425,4.6137,4.7081,4.7317,4.7945,4.9394,4.9941,5.0351,5.0781,5.1172,5.1406,5.1406,5.1406,5.0773,4.9364,4.7965,4.6965,4.6448,4.599,4.5937,4.631,4.5912,4.5896,4.6278,4.5825,4.5594,4.5594,4.5594,4.5594,4.5594,4.5594,4.5594,4.5594,4.5594,4.5594,4.5594,4.5594,4.5594,4.5594,4.5594,4.5594,4.5594,4.5594,4.5594,4.5594,4.5594,4.5594,4.555,4.5201,4.5096,4.4988,4.4455,4.4161,4.3971,4.3804,4.3629,4.3515,4.3515,4.3515,4.3515,4.3515,4.3515,4.3515,4.3515,4.3515,4.3515,4.3515,4.3167,4.2782,4.2359,4.2323,4.2047,4.1205,4.113,4.0836,4.0031,3.957,3.9313,3.9313,3.8946,3.8707,3.8707,3.8707,3.8707,3.8707,3.8707,3.8707,3.8707,3.8707,3.8707,3.8707,3.8707,3.8707,3.8707,3.8707,3.8707,4.2919,4.3369,4.3513,4.3597,4.3865,4.3994,4.3517,4.3624,4.3687,4.3209,4.3028,4.2982,4.3088,4.3758,4.4297,0.0,4.5117,4.6158,4.7291,4.7521,4.8284,5.0191,5.0408,5.0663,5.1348,5.1406,5.1406,5.1406,5.123,5.0738,4.9768,4.8304,4.7309,4.6939,4.6253,4.6168,4.6738,4.6125,4.6073,4.6605,4.5932,4.5594,4.5594,4.5594,4.5594,4.5594,4.5594,4.5594,4.5594,4.5594,4.5594,4.5594,4.5594,4.5594,4.5594,4.5594,4.5594,4.5594,4.5594,4.5594,4.5594,4.5594,4.5594,4.5559,4.5292,4.5211,4.5129,4.4793,4.4482,4.4219,4.4146,4.3927,4.3712,4.3631,4.3546,4.3515,4.3515,4.3515,4.3515,4.3515,4.3515,4.3513,4.3597,4.3614,4.3393,4.2767,4.3209,4.312,4.1791,4.2176,4.2304,4.168,4.0744,4.0084,3.99,3.9313,3.8891,3.8707,3.8854,3.8964,3.8964,3.8964,3.8964,3.8964,3.8799,3.8707,3.8707,3.8707,3.8799,3.8964,3.8964,3.9056,4.2176,4.2928,4.3563,4.3881,4.4247,4.4424,4.387,0.0,4.3232,4.3126,4.2565,4.2305,4.2991,4.3758,4.4297,0.0,0.0,4.6224,4.7952,4.8206,4.8932,5.0884,5.1113,5.1171,5.1386,5.1406,5.1406,5.1406,5.0723,4.9879,4.8868,4.8534,4.7654,4.6078,4.5938,4.5896,4.5919,4.5841,4.5764,4.5729,4.5633,4.5594,4.5594,4.5594,4.5594,4.5594,4.5594,4.5594,0.0,4.5594,4.5594,4.5594,4.5594,4.5594,4.5594,4.5594,4.5594,4.5594,4.5594,4.5594,4.5594,4.5594,4.5594,4.5586,4.5568,4.5559,4.5485,4.514,4.5041,4.4931,4.4618,4.4514,4.4406,4.4046,4.3726,4.3515,4.3515,4.3515,4.3515,4.3515,4.3515,4.3597,4.3893,4.3955,4.3937,4.3844,4.3918,4.3778,4.3345,4.3332,4.3368,4.3277,4.1919,4.0689,3.9955,3.9827,3.9478,3.8762,3.9386,3.979,3.979,3.979,3.979,3.979,3.9074,3.8707,3.8707,3.8707,3.9074,3.979,3.979,4.0175,4.2671,4.3259,4.358,4.3927,4.429,4.431,4.3257,4.3115,4.2873,4.1767,4.1375,4.1442,4.2175,4.3008,4.3739,0.0,0.0,0.0,4.7397,4.7578,4.8302,5.0254,5.0484,5.0718,5.1347,5.1406,5.1191,5.0703,5.0371,4.957,4.8118,4.7988,4.8117,4.849,4.7473,4.7387,4.8316,4.7284,4.6911,4.7206,4.6194,4.568,4.5594,4.5594,4.5594,4.5594,4.5594,4.5594,0.0,4.5594,4.5594,4.5594,4.5594,4.5594,4.5594,4.5594,4.5594,4.5594,4.5594,4.5594,4.5594,4.5594,4.5594,4.5594,4.5594,4.5594,4.5577,4.5438,4.5272,4.5074,4.4931,4.4745,4.4553,4.4406,4.4266,4.4169,4.4169,4.4169,4.4169,4.4169,4.4169,4.4194,4.435,4.4346,4.4276,4.4046,4.4001,4.3881,4.3548,4.3515,4.3515,4.3515,4.2488,4.1699,4.1368,4.091,4.0506,4.0159,4.0451,4.0616,4.0616,4.0616,4.0616,4.0616,4.0306,4.0141,4.0141,4.0347,4.0514,4.0634,4.0824,4.0979,4.2488,4.313,4.3614,4.4061,4.4392,4.426,4.2973,4.2931,4.2734,4.1193,4.0966,4.1259,4.2032,4.2874,4.3649,0.0,0.0,4.5949,4.6925,4.704,4.765,4.9305,4.9523,4.9928,5.0842,5.0969,5.0662,4.9863,4.957,4.8906,4.7676,4.7363,4.7891,4.9375,4.8242,4.814,4.9211,4.8003,4.7455,4.7546,4.6364,4.5725,4.5594,4.5594,4.5594,4.5594,4.5594,4.5594,0.0,4.5594,4.5594,4.5594,4.5594,4.5594,4.5594,4.5594,4.5594,4.5594,4.5594,4.5594,4.5594,4.5594,4.5594,4.5594,4.5594,4.5594,4.5594,4.5594,4.5429,4.5243,4.5243,4.4988,4.4751,4.4751,4.467,4.4593,4.4593,4.4593,4.4593,4.4593,4.4593,4.4618,4.472,4.4751,4.4657,4.4373,4.4332,4.4161,4.371,4.3646,4.3614,4.3496,4.2983,4.2561,4.2323,4.1791,4.1352,4.1113,4.1315,4.1444,4.1444,4.1444,4.1444,4.1444,4.1224,4.1095,4.1095,4.1438,4.1534,4.146,4.1805,4.1905,4.1113,4.2286,4.3681,4.4406,4.4612,4.434,4.3318,4.3104,4.2854,4.197,4.1797,4.2047,4.2931,4.3739,4.4333,4.4473,0.0,0.0,4.6858,4.6934,4.7259,4.821,4.843,4.8865,4.9731,4.9933,4.9702,4.8965,4.8105,0.0,4.7598,4.6777,4.6719,4.7598,4.7617,4.7535,4.744,4.7418,4.6874,4.5841,4.5822,4.5725,4.5594,4.5594,4.5594,4.5594,4.5594,4.5594,0.0,4.5594,4.5594,4.5594,4.5594,4.5594,4.5594,4.5594,4.5594,4.5594,4.5594,4.5594,4.5594,4.5594,4.5594,4.5594,4.5594,4.5594,4.5594,4.5594,4.5594,4.5586,4.5586,4.5342,4.5096,4.5096,4.4849,4.4593,4.4593,4.4593,4.4593,4.4593,4.4593,4.4714,4.5041,4.5096,4.5096,4.5085,4.5085,4.483,4.4087,4.3982,4.3865,4.3531,4.3496,4.3167,4.2378,4.2286,4.1956,4.115,4.1864,4.2286,4.2286,4.2286,4.2286,4.2286,4.1499,4.1095,4.1095,4.1438,4.1831,4.2303,4.264,4.3036,4.0802,4.1462,4.2039,4.2733,4.2882,4.2768,4.2321,4.2662,4.2854,4.1981,4.2277,4.2951,4.3778,4.4124,4.4515,4.5147,4.5445,0.0,0.0,4.6534,4.7251,4.8183,4.9508,5.0449,5.0722,5.0387,4.9757,4.8826,4.8043,4.7344,4.6738,4.6445,4.6973,4.8437,4.791,4.7871,4.8414,4.7748,4.7177,4.6741,4.6111,4.5725,4.5594,4.5594,4.5594,4.5594,4.5594,4.5594,4.5594,4.5594,4.5594,4.5594,4.5594,4.5594,4.5594,4.5594,4.5594,4.5594,4.5594,4.5594,4.5594,4.5594,4.5594,4.5594,4.5594,4.5594,4.5594,4.5594,4.5594,4.5594,4.5594,4.5513,4.5438,4.5438,4.5362,4.5283,4.5283,4.5283,4.5283,4.5283,4.5283,4.5322,4.5419,4.5438,4.5362,4.5129,4.5096,4.4931,4.4455,4.4161,4.3955,4.3849,4.3629,4.3387,4.313,4.3112,4.3002,4.2763,4.2983,4.3112,4.3112,4.3112,4.3112,4.3112,4.2873,4.2745,4.2727,4.3073,4.3323,4.3463,4.3338,4.3356,4.0092,4.0967,4.143,4.1957,4.2174,4.2172,4.1859,4.222,4.2547,4.2335,4.272,4.3451,4.4586,4.4834,4.5044,4.5584,4.568,4.568,4.568,4.6369,4.7251,4.8196,4.9612,5.0586,5.0725,5.0022,4.9348,4.8808,4.7731,4.6875,4.6328,4.6308,4.6797,4.7871,4.7715,4.7831,4.8334,4.7709,4.7155,4.6653,4.6086,4.5725,4.5594,4.5594,4.5594,4.5594,4.5594,4.5594,0.0,4.5594,4.5594,4.5594,4.5594,4.5594,4.5594,4.5594,4.5594,4.5594,4.5594,4.5594,4.5594,4.5594,4.5594,4.5594,4.5594,4.5594,4.5594,4.5594,4.5594,4.5594,4.5594,4.5594,4.5594,4.5594,4.5594,4.5594,4.5594,4.5594,4.5594,4.5594,4.5594,4.5594,4.5594,4.5594,4.5522,4.5322,4.5292,4.518,4.4837,4.4574,4.4373,4.4233,4.3896,4.3677,4.3677,4.3563,4.3515,4.3515,4.3515,4.3515,4.3515,4.3515,4.3515,4.3515,4.3515,4.3515,4.3515,4.371,4.3881,4.4001,4.3662,4.3515,0.0,4.053,4.1465,4.1858,4.2136,4.222,4.1797,4.175,0.0,4.2852,4.3129,4.3676,4.5252,4.5687,4.5816,4.5803,4.5803,4.5796,4.5783,4.6425,4.7281,4.8355,4.8988,4.9502,4.9942,4.9033,4.8529,4.8768,4.7246,4.6308,4.6308,4.6308,4.6308,4.6308,4.709,4.7436,4.7303,4.7294,4.6781,4.5803,4.579,4.573,4.5594,4.5594,4.5594,0.0,4.5594,4.5594,4.5594,4.5594,4.5594,4.5594,4.5594,4.5594,4.5594,4.5594,4.5594,4.5594,4.5594,4.5594,4.5594,4.5594,4.5594,4.5594,4.5594,4.5594,4.5594,4.5594,4.5594,4.5594,4.5594,4.5594,4.5594,4.5594,4.5594,4.5594,4.5594,4.5594,4.5594,4.5594,4.5594,4.5594,4.5594,4.5594,4.5594,4.5594,4.5594,4.5495,4.518,4.5107,4.4977,4.4657,4.4276,4.4028,4.3998,4.3693,4.3515,4.3515,4.3515,4.3515,4.3515,4.3515,4.3515,4.3515,4.3515,4.3515,4.3515,4.3515,4.3662,4.3955,4.3646,4.3515,3.7474,0.0,3.9322,4.0327,4.0623,4.0702,0.0,4.1316,4.1894,4.2194,4.3279,4.4324,4.4827,4.5444,4.5861,4.5803,4.5803,4.5749,4.5657,4.6371,4.7733,5.0008,4.9265,4.8897,4.977,4.8513,4.7677,4.7742,4.6851,4.6308,4.6308,4.6308,4.6308,4.6308,4.6395,4.6435,4.6403,4.6249,4.6052,4.5796,4.5692,4.5627,4.5594,4.5594,4.5594,4.5594,4.5594,4.5594,4.5594,4.5594,4.5594,4.5594,4.5594,4.5594,4.5594,4.5594,4.5594,4.5594,4.5594,4.5594,4.5594,4.5594,4.5594,4.5594,4.5594,4.5594,4.5594,4.5594,4.5594,4.5594,4.5594,4.5594,4.5594,4.5594,4.5594,4.5594,4.5594,4.5594,4.5594,4.5594,4.5594,4.5594,4.5594,4.5594,4.5594,4.5594,4.5594,4.5568,4.5495,4.5253,4.5074,4.4988,4.467,4.4318,4.4031,4.3693,4.3515,4.3515,4.3515,4.3515,4.3515,4.3515,4.3515,4.3515,4.3515,4.3515,4.3515,4.3515,4.3548,4.3631,4.3531,4.3515,3.6668,3.77,3.8775,3.9428,4.0015,4.0447,4.0603,4.1009,4.1472,4.1939,4.2775,4.3675,4.4539,4.5079,4.5488,4.5797,4.5853,4.5925,4.6157,4.6605,4.7573,4.9399,4.8778,4.8467,4.9143,4.8055,4.7357,4.7482,4.6755,4.6308,4.6308,4.6308,4.6308,4.6308,4.6113,4.6001,4.6001,4.5864,4.5775,4.5708,4.5635,4.5594,4.5594,4.5594,4.5594,4.5594,4.5594,4.5594,4.5594,4.5594,4.5594,4.5594,4.5594,4.5594,4.5594,4.5594,4.5594,4.5594,4.5594,4.5594,4.5594,4.5594,4.5594,4.5594,4.5594,4.5594,4.5594,4.5594,4.5594,4.5594,4.5594,4.5594,4.5594,4.5594,4.5594,4.5594,4.5594,4.5594,4.5594,4.5594,4.5594,4.5594,4.5594,4.5594,4.5594,4.5594,4.5594,4.5594,4.5594,4.5438,4.5332,4.5332,4.5041,4.4682,4.4304,4.3943,4.3662,4.3496,4.3515,4.3515,4.3515,4.3515,4.3515,4.3515,4.3515,4.3515,4.3515,4.3515,4.3515,4.3515,4.3515,4.3515,3.6383,3.7694,3.8917,3.9026,3.9936,4.0781,4.0781,0.0,0.0,0.0,0.0,0.0,0.0,4.4699,4.5063,4.5784,4.5867,4.6104,4.6812,4.6797,4.7048,4.799,4.7875,4.7862,4.8268,4.7514,4.7112,4.7382,4.6719,4.6308,4.6308,4.6308,4.6289,4.6268,4.6033,4.589,4.5872,4.5808,4.5715,4.5594,4.5594,4.5594,4.5594,4.5594,4.5594,4.5594,0.0,0.0,4.5594,4.5594,4.5594,4.5586,4.5531,4.5522,4.5522,4.5522,4.5522,4.5522,4.5577,4.5594,4.5594,4.5594,4.5594,4.5594,4.5594,4.5594,4.5594,4.5594,4.5594,4.5594,4.5594,4.5594,4.5594,4.5594,4.5594,4.5594,4.5594,4.5594,4.5594,4.5594,4.5594,4.5594,4.5594,4.5559,4.5522,4.5522,4.5485,4.5476,4.5513,4.5522,4.5531,4.5586,4.5342,4.5052,4.4695,4.4318,4.394,4.3597,4.3531,4.3515,4.3515,4.3515,4.3515,4.3515,4.3515,4.3515,4.3515,4.3515,4.3515,4.3515,4.3515,4.3515,3.6607,3.7618,3.8556,3.917,4.0031,4.0728,4.0728,4.0728,0.0,0.0,0.0,0.0,0.0,4.4451,4.5161,4.5796,4.5751,4.594,4.6787,4.6259,4.6374,4.7913,4.6855,4.6364,4.731,4.6619,4.6216,4.6484,4.6387,4.6308,4.6308,4.6308,4.6247,4.6122,4.5981,4.5867,4.5821,4.5692,4.5629,4.5594,4.5594,4.5594,4.5594,4.5594,4.5594,4.5594,0.0,4.5594,4.5594,4.5594,4.5594,4.5568,4.5292,4.518,4.518,4.518,4.518,4.5222,4.5504,4.5594,4.5594,4.5594,4.5594,4.5594,4.5594,4.5594,4.5594,4.5594,4.5594,4.5594,4.5594,4.5594,4.5594,4.5594,4.5594,4.5594,4.5594,4.5594,4.5594,4.5594,4.5594,4.5594,4.5594,4.5362,4.518,4.518,4.4931,4.4861,4.5129,4.518,4.5292,4.5568,4.5559,4.54,4.5052,4.4707,4.4332,4.394,4.3662,4.3515,4.3515,4.3515,4.3515,4.3515,4.3515,4.3515,4.3515,4.3515,4.3515,4.3515,4.3515,4.3515,3.6229,3.7391,3.8535,3.8789,3.9819,4.0746,4.0746,4.1167,0.0,0.0,0.0,0.0,0.0,4.4664,4.5094,4.574,4.5764,4.5823,4.6142,4.5845,4.5902,4.6663,4.6119,4.5912,4.6445,4.6204,4.6084,4.6289,4.6308,4.6308,4.6308,4.6225,4.6152,4.6091,4.5938,4.5838,4.5803,4.5665,4.5594,4.5594,4.5594,4.5594,4.5594,4.5594,4.5594,4.5594,0.0,4.5594,4.5594,4.5594,4.5594,4.5568,4.5232,4.5096,4.5096,4.5096,4.5096,4.5118,4.5282,4.5438,4.5531,4.5171,4.5171,4.5302,4.5118,4.5055,4.5055,4.5055,4.5332,4.5594,4.5594,4.5594,4.5594,4.5594,4.5594,4.5594,4.5594,4.5594,4.5594,4.5594,4.5448,4.5332,4.5332,4.5044,4.4837,4.4837,4.4714,4.4707,4.5063,4.5096,4.5222,4.5568,4.5594,4.5457,4.5118,4.4954,4.4535,4.3772,4.358,4.3515,4.3515,4.3515,4.3515,4.3515,4.3515,4.3515,4.3515,4.3515,4.3515,4.3515,4.3515,4.3515,3.6126,3.7202,3.8276,3.8367,0.0,4.0655,4.1068,4.1588,0.0,0.0,0.0,0.0,0.0,4.5037,4.5222,4.5739,4.577,4.5723,4.562,4.5594,4.5594,4.5594,4.5723,4.5826,4.589,4.603,4.6168,4.6289,4.6308,4.6308,4.6308,4.6174,4.6082,4.6047,4.5885,4.5783,4.5754,4.566,4.5594,4.5594,4.5594,4.5594,4.5594,4.5594,4.5594,4.5594,4.5594,4.5594,4.5594,4.5594,4.5594,4.5568,4.5232,4.5167,4.522,4.4941,4.5136,4.5487,4.511,4.5273,4.5531,4.4833,4.4669,4.473,4.4465,4.4293,4.4186,4.4186,4.4543,4.5008,4.5294,4.5362,4.5362,4.5362,4.5362,4.5362,4.5362,4.5362,4.5362,4.5362,4.515,4.4977,4.4977,4.4695,4.446,4.446,4.4392,4.4501,4.4931,4.4977,4.514,4.5559,4.5594,4.5429,4.503,4.4908,4.4455,4.3565,4.3563,4.358,4.3496,4.3515,4.3515,4.3515,4.3515,4.3515,4.3515,4.3515,4.3515,4.3515,4.3515,4.3548,3.6879,3.7168,3.7404,3.82,3.9095,4.0207,4.1811,4.1618,0.0,4.324,0.0,0.0,0.0,4.5458,4.5849,4.587,4.575,4.5612,4.5594,4.5594,4.5594,4.5594,4.5723,4.5826,4.589,4.603,4.6168,4.6289,4.6308,4.6308,4.6308,4.6174,4.6042,4.5916,4.583,4.574,4.562,4.5603,4.5594,4.5594,4.5594,4.5594,4.5594,4.5594,4.5594,4.5594,4.5594,4.5594,4.5594,4.5594,4.5594,4.5568,4.5232,4.5371,4.5609,4.4485,4.5265,4.6655,4.5147,4.5141,4.5638,4.487,4.4247,4.3793,4.3763,4.3376,4.2938,4.2938,4.2953,4.3251,4.4388,4.467,4.467,4.467,4.467,4.467,4.467,4.467,4.467,4.467,4.4644,4.465,4.465,4.4304,4.4028,4.4028,4.3772,4.3839,4.454,4.465,4.4877,4.5522,4.5594,4.5342,4.4682,4.429,4.3909,4.3513,4.3788,4.3818,4.3513,4.3515,4.3515,4.3515,4.3515,4.3515,4.3515,4.3515,4.3515,4.3515,4.3515,4.3679,3.6167,3.7061,3.7987,3.8319,3.9121,0.0,0.0,4.2025,4.2955,4.4183,4.4919,0.0,0.0,4.5796,4.5896,4.5847,4.5711,4.5594,4.5594,4.5594,4.5594,4.5594,4.577,4.5867,4.5894,4.6108,4.6247,4.6308,4.6308,4.6308,4.6308,4.6087,4.5944,4.5903,4.5744,4.566,4.5594,4.5594,4.5594,4.5594,4.5594,4.5594,4.5594,4.5594,4.5594,4.5594,4.5594,4.5594,4.5577,4.5381,4.5292,4.529,4.5205,4.5129,4.5162,4.5406,4.5979,4.6426,4.4981,4.4799,4.4983,4.3372,4.2849,4.2794,4.2575,4.2366,4.2192,4.2192,4.2192,4.2464,4.371,4.4031,4.414,4.4503,4.4593,4.4593,4.4593,4.4307,4.4031,4.4031,4.3568,4.3159,4.3159,4.317,4.3194,4.3194,4.3373,4.3679,4.4146,4.4219,4.4414,4.4912,4.4977,4.4884,4.4618,4.446,4.4223,4.3818,4.3742,4.3629,4.3515,4.3515,4.3515,4.3515,4.3515,4.3515,4.3515,4.3515,4.3614,4.382,4.382,4.4001,3.5401,3.6477,3.7718,3.7973,0.0,0.0,4.0708,4.2128,4.3557,4.471,4.566,4.6268,4.6175,0.0,0.0,4.5836,4.5703,4.562,4.5668,4.5637,4.562,4.5648,4.5799,4.5899,4.5899,4.6145,4.6308,4.6308,4.6308,4.6308,4.6308,4.6042,4.5899,4.5899,4.5694,4.5594,4.5594,4.5594,4.5594,4.5594,4.5594,4.5594,4.5594,4.5594,4.5531,4.5438,4.5438,4.5371,4.5263,4.5041,4.4943,4.4922,4.4847,4.4864,4.4966,4.516,4.5733,4.6122,4.4234,4.4054,4.4327,4.2417,4.1834,4.181,4.159,4.1402,4.1263,4.1263,4.1263,4.1503,4.254,4.2952,4.3195,4.3632,4.3714,4.3714,4.3714,4.3381,4.3109,4.3109,4.2576,4.2153,4.2153,4.2277,4.248,4.2655,4.3014,4.3424,4.394,4.4001,4.4146,4.4553,4.4487,4.4419,4.4419,4.4308,4.4154,4.3849,4.3631,4.3515,4.3515,4.3515,4.3515,4.3515,4.3515,4.3515,4.3515,4.3515,4.3679,4.4001,4.4001,4.4276,3.4817,3.5286,3.6211,3.707,0.0,0.0,4.0801,4.1816,4.2891,4.4648,4.5683,4.6289,4.6308,4.608,0.0,4.5899,4.5724,4.5651,4.5769,4.5669,4.566,4.5776,4.5861,4.5899,4.5899,4.6145,4.6308,4.6308,4.6308,4.6308,4.6308,4.6045,4.5903,4.5899,4.572,4.5594,4.5594,4.5594,4.5594,4.5594,4.5594,4.5594,4.5594,4.5594,4.5419,4.5096,4.5096,4.4908,4.4593,4.458,4.458,4.454,4.415,4.4609,4.526,4.3426,4.4267,4.5947,4.2868,4.2798,4.3824,4.2285,4.138,4.088,4.088,4.0504,4.0096,4.0096,4.0096,4.0229,4.0756,4.1335,4.1789,4.181,4.181,4.181,4.181,4.1793,4.181,4.181,4.181,4.1789,4.1771,4.1789,4.1979,4.2596,4.2693,4.3014,4.3875,4.4001,4.4146,4.454,4.4219,4.4001,4.4001,4.3693,4.3515,4.3515,4.3515,4.3515,4.3515,4.3515,4.3515,4.3515,4.3515,4.3515,4.3515,4.3515,4.3679,4.4001,4.4001,4.4401,3.3717,3.4686,3.6134,3.7014,0.0,0.0,0.0,4.1816,0.0,0.0,4.5131,4.5428,4.6053,4.5971,0.0,4.5832,4.5696,4.562,4.564,4.5637,4.562,4.5648,4.5799,4.5899,4.5899,4.6145,4.6308,4.6308,4.6308,4.6308,4.6308,4.6142,4.5995,4.5903,4.5802,4.5692,4.5594,4.5594,4.5594,4.5594,4.5352,4.5362,4.5586,4.5352,4.5201,4.5085,4.4849,4.4682,4.4553,4.3886,4.3478,4.332,4.3855,4.4255,4.4518,4.4531,4.5,4.5292,4.2899,4.2393,4.2533,4.1071,4.049,4.0336,4.0336,4.0229,4.0096,4.0096,4.0096,4.0146,4.0286,4.0466,4.0814,4.1617,4.181,4.1916,4.2342,4.2101,4.181,4.181,4.1468,4.1059,4.0666,4.0914,4.1246,4.1402,4.2162,4.294,4.3579,4.3646,4.3677,4.3807,4.3728,4.3646,4.3646,4.3565,4.3515,4.3515,4.3515,4.3515,4.3515,4.3515,4.3515,4.3515,4.3515,4.3515,4.3515,4.3515,4.3679,4.4001,4.4001,4.4401,3.3742,3.4739,3.6237,3.7448,3.8571,3.9707,4.0918,0.0,0.0,0.0,4.4594,4.4948,4.5451,4.5677,0.0,4.5803,4.5696,4.562,4.5673,4.5627,4.5624,4.5708,4.5825,4.5916,4.5978,4.6174,4.6308,4.6308,4.6308,4.6308,4.6308,4.6174,4.6039,4.5903,4.5825,4.5733,4.5594,4.5594,4.5522,4.54,4.5201,4.5129,4.5211,4.4988,4.4806,4.4638,4.4076,4.3853,4.3772,4.2977,4.253,4.2391,4.2967,4.3424,4.3723,4.3594,4.3979,4.4247,4.2112,4.1552,4.1616,4.0459,4.0096,4.0096,4.0096,4.0096,4.0096,4.0096,4.0096,4.0096,4.0096,4.0096,4.0279,4.0961,4.1326,4.1573,4.1916,4.1895,4.181,4.181,4.1512,4.1155,4.0838,4.1036,4.1335,4.1578,4.2404,4.3124,4.3444,4.3515,4.3515,4.3515,4.3515,4.3515,4.3515,4.3515,4.3515,4.3515,4.3515,4.3515,4.3515,4.3515,4.3515,4.3515,4.3515,4.3515,4.3515,4.3515,4.3679,4.4001,4.4001,4.4332,3.4282,3.5069,3.6309,3.8047,3.8652,3.9258,4.082,4.1758,4.2475,4.316,0.0,4.4674,4.4686,4.5287,4.5776,4.5776,4.5688,4.5643,4.5756,4.568,4.5673,4.5877,4.5894,4.5944,4.6084,4.6223,4.6308,4.6308,4.6308,4.6308,4.6308,4.6177,4.6047,4.5903,4.5842,4.5747,4.5594,4.5568,4.541,4.5096,4.5022,4.483,4.454,4.454,4.4304,4.3828,4.2978,4.2616,4.2577,4.1958,4.1707,4.1725,4.1731,4.2265,4.2859,4.1449,4.1901,4.2885,4.0815,4.0578,4.1085,4.035,4.0146,4.0197,4.013,4.0096,4.0096,4.0096,4.0096,4.0096,4.0096,4.0096,4.0121,4.0171,4.0587,4.1001,4.1041,4.149,4.1874,4.1874,4.1874,4.1874,4.181,4.181,4.2,4.2616,4.3105,4.3444,4.3479,4.3515,4.3515,4.3515,4.3515,4.3515,4.3515,4.3515,4.3515,4.3515,4.3515,4.3515,4.3515,4.3515,4.3515,4.3515,4.3515,4.3515,4.3515,4.3515,4.3662,4.3955,4.3955,4.418,3.2701,3.3739,3.5391,3.7148,3.9121,4.0702,4.0978,4.1264,4.1658,4.2399,4.3163,4.3867,4.4447,4.5146,4.5643,4.5643,4.5629,4.5612,4.5643,4.562,4.5657,4.579,4.5881,4.5944,4.6084,4.6223,4.6308,4.6308,4.6308,4.6308,4.6308,4.6269,4.6147,4.5907,4.5896,4.5795,4.5594,4.5342,4.518,4.5096,4.4503,4.4204,4.4117,4.4117,4.3698,4.2941,4.2286,4.1979,4.1937,4.1335,4.1087,4.1094,4.127,4.1452,4.158,4.1257,4.1341,4.1525,4.0485,4.0578,4.1085,4.035,4.0476,4.0849,4.0282,4.0096,4.0096,4.0096,4.0096,4.0096,4.0096,4.0096,4.0204,4.0631,4.0827,4.1196,4.2121,4.2402,4.25,4.25,4.25,4.2362,4.1874,4.181,4.2,4.2616,4.2807,4.3014,4.3444,4.3515,4.3515,4.3515,4.3515,4.3515,4.3515,4.3515,4.3515,4.3515,4.3515,4.3515,4.3515,4.3515,4.3515,4.3515,4.3515,4.3515,4.3515,4.3515,4.3531,4.3614,4.3614,4.3788,3.3128,3.3957,0.0,3.7383,0.0,4.1171,4.1105,4.115,4.1287,4.1612,4.2591,4.3491,4.3826,4.4828,4.5594,4.5594,4.5594,4.5594,4.5594,4.5668,4.5728,4.5836,4.5931,4.6045,4.6177,4.6268,4.6308,4.6308,4.6246,4.6226,4.6308,4.6175,4.6042,4.5903,4.5862,4.577,4.5594,4.5282,4.503,4.4861,4.4276,4.3927,4.374,4.3488,4.3123,4.2655,4.1768,4.138,4.1335,4.075,4.0521,4.0531,4.0629,4.0882,4.117,4.0798,4.0899,4.1085,4.0367,4.0367,4.0595,4.0231,4.0367,4.0595,4.0231,4.0096,4.0096,4.0096,4.0096,4.0096,4.0096,4.0096,4.0229,4.078,4.1133,4.1578,4.25,4.2902,4.3069,4.3069,4.3069,4.2977,4.2676,4.262,4.2715,4.3032,4.3069,4.3178,4.3462,4.3515,4.3515,4.3515,4.3515,4.3515,4.3515,4.3515,4.3515,4.3515,4.3864,4.4066,4.4066,4.4163,4.3981,4.3497,4.3515,4.3781,4.4348,4.4348,4.4647,4.5221,4.5221,4.5327,3.3782,3.4661,3.5703,3.8027,3.9902,0.0,4.1191,4.1191,4.1171,4.1054,4.2184,4.3173,4.3022,4.4218,4.5263,4.5384,4.5415,4.5456,4.5575,4.5723,4.582,4.5885,4.6027,4.6149,4.6289,4.6308,4.6289,4.6268,4.6152,4.6144,4.6224,4.6027,4.589,4.5891,4.5832,4.5711,4.5513,4.5191,4.4849,4.4487,4.4106,4.3724,4.3339,4.2789,4.2539,4.248,4.1268,4.0756,4.0726,4.0286,4.0096,4.0096,4.0096,4.046,4.0933,4.0333,4.0476,4.0916,4.0316,4.018,4.0282,4.0146,4.0197,4.0299,4.0299,4.0299,4.0299,4.0299,4.0358,4.0424,4.0288,4.0311,4.0521,4.1064,4.1599,4.2101,4.2596,4.3124,4.3515,4.3515,4.3515,4.3515,4.3515,4.3515,4.3515,4.3515,4.3515,4.3515,4.3515,4.3515,4.3551,4.3681,4.3699,4.3754,4.39,4.3901,4.3901,4.3901,4.4544,4.4911,4.4911,4.4972,4.4604,4.3778,4.376,4.4245,4.5257,4.534,4.5941,4.701,4.701,4.7018,3.2439,0.0,3.7226,0.0,3.9902,4.1191,0.0,0.0,4.1191,0.0,4.1854,4.2418,4.2267,4.3044,4.3906,4.455,4.4639,4.488,4.5505,4.5723,4.582,4.5885,4.6027,4.6149,4.6289,4.6308,4.6247,4.6142,4.6113,4.6069,4.5967,4.5916,4.5872,4.5821,4.579,4.5603,4.518,4.4837,4.4455,4.4091,4.3726,4.3303,4.2788,4.2183,4.1916,4.1853,4.0713,4.0204,4.0204,4.0121,4.0096,4.0096,4.0096,4.0163,4.0231,4.0146,4.0163,4.0231,4.013,4.051,4.095,4.0316,4.0527,4.1052,4.1052,4.1052,4.1052,4.1052,4.1425,4.1678,4.097,4.1178,4.1725,4.2322,4.2519,4.2596,4.2674,4.3124,4.3515,4.3515,4.3515,4.3515,4.3515,4.3515,4.3515,4.3515,4.3515,4.3515,4.3515,4.3515,4.3754,4.447,4.4544,4.4819,4.5516,4.5571,4.5571,4.5571,4.5681,4.5736,4.5736,4.5264,4.4951,4.4795,4.4795,4.4871,4.504,4.5553,4.607,4.6582,4.6567,4.6765,3.2578,3.4687,3.6894,0.0,3.9531,4.0605,4.1094,4.1191,4.1191,4.1191,4.1462,4.1797,4.2148,4.2868,4.3665,4.4491,4.4616,4.4891,4.5666,4.5881,4.5979,4.6018,4.612,4.6245,4.6289,4.6226,4.6152,4.6091,4.601,4.5924,4.5899,4.5794,4.5757,4.5796,4.5544,4.5304,4.5096,4.4548,4.4076,4.371,4.3267,4.292,4.2655,4.1746,4.1291,4.1246,4.0441,4.0096,4.0096,4.0096,4.0096,4.0096,4.0096,4.0096,4.0096,4.0096,4.0096,4.0096,4.0096,4.0316,4.0536,4.0214,4.0333,4.0578,4.0578,4.0578,4.0578,4.0578,4.0772,4.0967,4.0913,4.111,4.1446,4.2059,4.246,4.2711,4.2711,4.3124,4.3515,4.3515,4.3515,4.3515,4.3515,4.325,4.305,4.305,4.2753,4.2821,4.3613,4.3705,4.4144,4.5242,4.5369,4.5516,4.5865,4.5902,4.5902,4.5902,4.6324,4.6562,4.6562,4.6426,4.6169,4.5784,4.4906,4.4962,4.6002,4.6267,4.7011,4.8176,4.8179,4.84,3.2675,0.0,3.6035,3.7559,3.8926,4.0078,0.0,0.0,4.1191,4.1191,4.1191,4.1366,4.1913,4.2476,4.3111,4.3946,4.4082,4.4445,4.5451,4.5693,4.5855,4.6069,4.6223,4.6308,4.6308,4.6175,4.6082,4.6047,4.5896,4.5815,4.5814,4.5669,4.5607,4.5615,4.5275,4.5,4.483,4.419,4.3675,4.3286,4.2883,4.2539,4.2203,4.1313,4.0827,4.0679,4.0262,4.0096,4.0096,4.0096,4.0096,4.0096,4.0096,4.0096,4.0096,4.0096,4.0096,4.0096,4.0096,4.0096,4.0096,4.0096,4.0096,4.013,4.0333,4.0383,4.0383,4.0383,4.0485,4.0649,4.0855,4.1133,4.1468,4.1916,4.2482,4.2902,4.2902,4.3214,4.3515,4.3515,4.3515,4.3444,4.3322,4.3121,4.2941,4.2767,4.2543,4.28,4.4023,4.4175,4.4698,4.6067,4.6214,4.6287,4.6489,4.6507,4.6507,4.6507,4.7169,4.7519,4.7406,4.7512,4.7288,4.6664,4.5321,4.5223,4.647,4.6612,4.7519,4.9112,4.9112,4.9422,0.0,3.3496,0.0,3.5918,3.8027,3.9902,0.0,0.0,4.1191,4.1191,4.1191,4.1211,4.125,4.1289,4.1558,4.2301,4.2429,4.2972,4.4545,4.4812,4.517,4.5991,4.6223,4.6308,4.6308,4.6175,4.6045,4.5916,4.5836,4.5747,4.5618,4.5603,4.5457,4.515,4.5107,4.475,4.4058,4.3693,4.3268,4.275,4.2711,4.2101,4.0995,4.0926,4.0607,4.0146,4.0121,4.0096,4.0096,4.0096,4.0096,4.0096,4.0096,4.0096,4.0096,4.0096,4.0096,4.0096,4.0096,4.0096,4.0096,4.0096,4.0096,4.0231,4.0933,4.1136,4.1136,4.1136,4.156,4.1819,4.1087,4.175,4.2616,4.2635,4.3069,4.3444,4.3444,4.3479,4.3515,4.3515,4.3515,4.3339,4.2826,4.3287,4.3555,4.2977,4.3465,4.4139,4.4847,4.4947,4.5494,4.6891,4.7039,4.7351,4.8122,4.8177,4.8177,4.8177,4.8564,4.8654,4.8252,4.8047,4.7775,4.7363,4.6639,4.6038,4.5578,4.6145,4.6992,4.8088,4.8088,4.8612,0.0,0.0,0.0,3.5508,3.7129,3.8516,3.9648,4.0566,4.1191,4.1191,4.1191,4.1191,4.1191,4.1191,4.1465,4.2241,4.2357,4.2764,4.3905,4.4559,4.5033,4.5366,4.5936,4.6308,4.6308,4.6175,4.608,4.6036,4.5885,4.5769,4.5725,4.5651,4.5438,4.5107,4.4896,4.4266,4.3176,4.3051,4.2694,4.2121,4.1729,4.1335,4.088,4.0528,4.0286,4.0096,4.0096,4.0096,4.0096,4.0096,4.0096,4.0096,4.0096,4.0096,4.0096,4.0096,4.0096,4.0096,4.0096,4.0096,4.0096,4.0096,4.0096,4.0146,4.0417,4.0476,4.0476,4.0476,4.0637,4.0825,4.0896,4.1223,4.1729,4.2519,4.3124,4.3515,4.3515,4.3515,4.3515,4.3515,4.3515,4.3444,4.325,4.3573,4.3788,4.3568,4.3875,4.4551,4.5683,4.5838,4.6368,4.7717,4.7865,4.7975,4.8288,4.855,4.8692,4.8692,4.9059,4.9218,4.9078,4.9003,4.8695,4.8182,4.7683,4.6984,4.6088,4.6288,4.6605,4.698,4.7404,4.7952,3.0248,0.0,0.0,0.0,3.5996,3.7246,3.8691,3.9707,4.0332,4.0332,4.0566,4.0762,4.0762,4.0996,4.1367,4.1914,4.1992,4.2285,4.3144,4.3769,4.4238,4.4531,4.5332,4.5859,4.5859,4.6019,4.6082,4.6039,4.589,0.0,4.5733,4.5651,4.5381,4.4943,4.4474,4.3749,4.2711,4.2711,4.2302,4.149,4.1087,4.0803,4.0607,4.0262,4.0096,4.0096,4.0096,4.0096,4.0096,4.0096,4.0096,4.0096,4.0096,4.0096,4.0096,4.0096,4.0096,4.0096,4.0096,4.0096,4.0096,4.0096,4.0096,4.0096,4.0096,4.0096,4.0096,4.0096,4.0096,4.0179,4.0528,4.092,4.1468,4.246,4.3124,4.3515,4.3515,4.3515,4.3515,4.3515,4.3515,4.3444,4.3268,4.381,4.4185,4.4004,4.4524,4.5356,4.6516,4.6669,4.7093,4.8175,4.8306,4.8345,4.8495,4.8744,4.8963,4.9092,4.9475,4.9631,4.9522,4.9617,4.9461,4.8902,4.8643,4.8051,4.715,4.6639,4.6524,4.6733,4.7194,4.7709,0.0,0.0,0.0,0.0,0.0,0.0,3.7051,3.791,3.8535,3.8594,3.9258,3.9844,3.9883,4.0586,4.1172,4.1191,4.1191,4.1465,4.2246,4.2383,4.2715,4.3555,4.4453,4.5,4.5,4.5668,4.6045,4.5916,4.5842,4.5747,4.5612,4.5586,4.5273,4.4618,4.3884,4.3232,4.2711,4.2711,4.2101,4.0926,4.0903,4.0631,4.0121,4.0096,4.0096,4.0096,4.0096,4.0096,4.0096,4.0096,4.0096,4.0096,4.0096,4.0096,4.0096,4.0096,4.0096,4.0096,4.0096,4.0096,4.0096,4.0096,4.0096,4.0096,4.0096,4.0096,4.0096,4.0096,4.0096,4.0096,4.0096,4.0955,4.1958,4.2519,4.3105,4.3515,4.3515,4.3515,4.3515,4.3515,4.3515,4.3321,4.2826,4.3992,4.4818,4.4245,4.5485,4.6687,4.7342,4.7428,4.7656,4.8248,4.8306,4.8458,4.8863,4.8913,4.9092,4.9489,4.9898,4.9936,4.9547,4.9905,4.993,4.9547,4.9528,4.9243,4.8646,4.7172,4.6778,4.7385,4.7406,4.7927,2.7959,0.0,0.0,0.0,0.0,0.0,0.0,3.6501,3.707,3.834,3.8281,3.8398,3.9668,4.0098,4.0469,4.1094,4.1191,4.1289,4.1504,4.2031,4.248,4.2734,4.4082,4.5,4.5,4.5741,4.6198,0.0,4.5935,4.5828,4.5754,4.5197,4.4781,4.4612,4.3884,4.3232,4.2711,4.2711,4.2322,4.1556,4.111,4.081,4.0655,4.0286,4.0096,4.0096,4.0096,4.0096,4.0096,4.0096,4.0096,4.0096,4.0096,4.0096,4.0096,4.0096,4.0096,4.0096,4.0096,4.0096,4.0096,4.0096,4.0096,4.0096,4.0096,4.0096,4.0096,4.0096,4.0096,4.0096,4.0096,4.0955,4.1853,4.2,4.2791,4.3515,4.3515,4.3515,4.3515,4.3515,4.3515,4.3444,4.3303,4.4602,4.5586,4.5434,4.6761,4.7838,4.8035,4.8055,4.8114,4.8287,4.8306,4.8458,4.8863,4.9171,4.9504,4.9911,5.0325,5.0483,5.0369,5.0567,5.0621,5.0519,5.0326,5.0085,4.982,4.8303,4.7399,4.7132,4.7313,4.7781,0.0,0.0,0.0,0.0,0.0,0.0,3.4785,3.5333,3.5818,3.7226,3.7402,3.7617,3.8633,3.9414,4.0078,4.0586,4.0957,4.1191,4.1191,4.1601,4.1894,4.1894,4.3418,4.4453,4.4453,4.5566,4.6223,4.6033,4.5936,4.5861,4.5718,4.4655,4.4221,4.4593,4.367,4.2902,4.2322,4.2322,4.2021,4.1424,4.1335,4.1291,4.1251,4.0961,4.0814,4.0791,4.0546,4.0424,4.0417,4.0179,4.0096,4.007,3.9731,3.961,3.961,3.961,3.961,3.9636,3.9978,4.0096,4.0096,4.0096,4.0096,4.0096,4.0096,4.0096,4.0096,4.0096,4.0096,4.0096,4.0096,4.0955,4.181,4.181,4.2658,4.3515,4.3515,4.3515,4.3515,4.3515,4.3515,4.3515,4.3515,4.4562,4.557,4.6075,4.7077,4.7996,4.8495,4.8402,4.8364,4.8532,4.855,4.8779,4.9337,4.9617,4.9924,5.0325,5.0565,5.0712,5.0712,5.0839,5.0908,5.0908,5.0791,5.0603,5.0288,4.923,4.8475,4.8053,4.82,4.8457,0.0,0.0,0.0,0.0,0.0,0.0,3.3479,3.4101,3.4523,3.5485,3.6229,3.6795,3.7088,3.8417,3.9511,3.9707,4.0469,4.1074,4.1172,4.1191,4.1191,4.1191,4.2676,4.3652,4.3574,4.5214,4.6096,4.5663,4.5604,4.5491,4.5269,4.4019,4.3648,4.439,4.3364,4.2539,4.1982,4.2,4.1729,4.1183,4.1664,4.1895,4.1895,4.1832,4.181,4.1771,4.1228,4.0972,4.0856,4.0392,4.0104,3.9901,3.9166,3.8908,3.8908,3.8908,3.8962,3.9139,3.9833,4.0096,4.0096,4.0096,4.0096,4.0096,4.0096,4.0096,4.0096,4.0096,4.0146,4.0179,4.0179,4.103,4.1895,4.1895,4.2715,4.3515,4.3515,4.3515,4.3515,4.3515,4.3515,4.3515,4.3515,4.4284,4.5249,4.6347,4.6917,4.7645,4.8818,4.8565,4.8457,4.8911,4.898,4.9261,5.0043,5.0092,5.0272,5.0673,5.0712,5.0712,5.0712,5.0844,5.0918,5.0918,5.1042,5.0862,5.0393,4.9967,4.967,4.9489,4.9489,4.9489,0.0,0.0,0.0,0.0,0.0,0.0,3.1418,3.1839,3.2411,3.3529,3.3327,3.36,3.5707,3.6409,3.7113,3.8475,3.9413,4.0278,4.1093,4.1191,4.1191,4.1191,4.2676,4.3418,4.2715,4.4774,4.5511,4.4004,4.3744,4.3514,4.3196,4.3258,4.3248,4.3156,4.3277,4.3286,4.3178,4.3178,4.3105,4.2996,4.2675,4.2519,4.25,4.2021,4.181,4.1793,4.1664,4.1358,4.088,4.078,4.011,3.9113,3.8962,3.8908,3.8908,3.8908,3.9315,3.9901,4.0045,4.0096,4.0096,4.0096,4.0096,4.0096,4.0096,4.0096,4.0096,4.0096,4.0417,4.0733,4.0733,4.1639,4.2519,4.2519,4.3014,4.3515,4.3515,4.3515,4.3515,4.3515,4.3515,4.3515,4.3515,4.4962,4.6227,4.647,4.7364,4.8322,4.9258,4.8709,4.851,4.9296,4.9386,4.9575,5.0056,5.0092,5.0272,5.0673,5.0712,5.0712,5.0712,5.0932,5.1053,5.1053,5.1136,5.1109,5.095,5.0417,4.9946,4.9489,4.9489,4.9489,0.0,0.0,0.0,2.8049,0.0,0.0,0.0,3.0501,3.1209,3.2817,3.2478,3.2479,3.4395,3.4893,3.5424,3.6703,3.7776,3.8769,3.9681,4.0546,4.1127,4.1191,4.2676,4.3515,4.3037,4.4524,4.4826,4.3224,4.2541,4.2259,4.2343,4.2423,4.2562,4.2779,4.3001,4.3105,4.3105,4.3105,4.3105,4.3087,4.3265,4.3265,4.3087,4.296,4.2813,4.262,4.2364,4.208,4.1771,4.1468,4.0706,3.9691,3.911,3.8908,3.8908,3.8908,3.9344,4.0002,4.0383,4.0696,4.0938,4.0938,4.0938,4.0938,4.0938,4.0938,4.0938,4.0938,4.115,4.1358,4.1358,4.2021,4.2711,4.2711,4.3124,4.3515,4.3515,4.3515,4.3548,4.371,4.3758,4.3693,4.3531,4.4473,4.5618,4.663,4.692,4.7526,4.8964,4.8583,4.8447,4.9078,4.954,4.9962,5.0377,5.0399,5.0483,5.0683,5.0712,5.0712,5.0712,5.0901,5.1039,5.1108,5.1133,5.1107,5.1004,5.074,5.0423,5.0092,5.0092,5.0092,0.0,0.0,0.0,0.0,0.0,2.8115,0.0,0.0,0.0,0.0,0.0,0.0,0.0,0.0,0.0,3.4571,0.0,0.0,0.0,3.9355,0.0,4.0878,4.2401,4.3331,4.309,4.3632,4.3572,4.2582,4.1552,4.1133,4.1506,4.1407,4.17,4.2456,4.2573,4.2682,4.2864,4.2864,4.2884,4.2959,4.3668,4.3896,4.3728,4.3986,4.3974,4.3695,4.3265,4.2996,4.2849,4.2375,4.1718,4.0937,3.9715,3.9225,3.9225,3.9225,3.9631,4.026,4.0868,4.1402,4.181,4.181,4.181,4.181,4.181,4.181,4.181,4.181,4.1895,4.1979,4.1979,4.2402,4.2864,4.2864,4.3178,4.3515,4.3515,4.3515,4.358,4.3849,4.3955,4.394,4.3761,4.4116,4.5003,4.6687,4.6398,4.6733,4.8671,4.8485,4.8422,4.9102,4.9805,5.0347,5.0673,5.0712,5.0712,5.0712,5.0712,5.0712,5.0712,5.0839,5.0953,5.1108,5.1089,5.102,5.0908,5.0908,5.0819,5.0712,5.0712,5.0663,0.0,0.0,0.0,0.0,2.8155,0.0,0.0,0.0,2.9398,2.9167,0.0,0.0,0.0,0.0,0.0,0.0,0.0,0.0,3.5721,3.7337,3.8851,3.9754,4.1395,4.2117,4.1217,4.0889,4.0939,4.1428,4.0439,3.9686,3.9453,4.0081,4.07,4.1284,4.1977,4.2678,4.3391,4.341,4.356,4.3844,4.3952,4.418,4.4474,4.4514,4.4514,4.4474,4.4401,4.4078,4.3584,4.35,4.3193,4.2578,4.1014,4.0399,4.0399,4.0399,4.0896,4.1582,4.1664,4.1729,4.181,4.181,4.181,4.181,4.181,4.181,4.181,4.181,4.2183,4.2596,4.2596,4.3014,4.341,4.341,4.3463,4.3515,4.3515,4.3515,4.3496,4.3548,4.3804,4.4087,4.4419,4.5344,4.6123,4.6348,4.6604,4.7386,4.9115,4.8625,4.8721,5.0317,5.0567,5.0653,5.0702,5.0712,5.0712,5.0712,5.0712,5.0712,5.0712,5.0839,5.0953,5.1108,5.1089,5.102,5.0908,5.0908,5.0819,5.0712,5.0712,5.0504,0.0,0.0,0.0,0.0,0.0,0.0,2.7467,0.0,2.7975,0.0,0.0,0.0,0.0,0.0,0.0,0.0,3.177,0.0,0.0,0.0,3.6918,3.8478,0.0,0.0,4.0516,4.0708,4.0693,4.0352,3.9446,3.8756,3.841,3.8902,3.9437,3.9922,4.1159,4.2239,4.3082,4.3564,4.3989,4.4346,4.4548,4.4612,4.4624,4.4793,4.4769,4.4606,4.4642,4.4509,4.4279,4.4285,4.4153,4.3912,4.3187,4.2545,4.1996,4.1996,4.2377,4.2902,4.2902,4.313,4.3422,4.3422,4.3256,4.3067,4.3067,4.2941,4.2791,4.2791,4.2977,4.316,4.316,4.3105,4.3105,4.3427,4.3268,4.3124,4.3427,4.3515,4.3565,4.374,4.4091,4.4455,4.4837,4.5285,4.5756,4.6233,4.6215,4.6586,4.7798,4.8048,4.841,4.9222,5.0223,5.0822,5.0822,5.0822,5.0782,5.0702,5.0712,5.0712,5.0712,5.0748,5.0805,5.0875,5.0863,5.0835,5.0782,5.0782,5.0757,5.0712,5.0712,5.0614,2.9005,0.0,0.0,0.0,0.0,0.0,0.0,0.0,0.0,0.0,0.0,0.0,0.0,0.0,0.0,0.0,0.0,3.111,0.0,3.3519,0.0,0.0,0.0,0.0,0.0,3.9728,3.9791,3.9173,3.8381,3.7917,3.7892,3.8004,3.8339,3.8887,4.0167,4.1265,4.2112,4.2924,4.3535,4.3913,4.4247,4.444,4.4524,4.482,4.4926,4.4927,4.4998,4.5021,4.4991,4.4907,4.4852,4.4858,4.4694,4.4224,4.3618,4.3523,4.3699,4.4009,4.3989,4.424,4.4593,4.4593,4.4387,4.4132,4.4028,4.3836,4.3631,4.3531,4.3515,4.3515,4.3515,4.3214,4.3014,4.341,4.3196,4.3032,4.341,4.3515,4.3563,4.382,4.418,4.4553,4.4908,4.5107,4.5443,4.6027,4.5822,4.599,4.7086,4.774,4.833,4.8958,5.0134,5.0911,5.094,5.0946,5.0908,5.0766,5.0748,5.074,5.0693,5.0712,5.0712,5.0712,5.0712,5.0712,5.0712,5.0712,5.0712,5.0712,5.0712,5.0634,0.0,0.0,0.0,2.7992,0.0,0.0,0.0,0.0,2.6725,0.0,0.0,0.0,0.0,0.0,0.0,0.0,0.0,0.0,0.0,0.0,0.0,0.0,0.0,0.0,0.0,3.6764,3.7156,0.0,3.7214,3.7083,3.7857,3.7469,3.76,3.8399,3.8923,3.9571,4.0384,4.1243,4.1838,4.2184,4.2449,4.3177,4.4308,4.4462,4.497,4.5764,4.5827,4.5827,4.5731,4.5402,4.5275,4.523,4.4846,4.4909,4.5175,4.4783,4.4731,4.4851,4.4713,4.4633,4.4593,4.4593,4.458,4.4514,4.4117,4.4001,4.3927,4.3597,4.3515,4.3515,4.3515,4.3497,4.3479,4.3497,4.3497,4.3479,4.3497,4.3515,4.3496,4.3513,4.3788,4.4146,4.454,4.515,4.5577,4.5615,4.5605,4.621,4.7855,4.8086,4.8792,5.0615,5.087,5.094,5.1074,5.1084,5.1045,5.0889,5.0901,5.0847,5.0721,5.0712,5.0712,5.0712,5.0712,5.0712,5.0712,5.0712,5.0712,5.0712,5.0712,5.0493,0.0,0.0,2.8034,2.794,0.0,0.0,0.0,0.0,0.0,0.0,0.0,0.0,0.0,0.0,0.0,0.0,0.0,0.0,0.0,0.0,0.0,0.0,0.0,0.0,0.0,0.0,0.0,3.6939,3.6477,0.0,3.687,3.6419,3.6433,3.7047,3.7742,3.8665,3.9833,4.0707,4.1577,4.2433,4.251,4.29,4.3536,4.4193,4.4344,4.4143,4.537,4.5592,4.5077,4.5247,4.5273,4.522,4.504,4.5092,4.528,4.5201,4.5304,4.5492,4.5485,4.5437,4.5393,4.5393,4.5187,4.4908,4.4781,4.4574,4.4323,4.3943,4.3818,4.3772,4.3565,4.3232,4.305,4.341,4.3232,4.3087,4.3427,4.3515,4.3515,4.3515,4.3772,4.4117,4.4527,4.4966,4.5342,4.5568,4.5594,4.6009,4.7163,4.7778,4.8629,5.0012,5.0695,5.1079,5.1154,5.1139,5.1031,5.0903,5.0908,5.0835,5.0702,5.0712,5.0712,5.0712,5.0712,5.0712,5.0712,5.0712,5.0712,5.0712,5.0712,5.0624,2.8682,2.825,0.0,2.7897,2.6939,0.0,2.599,0.0,0.0,0.0,0.0,0.0,0.0,0.0,0.0,0.0,0.0,0.0,0.0,2.9614,0.0,0.0,0.0,0.0,0.0,3.4083,3.5113,3.5835,3.5509,0.0,0.0,3.5898,3.5761,3.6097,3.68,3.7591,3.8453,3.9485,4.0391,4.1101,4.1531,4.1982,4.2483,4.3279,4.3516,4.3338,4.4853,4.5204,4.4729,4.4977,4.5132,4.5132,4.4832,4.4952,4.5327,4.5505,4.5717,4.5909,4.5956,4.5896,4.5803,4.5803,4.5563,4.5272,4.5148,4.4943,4.4695,4.4318,4.4204,4.4136,4.3775,4.3404,4.3212,4.3462,4.3232,4.3069,4.3427,4.3515,4.3515,4.3515,4.366,4.3989,4.4514,4.4788,4.5181,4.5945,4.6067,4.6471,4.7644,4.824,4.8968,5.007,5.0738,5.1156,5.1265,5.1235,5.1148,5.1023,5.1017,5.0933,5.0773,5.0764,5.0739,5.0693,5.0758,5.0764,5.0764,5.0822,5.0844,5.0844,5.0844,5.0822]}]]